<?xml version="1.0" encoding="UTF-8" standalone="no" ?>
<gpx xmlns="http://www.topografix.com/GPX/1/1" creator="MapSource 6.16.3" version="1.1" xmlns:xsi="http://www.w3.org/2001/XMLSchema-instance" xsi:schemaLocation="http://www.topografix.com/GPX/1/1 http://www.topografix.com/GPX/1/1/gpx.xsd">

  <metadata>
    <link href="http://www.garmin.com">
      <text>Garmin International</text>
    </link>
    <time>2016-08-31T06:38:04Z</time>
    <bounds maxlat="46.489569218829274" maxlon="10.370212895795703" minlat="46.458528516814113" minlon="10.292502176016569"/>
  </metadata>

  <wpt lat="46.466983342543244" lon="10.336399963125587">
    <ele>1715</ele>
    <name>002</name>
    <sym>Waypoint</sym>
    <extensions>
      <gpxx:WaypointExtension xmlns:gpxx="http://www.garmin.com/xmlschemas/GpxExtensions/v3">
        <gpxx:DisplayMode>SymbolAndName</gpxx:DisplayMode>
      </gpxx:WaypointExtension>
    </extensions>
  </wpt>

  <wpt lat="46.484166663140059" lon="10.353150023147464">
    <ele>1283</ele>
    <name>003</name>
    <sym>Waypoint</sym>
    <extensions>
      <gpxx:WaypointExtension xmlns:gpxx="http://www.garmin.com/xmlschemas/GpxExtensions/v3">
        <gpxx:DisplayMode>SymbolAndName</gpxx:DisplayMode>
      </gpxx:WaypointExtension>
    </extensions>
  </wpt>

  <wpt lat="46.469750041142106" lon="10.369366658851504">
    <ele>1227</ele>
    <name>Partenza</name>
    <sym>Trail Head</sym>
    <extensions>
      <gpxx:WaypointExtension xmlns:gpxx="http://www.garmin.com/xmlschemas/GpxExtensions/v3">
        <gpxx:DisplayMode>SymbolAndName</gpxx:DisplayMode>
      </gpxx:WaypointExtension>
    </extensions>
  </wpt>

  <trk>
    <name>Bormio_Oga</name>
    <trkseg>
      <trkpt lat="46.469713747501373" lon="10.36937135271728">
        <ele>1179.194091796875</ele>
        <time>2003-06-07T07:16:29Z</time>
      </trkpt>
      <trkpt lat="46.46977761760354" lon="10.369178988039494">
        <ele>1226.298828125</ele>
        <time>2003-06-07T07:22:37Z</time>
      </trkpt>
      <trkpt lat="46.469799326732755" lon="10.369041441008449">
        <ele>1226.779541015625</ele>
        <time>2003-06-07T07:22:39Z</time>
      </trkpt>
      <trkpt lat="46.469842828810215" lon="10.368889728561044">
        <ele>1227.74072265625</ele>
        <time>2003-06-07T07:22:41Z</time>
      </trkpt>
      <trkpt lat="46.46991248242557" lon="10.368731562048197">
        <ele>1228.702392578125</ele>
        <time>2003-06-07T07:22:43Z</time>
      </trkpt>
      <trkpt lat="46.470004599541426" lon="10.368576245382428">
        <ele>1229.182861328125</ele>
        <time>2003-06-07T07:22:45Z</time>
      </trkpt>
      <trkpt lat="46.470105433836579" lon="10.368418246507645">
        <ele>1230.144287109375</ele>
        <time>2003-06-07T07:22:47Z</time>
      </trkpt>
      <trkpt lat="46.470230743288994" lon="10.368237784132361">
        <ele>1231.586181640625</ele>
        <time>2003-06-07T07:22:49Z</time>
      </trkpt>
      <trkpt lat="46.470355046913028" lon="10.368058159947395">
        <ele>1233.028076171875</ele>
        <time>2003-06-07T07:22:51Z</time>
      </trkpt>
      <trkpt lat="46.470481781288981" lon="10.367880631238222">
        <ele>1233.028076171875</ele>
        <time>2003-06-07T07:22:53Z</time>
      </trkpt>
      <trkpt lat="46.470608180388808" lon="10.367706622928381">
        <ele>1234.47021484375</ele>
        <time>2003-06-07T07:22:55Z</time>
      </trkpt>
      <trkpt lat="46.47073240019381" lon="10.367533285170794">
        <ele>1235.912109375</ele>
        <time>2003-06-07T07:22:57Z</time>
      </trkpt>
      <trkpt lat="46.470862152054906" lon="10.367354666814208">
        <ele>1236.873291015625</ele>
        <time>2003-06-07T07:22:59Z</time>
      </trkpt>
      <trkpt lat="46.47098938934505" lon="10.367175964638591">
        <ele>1238.3154296875</ele>
        <time>2003-06-07T07:23:01Z</time>
      </trkpt>
      <trkpt lat="46.471114363521338" lon="10.366997681558132">
        <ele>1238.796142578125</ele>
        <time>2003-06-07T07:23:03Z</time>
      </trkpt>
      <trkpt lat="46.471239840611815" lon="10.366826020181179">
        <ele>1239.75732421875</ele>
        <time>2003-06-07T07:23:05Z</time>
      </trkpt>
      <trkpt lat="46.471376800909638" lon="10.366663159802556">
        <ele>1240.718505859375</ele>
        <time>2003-06-07T07:23:07Z</time>
      </trkpt>
      <trkpt lat="46.471530525013804" lon="10.366532569751143">
        <ele>1242.16064453125</ele>
        <time>2003-06-07T07:23:09Z</time>
      </trkpt>
      <trkpt lat="46.471608309075236" lon="10.366472555324435">
        <ele>1243.121826171875</ele>
        <time>2003-06-07T07:23:10Z</time>
      </trkpt>
      <trkpt lat="46.471769409254193" lon="10.366372475400567">
        <ele>1244.56396484375</ele>
        <time>2003-06-07T07:23:12Z</time>
      </trkpt>
      <trkpt lat="46.471935035660863" lon="10.366282369941473">
        <ele>1245.525390625</ele>
        <time>2003-06-07T07:23:14Z</time>
      </trkpt>
      <trkpt lat="46.472021201625466" lon="10.366237442940474">
        <ele>1246.006103515625</ele>
        <time>2003-06-07T07:23:15Z</time>
      </trkpt>
      <trkpt lat="46.472108624875546" lon="10.366192515939474">
        <ele>1246.48681640625</ele>
        <time>2003-06-07T07:23:16Z</time>
      </trkpt>
      <trkpt lat="46.472195461392403" lon="10.366148427128792">
        <ele>1247.447998046875</ele>
        <time>2003-06-07T07:23:17Z</time>
      </trkpt>
      <trkpt lat="46.47227986715734" lon="10.366104422137141">
        <ele>1248.4091796875</ele>
        <time>2003-06-07T07:23:18Z</time>
      </trkpt>
      <trkpt lat="46.472435183823109" lon="10.36601884290576">
        <ele>1249.37060546875</ele>
        <time>2003-06-07T07:23:20Z</time>
      </trkpt>
      <trkpt lat="46.472569378092885" lon="10.365942399948835">
        <ele>1249.851318359375</ele>
        <time>2003-06-07T07:23:22Z</time>
      </trkpt>
      <trkpt lat="46.472688987851143" lon="10.365878697484732">
        <ele>1250.33203125</ele>
        <time>2003-06-07T07:23:24Z</time>
      </trkpt>
      <trkpt lat="46.472801137715578" lon="10.365838129073381">
        <ele>1250.33203125</ele>
        <time>2003-06-07T07:23:26Z</time>
      </trkpt>
      <trkpt lat="46.472907671704888" lon="10.365865370258689">
        <ele>1251.293212890625</ele>
        <time>2003-06-07T07:23:28Z</time>
      </trkpt>
      <trkpt lat="46.472980175167322" lon="10.365986237302423">
        <ele>1252.735107421875</ele>
        <time>2003-06-07T07:23:30Z</time>
      </trkpt>
      <trkpt lat="46.472981180995703" lon="10.366161083802581">
        <ele>1254.17724609375</ele>
        <time>2003-06-07T07:23:32Z</time>
      </trkpt>
      <trkpt lat="46.472927369177341" lon="10.366333751007915">
        <ele>1254.17724609375</ele>
        <time>2003-06-07T07:23:34Z</time>
      </trkpt>
      <trkpt lat="46.472858302295208" lon="10.366511028259993">
        <ele>1255.138427734375</ele>
        <time>2003-06-07T07:23:36Z</time>
      </trkpt>
      <trkpt lat="46.472783870995045" lon="10.36670096218586">
        <ele>1256.099609375</ele>
        <time>2003-06-07T07:23:38Z</time>
      </trkpt>
      <trkpt lat="46.472704410552979" lon="10.366904558613896">
        <ele>1257.541748046875</ele>
        <time>2003-06-07T07:23:40Z</time>
      </trkpt>
      <trkpt lat="46.472620842978358" lon="10.36712215282023">
        <ele>1259.46435546875</ele>
        <time>2003-06-07T07:23:42Z</time>
      </trkpt>
      <trkpt lat="46.472537526860833" lon="10.367339244112372">
        <ele>1260.906494140625</ele>
        <time>2003-06-07T07:23:44Z</time>
      </trkpt>
      <trkpt lat="46.472458317875862" lon="10.367546863853931">
        <ele>1261.38720703125</ele>
        <time>2003-06-07T07:23:46Z</time>
      </trkpt>
      <trkpt lat="46.472388161346316" lon="10.367741407826543">
        <ele>1263.309814453125</ele>
        <time>2003-06-07T07:23:48Z</time>
      </trkpt>
      <trkpt lat="46.472370894625783" lon="10.367936957627535">
        <ele>1263.309814453125</ele>
        <time>2003-06-07T07:23:50Z</time>
      </trkpt>
      <trkpt lat="46.472440883517265" lon="10.368085484951735">
        <ele>1263.790283203125</ele>
        <time>2003-06-07T07:23:52Z</time>
      </trkpt>
      <trkpt lat="46.472557978704572" lon="10.368136279284954">
        <ele>1264.751708984375</ele>
        <time>2003-06-07T07:23:54Z</time>
      </trkpt>
      <trkpt lat="46.472679348662496" lon="10.368104763329029">
        <ele>1265.232421875</ele>
        <time>2003-06-07T07:23:56Z</time>
      </trkpt>
      <trkpt lat="46.472801640629768" lon="10.367991020902991">
        <ele>1266.193603515625</ele>
        <time>2003-06-07T07:23:58Z</time>
      </trkpt>
      <trkpt lat="46.472931643947959" lon="10.367855317890644">
        <ele>1267.155029296875</ele>
        <time>2003-06-07T07:24:00Z</time>
      </trkpt>
      <trkpt lat="46.473073465749621" lon="10.367708718404174">
        <ele>1268.596923828125</ele>
        <time>2003-06-07T07:24:02Z</time>
      </trkpt>
      <trkpt lat="46.473230291157961" lon="10.367549797520041">
        <ele>1269.558349609375</ele>
        <time>2003-06-07T07:24:04Z</time>
      </trkpt>
      <trkpt lat="46.473314529284835" lon="10.367467319592834">
        <ele>1270.51953125</ele>
        <time>2003-06-07T07:24:05Z</time>
      </trkpt>
      <trkpt lat="46.473402203992009" lon="10.367384674027562">
        <ele>1271.96142578125</ele>
        <time>2003-06-07T07:24:06Z</time>
      </trkpt>
      <trkpt lat="46.473492309451103" lon="10.367303704842925">
        <ele>1273.403564453125</ele>
        <time>2003-06-07T07:24:07Z</time>
      </trkpt>
      <trkpt lat="46.473585348576307" lon="10.367228016257286">
        <ele>1273.884033203125</ele>
        <time>2003-06-07T07:24:08Z</time>
      </trkpt>
      <trkpt lat="46.473674448207021" lon="10.367150818929076">
        <ele>1274.845458984375</ele>
        <time>2003-06-07T07:24:09Z</time>
      </trkpt>
      <trkpt lat="46.473766816779971" lon="10.367077561095357">
        <ele>1275.325927734375</ele>
        <time>2003-06-07T07:24:10Z</time>
      </trkpt>
      <trkpt lat="46.473857425153255" lon="10.367006063461304">
        <ele>1275.806640625</ele>
        <time>2003-06-07T07:24:11Z</time>
      </trkpt>
      <trkpt lat="46.473949290812016" lon="10.366938505321741">
        <ele>1276.28759765625</ele>
        <time>2003-06-07T07:24:12Z</time>
      </trkpt>
      <trkpt lat="46.474042246118188" lon="10.366872539743781">
        <ele>1276.768310546875</ele>
        <time>2003-06-07T07:24:13Z</time>
      </trkpt>
      <trkpt lat="46.47413712926209" lon="10.366811687126756">
        <ele>1277.2490234375</ele>
        <time>2003-06-07T07:24:14Z</time>
      </trkpt>
      <trkpt lat="46.474230755120516" lon="10.366748906672001">
        <ele>1277.2490234375</ele>
        <time>2003-06-07T07:24:15Z</time>
      </trkpt>
      <trkpt lat="46.474327482283115" lon="10.3666902333498">
        <ele>1277.7294921875</ele>
        <time>2003-06-07T07:24:16Z</time>
      </trkpt>
      <trkpt lat="46.474422533065081" lon="10.366638265550137">
        <ele>1278.210205078125</ele>
        <time>2003-06-07T07:24:17Z</time>
      </trkpt>
      <trkpt lat="46.474606264382601" lon="10.366539107635617">
        <ele>1279.17138671875</ele>
        <time>2003-06-07T07:24:19Z</time>
      </trkpt>
      <trkpt lat="46.474698884412646" lon="10.366501556709409">
        <ele>1279.17138671875</ele>
        <time>2003-06-07T07:24:20Z</time>
      </trkpt>
      <trkpt lat="46.474875155836344" lon="10.366451013833284">
        <ele>1281.09423828125</ele>
        <time>2003-06-07T07:24:22Z</time>
      </trkpt>
      <trkpt lat="46.475021839141846" lon="10.366490744054317">
        <ele>1282.055419921875</ele>
        <time>2003-06-07T07:24:24Z</time>
      </trkpt>
      <trkpt lat="46.4751813467592" lon="10.366535754874349">
        <ele>1283.0166015625</ele>
        <time>2003-06-07T07:24:26Z</time>
      </trkpt>
      <trkpt lat="46.475363736972213" lon="10.366587219759822">
        <ele>1285.419921875</ele>
        <time>2003-06-07T07:24:28Z</time>
      </trkpt>
      <trkpt lat="46.475462056696415" lon="10.36661303602159">
        <ele>1285.419921875</ele>
        <time>2003-06-07T07:24:29Z</time>
      </trkpt>
      <trkpt lat="46.475563226267695" lon="10.366640109568834">
        <ele>1286.38134765625</ele>
        <time>2003-06-07T07:24:30Z</time>
      </trkpt>
      <trkpt lat="46.475663390010595" lon="10.36666676402092">
        <ele>1286.86181640625</ele>
        <time>2003-06-07T07:24:31Z</time>
      </trkpt>
      <trkpt lat="46.475756764411926" lon="10.366691909730434">
        <ele>1286.86181640625</ele>
        <time>2003-06-07T07:24:32Z</time>
      </trkpt>
      <trkpt lat="46.475848965346813" lon="10.366716552525759">
        <ele>1287.8232421875</ele>
        <time>2003-06-07T07:24:33Z</time>
      </trkpt>
      <trkpt lat="46.475941250100732" lon="10.366741195321083">
        <ele>1287.8232421875</ele>
        <time>2003-06-07T07:24:34Z</time>
      </trkpt>
      <trkpt lat="46.476036887615919" lon="10.366766257211566">
        <ele>1288.78466796875</ele>
        <time>2003-06-07T07:24:35Z</time>
      </trkpt>
      <trkpt lat="46.476129842922091" lon="10.366790648549795">
        <ele>1289.26513671875</ele>
        <time>2003-06-07T07:24:36Z</time>
      </trkpt>
      <trkpt lat="46.476222714409232" lon="10.366815039888024">
        <ele>1290.70703125</ele>
        <time>2003-06-07T07:24:37Z</time>
      </trkpt>
      <trkpt lat="46.476316675543785" lon="10.366839179769158">
        <ele>1290.70703125</ele>
        <time>2003-06-07T07:24:38Z</time>
      </trkpt>
      <trkpt lat="46.476410636678338" lon="10.36686273291707">
        <ele>1291.66845703125</ele>
        <time>2003-06-07T07:24:39Z</time>
      </trkpt>
      <trkpt lat="46.476601073518395" lon="10.36690866574645">
        <ele>1292.1494140625</ele>
        <time>2003-06-07T07:24:41Z</time>
      </trkpt>
      <trkpt lat="46.476696711033583" lon="10.366932470351458">
        <ele>1292.1494140625</ele>
        <time>2003-06-07T07:24:42Z</time>
      </trkpt>
      <trkpt lat="46.476884884759784" lon="10.366974463686347">
        <ele>1294.072021484375</ele>
        <time>2003-06-07T07:24:44Z</time>
      </trkpt>
      <trkpt lat="46.47697800770402" lon="10.3669941611588">
        <ele>1294.072021484375</ele>
        <time>2003-06-07T07:24:45Z</time>
      </trkpt>
      <trkpt lat="46.477139443159103" lon="10.367026096209884">
        <ele>1295.033203125</ele>
        <time>2003-06-07T07:24:47Z</time>
      </trkpt>
      <trkpt lat="46.477287551388144" lon="10.367059875279665">
        <ele>1295.99462890625</ele>
        <time>2003-06-07T07:24:49Z</time>
      </trkpt>
      <trkpt lat="46.477427612990141" lon="10.367094408720732">
        <ele>1296.475341796875</ele>
        <time>2003-06-07T07:24:51Z</time>
      </trkpt>
      <trkpt lat="46.477536829188466" lon="10.367127349600196">
        <ele>1297.917236328125</ele>
        <time>2003-06-07T07:24:53Z</time>
      </trkpt>
      <trkpt lat="46.477616541087627" lon="10.367180155590177">
        <ele>1298.397705078125</ele>
        <time>2003-06-07T07:24:55Z</time>
      </trkpt>
      <trkpt lat="46.477681081742048" lon="10.367277637124062">
        <ele>1298.397705078125</ele>
        <time>2003-06-07T07:25:00Z</time>
      </trkpt>
      <trkpt lat="46.477770684286952" lon="10.367391128093004">
        <ele>1298.87841796875</ele>
        <time>2003-06-07T07:25:05Z</time>
      </trkpt>
      <trkpt lat="46.477867662906647" lon="10.367491543292999">
        <ele>1298.397705078125</ele>
        <time>2003-06-07T07:25:08Z</time>
      </trkpt>
      <trkpt lat="46.477945782244205" lon="10.367581062018871">
        <ele>1298.397705078125</ele>
        <time>2003-06-07T07:25:10Z</time>
      </trkpt>
      <trkpt lat="46.478033792227507" lon="10.367688601836562">
        <ele>1298.87841796875</ele>
        <time>2003-06-07T07:25:12Z</time>
      </trkpt>
      <trkpt lat="46.478139655664563" lon="10.367809133604169">
        <ele>1298.87841796875</ele>
        <time>2003-06-07T07:25:14Z</time>
      </trkpt>
      <trkpt lat="46.478256834670901" lon="10.367942405864596">
        <ele>1300.320556640625</ele>
        <time>2003-06-07T07:25:16Z</time>
      </trkpt>
      <trkpt lat="46.478378623723984" lon="10.368077857419848">
        <ele>1301.762451171875</ele>
        <time>2003-06-07T07:25:18Z</time>
      </trkpt>
      <trkpt lat="46.478498987853527" lon="10.368213392794132">
        <ele>1302.242919921875</ele>
        <time>2003-06-07T07:25:20Z</time>
      </trkpt>
      <trkpt lat="46.478627314791083" lon="10.368347251787782">
        <ele>1301.762451171875</ele>
        <time>2003-06-07T07:25:22Z</time>
      </trkpt>
      <trkpt lat="46.47876737639308" lon="10.368470381945372">
        <ele>1303.204345703125</ele>
        <time>2003-06-07T07:25:24Z</time>
      </trkpt>
      <trkpt lat="46.478925291448832" lon="10.368445236235857">
        <ele>1303.204345703125</ele>
        <time>2003-06-07T07:25:26Z</time>
      </trkpt>
      <trkpt lat="46.479076165705919" lon="10.368378600105643">
        <ele>1303.68505859375</ele>
        <time>2003-06-07T07:25:28Z</time>
      </trkpt>
      <trkpt lat="46.479219831526279" lon="10.36826360039413">
        <ele>1304.165771484375</ele>
        <time>2003-06-07T07:25:30Z</time>
      </trkpt>
      <trkpt lat="46.479375148192048" lon="10.368115492165089">
        <ele>1305.607666015625</ele>
        <time>2003-06-07T07:25:32Z</time>
      </trkpt>
      <trkpt lat="46.479531470686197" lon="10.367958080023527">
        <ele>1305.607666015625</ele>
        <time>2003-06-07T07:25:34Z</time>
      </trkpt>
      <trkpt lat="46.47968745790422" lon="10.36780821159482">
        <ele>1306.56884765625</ele>
        <time>2003-06-07T07:25:36Z</time>
      </trkpt>
      <trkpt lat="46.479858113452792" lon="10.367680303752422">
        <ele>1308.01123046875</ele>
        <time>2003-06-07T07:25:38Z</time>
      </trkpt>
      <trkpt lat="46.47994059138" lon="10.367617607116699">
        <ele>1308.49169921875</ele>
        <time>2003-06-07T07:25:39Z</time>
      </trkpt>
      <trkpt lat="46.480105547234416" lon="10.367492213845253">
        <ele>1309.453125</ele>
        <time>2003-06-07T07:25:41Z</time>
      </trkpt>
      <trkpt lat="46.480188360437751" lon="10.367431445047259">
        <ele>1308.49169921875</ele>
        <time>2003-06-07T07:25:42Z</time>
      </trkpt>
      <trkpt lat="46.480353567749262" lon="10.367321306839585">
        <ele>1308.01123046875</ele>
        <time>2003-06-07T07:25:44Z</time>
      </trkpt>
      <trkpt lat="46.480438560247421" lon="10.367215862497687">
        <ele>1308.49169921875</ele>
        <time>2003-06-07T07:25:46Z</time>
      </trkpt>
      <trkpt lat="46.480509471148252" lon="10.367105808109045">
        <ele>1308.49169921875</ele>
        <time>2003-06-07T07:25:48Z</time>
      </trkpt>
      <trkpt lat="46.480584992095828" lon="10.366969937458634">
        <ele>1310.414306640625</ele>
        <time>2003-06-07T07:25:50Z</time>
      </trkpt>
      <trkpt lat="46.480682054534554" lon="10.3668162971735">
        <ele>1310.414306640625</ele>
        <time>2003-06-07T07:25:52Z</time>
      </trkpt>
      <trkpt lat="46.480831168591976" lon="10.366640947759151">
        <ele>1310.89501953125</ele>
        <time>2003-06-07T07:25:54Z</time>
      </trkpt>
      <trkpt lat="46.480905180796981" lon="10.366564253345132">
        <ele>1310.89501953125</ele>
        <time>2003-06-07T07:25:55Z</time>
      </trkpt>
      <trkpt lat="46.481047673150897" lon="10.366430310532451">
        <ele>1310.89501953125</ele>
        <time>2003-06-07T07:25:57Z</time>
      </trkpt>
      <trkpt lat="46.48117390461266" lon="10.366336181759834">
        <ele>1311.375732421875</ele>
        <time>2003-06-07T07:25:59Z</time>
      </trkpt>
      <trkpt lat="46.481289155781269" lon="10.366287231445312">
        <ele>1310.89501953125</ele>
        <time>2003-06-07T07:26:01Z</time>
      </trkpt>
      <trkpt lat="46.481398791074753" lon="10.366250686347485">
        <ele>1310.89501953125</ele>
        <time>2003-06-07T07:26:03Z</time>
      </trkpt>
      <trkpt lat="46.481508174911141" lon="10.366217410191894">
        <ele>1310.414306640625</ele>
        <time>2003-06-07T07:26:05Z</time>
      </trkpt>
      <trkpt lat="46.481615463271737" lon="10.36618011072278">
        <ele>1310.414306640625</ele>
        <time>2003-06-07T07:26:07Z</time>
      </trkpt>
      <trkpt lat="46.481715040281415" lon="10.366138871759176">
        <ele>1309.93359375</ele>
        <time>2003-06-07T07:26:09Z</time>
      </trkpt>
      <trkpt lat="46.481821155175567" lon="10.366059998050332">
        <ele>1310.414306640625</ele>
        <time>2003-06-07T07:26:11Z</time>
      </trkpt>
      <trkpt lat="46.481952164322138" lon="10.36592454649508">
        <ele>1310.414306640625</ele>
        <time>2003-06-07T07:26:13Z</time>
      </trkpt>
      <trkpt lat="46.482077809050679" lon="10.365753304213285">
        <ele>1309.93359375</ele>
        <time>2003-06-07T07:26:15Z</time>
      </trkpt>
      <trkpt lat="46.482187611982226" lon="10.365569153800607">
        <ele>1309.93359375</ele>
        <time>2003-06-07T07:26:17Z</time>
      </trkpt>
      <trkpt lat="46.482294900342822" lon="10.365390619263053">
        <ele>1309.453125</ele>
        <time>2003-06-07T07:26:19Z</time>
      </trkpt>
      <trkpt lat="46.482407469302416" lon="10.365212839096785">
        <ele>1308.49169921875</ele>
        <time>2003-06-07T07:26:21Z</time>
      </trkpt>
      <trkpt lat="46.482519032433629" lon="10.365032711997628">
        <ele>1308.01123046875</ele>
        <time>2003-06-07T07:26:23Z</time>
      </trkpt>
      <trkpt lat="46.482606874778867" lon="10.364837665110826">
        <ele>1308.01123046875</ele>
        <time>2003-06-07T07:26:25Z</time>
      </trkpt>
      <trkpt lat="46.482650628313422" lon="10.364624848589301">
        <ele>1308.01123046875</ele>
        <time>2003-06-07T07:26:27Z</time>
      </trkpt>
      <trkpt lat="46.482682814821601" lon="10.364417312666774">
        <ele>1308.01123046875</ele>
        <time>2003-06-07T07:26:29Z</time>
      </trkpt>
      <trkpt lat="46.482740985229611" lon="10.364234838634729">
        <ele>1307.5302734375</ele>
        <time>2003-06-07T07:26:31Z</time>
      </trkpt>
      <trkpt lat="46.482834443449974" lon="10.364088155329227">
        <ele>1308.01123046875</ele>
        <time>2003-06-07T07:26:33Z</time>
      </trkpt>
      <trkpt lat="46.482939552515745" lon="10.363946920260787">
        <ele>1306.56884765625</ele>
        <time>2003-06-07T07:26:35Z</time>
      </trkpt>
      <trkpt lat="46.483008870854974" lon="10.363761261105537">
        <ele>1306.088134765625</ele>
        <time>2003-06-07T07:26:37Z</time>
      </trkpt>
      <trkpt lat="46.483042482286692" lon="10.363551126793027">
        <ele>1305.126953125</ele>
        <time>2003-06-07T07:26:39Z</time>
      </trkpt>
      <trkpt lat="46.483065616339445" lon="10.363341746851802">
        <ele>1304.165771484375</ele>
        <time>2003-06-07T07:26:41Z</time>
      </trkpt>
      <trkpt lat="46.483083218336105" lon="10.363156003877521">
        <ele>1303.68505859375</ele>
        <time>2003-06-07T07:26:43Z</time>
      </trkpt>
      <trkpt lat="46.483094366267323" lon="10.363015020266175">
        <ele>1303.204345703125</ele>
        <time>2003-06-07T07:26:45Z</time>
      </trkpt>
      <trkpt lat="46.483108028769493" lon="10.362827097997069">
        <ele>1302.7236328125</ele>
        <time>2003-06-07T07:26:48Z</time>
      </trkpt>
      <trkpt lat="46.483132755383849" lon="10.36269273608923">
        <ele>1302.7236328125</ele>
        <time>2003-06-07T07:26:50Z</time>
      </trkpt>
      <trkpt lat="46.483179945498705" lon="10.362554350867867">
        <ele>1302.7236328125</ele>
        <time>2003-06-07T07:26:52Z</time>
      </trkpt>
      <trkpt lat="46.483229482546449" lon="10.362431639805436">
        <ele>1302.242919921875</ele>
        <time>2003-06-07T07:26:54Z</time>
      </trkpt>
      <trkpt lat="46.483278600499034" lon="10.362316053360701">
        <ele>1302.242919921875</ele>
        <time>2003-06-07T07:26:56Z</time>
      </trkpt>
      <trkpt lat="46.483318665996194" lon="10.362199041992426">
        <ele>1302.242919921875</ele>
        <time>2003-06-07T07:27:00Z</time>
      </trkpt>
      <trkpt lat="46.483364012092352" lon="10.362044731155038">
        <ele>1302.242919921875</ele>
        <time>2003-06-07T07:27:04Z</time>
      </trkpt>
      <trkpt lat="46.483410531654954" lon="10.361856054514647">
        <ele>1302.7236328125</ele>
        <time>2003-06-07T07:27:07Z</time>
      </trkpt>
      <trkpt lat="46.483458895236254" lon="10.361711131408811">
        <ele>1302.7236328125</ele>
        <time>2003-06-07T07:27:09Z</time>
      </trkpt>
      <trkpt lat="46.48351639509201" lon="10.361553886905313">
        <ele>1302.7236328125</ele>
        <time>2003-06-07T07:27:11Z</time>
      </trkpt>
      <trkpt lat="46.483584037050605" lon="10.361378118395805">
        <ele>1303.204345703125</ele>
        <time>2003-06-07T07:27:13Z</time>
      </trkpt>
      <trkpt lat="46.483661234378815" lon="10.361190447583795">
        <ele>1303.204345703125</ele>
        <time>2003-06-07T07:27:15Z</time>
      </trkpt>
      <trkpt lat="46.483725607395172" lon="10.361044183373451">
        <ele>1302.7236328125</ele>
        <time>2003-06-07T07:27:17Z</time>
      </trkpt>
      <trkpt lat="46.483768271282315" lon="10.360951982438564">
        <ele>1301.762451171875</ele>
        <time>2003-06-07T07:27:19Z</time>
      </trkpt>
      <trkpt lat="46.483841193839908" lon="10.360800856724381">
        <ele>1302.242919921875</ele>
        <time>2003-06-07T07:27:23Z</time>
      </trkpt>
      <trkpt lat="46.48389651440084" lon="10.360687281936407">
        <ele>1302.242919921875</ele>
        <time>2003-06-07T07:27:25Z</time>
      </trkpt>
      <trkpt lat="46.483960133045912" lon="10.360563481226563">
        <ele>1302.242919921875</ele>
        <time>2003-06-07T07:27:27Z</time>
      </trkpt>
      <trkpt lat="46.484029199928045" lon="10.360432136803865">
        <ele>1303.204345703125</ele>
        <time>2003-06-07T07:27:29Z</time>
      </trkpt>
      <trkpt lat="46.484101116657257" lon="10.360291907563806">
        <ele>1303.204345703125</ele>
        <time>2003-06-07T07:27:31Z</time>
      </trkpt>
      <trkpt lat="46.484175296500325" lon="10.36014212295413">
        <ele>1303.204345703125</ele>
        <time>2003-06-07T07:27:33Z</time>
      </trkpt>
      <trkpt lat="46.484256265684962" lon="10.359995272010565">
        <ele>1303.204345703125</ele>
        <time>2003-06-07T07:27:35Z</time>
      </trkpt>
      <trkpt lat="46.484349556267262" lon="10.359881110489368">
        <ele>1303.204345703125</ele>
        <time>2003-06-07T07:27:37Z</time>
      </trkpt>
      <trkpt lat="46.484447037801147" lon="10.359798967838287">
        <ele>1303.68505859375</ele>
        <time>2003-06-07T07:27:39Z</time>
      </trkpt>
      <trkpt lat="46.484543429687619" lon="10.35972872748971">
        <ele>1302.7236328125</ele>
        <time>2003-06-07T07:27:41Z</time>
      </trkpt>
      <trkpt lat="46.484647113829851" lon="10.35963736474514">
        <ele>1303.204345703125</ele>
        <time>2003-06-07T07:27:43Z</time>
      </trkpt>
      <trkpt lat="46.484761526808143" lon="10.359540972858667">
        <ele>1303.204345703125</ele>
        <time>2003-06-07T07:27:45Z</time>
      </trkpt>
      <trkpt lat="46.484876358881593" lon="10.359446257352829">
        <ele>1303.204345703125</ele>
        <time>2003-06-07T07:27:47Z</time>
      </trkpt>
      <trkpt lat="46.485007284209132" lon="10.359382722526789">
        <ele>1303.204345703125</ele>
        <time>2003-06-07T07:27:49Z</time>
      </trkpt>
      <trkpt lat="46.48514449596405" lon="10.359332766383886">
        <ele>1303.204345703125</ele>
        <time>2003-06-07T07:27:51Z</time>
      </trkpt>
      <trkpt lat="46.48528472520411" lon="10.359290605410933">
        <ele>1303.204345703125</ele>
        <time>2003-06-07T07:27:53Z</time>
      </trkpt>
      <trkpt lat="46.485434677451849" lon="10.359248360618949">
        <ele>1303.204345703125</ele>
        <time>2003-06-07T07:27:55Z</time>
      </trkpt>
      <trkpt lat="46.485590748488903" lon="10.359212402254343">
        <ele>1303.204345703125</ele>
        <time>2003-06-07T07:27:57Z</time>
      </trkpt>
      <trkpt lat="46.485757296904922" lon="10.359195554628968">
        <ele>1303.204345703125</ele>
        <time>2003-06-07T07:27:59Z</time>
      </trkpt>
      <trkpt lat="46.48592040874064" lon="10.359206115826964">
        <ele>1303.204345703125</ele>
        <time>2003-06-07T07:28:01Z</time>
      </trkpt>
      <trkpt lat="46.486069355159998" lon="10.359237296506763">
        <ele>1303.204345703125</ele>
        <time>2003-06-07T07:28:03Z</time>
      </trkpt>
      <trkpt lat="46.486147474497557" lon="10.359260011464357">
        <ele>1302.7236328125</ele>
        <time>2003-06-07T07:28:04Z</time>
      </trkpt>
      <trkpt lat="46.486327685415745" lon="10.359323713928461">
        <ele>1303.68505859375</ele>
        <time>2003-06-07T07:28:06Z</time>
      </trkpt>
      <trkpt lat="46.486429609358311" lon="10.359372328966856">
        <ele>1303.68505859375</ele>
        <time>2003-06-07T07:28:07Z</time>
      </trkpt>
      <trkpt lat="46.486531449481845" lon="10.359422117471695">
        <ele>1304.165771484375</ele>
        <time>2003-06-07T07:28:08Z</time>
      </trkpt>
      <trkpt lat="46.486632199957967" lon="10.359471319243312">
        <ele>1303.68505859375</ele>
        <time>2003-06-07T07:28:09Z</time>
      </trkpt>
      <trkpt lat="46.486726999282837" lon="10.359500152990222">
        <ele>1304.165771484375</ele>
        <time>2003-06-07T07:28:10Z</time>
      </trkpt>
      <trkpt lat="46.486828336492181" lon="10.359469307586551">
        <ele>1303.68505859375</ele>
        <time>2003-06-07T07:28:11Z</time>
      </trkpt>
      <trkpt lat="46.4869274944067" lon="10.359414992853999">
        <ele>1303.68505859375</ele>
        <time>2003-06-07T07:28:12Z</time>
      </trkpt>
      <trkpt lat="46.487026819959283" lon="10.359350200742483">
        <ele>1304.165771484375</ele>
        <time>2003-06-07T07:28:13Z</time>
      </trkpt>
      <trkpt lat="46.487125726416707" lon="10.359284989535809">
        <ele>1304.165771484375</ele>
        <time>2003-06-07T07:28:14Z</time>
      </trkpt>
      <trkpt lat="46.487224884331226" lon="10.359222209081054">
        <ele>1304.165771484375</ele>
        <time>2003-06-07T07:28:15Z</time>
      </trkpt>
      <trkpt lat="46.487326053902507" lon="10.359161021187901">
        <ele>1303.68505859375</ele>
        <time>2003-06-07T07:28:16Z</time>
      </trkpt>
      <trkpt lat="46.487428480759263" lon="10.359111232683063">
        <ele>1304.165771484375</ele>
        <time>2003-06-07T07:28:17Z</time>
      </trkpt>
      <trkpt lat="46.487535517662764" lon="10.359075022861362">
        <ele>1303.68505859375</ele>
        <time>2003-06-07T07:28:18Z</time>
      </trkpt>
      <trkpt lat="46.487646829336882" lon="10.359050128608942">
        <ele>1304.165771484375</ele>
        <time>2003-06-07T07:28:19Z</time>
      </trkpt>
      <trkpt lat="46.487760739400983" lon="10.359032191336155">
        <ele>1304.646240234375</ele>
        <time>2003-06-07T07:28:20Z</time>
      </trkpt>
      <trkpt lat="46.487877415493131" lon="10.359021294862032">
        <ele>1304.646240234375</ele>
        <time>2003-06-07T07:28:21Z</time>
      </trkpt>
      <trkpt lat="46.487995013594627" lon="10.359012074768543">
        <ele>1304.646240234375</ele>
        <time>2003-06-07T07:28:22Z</time>
      </trkpt>
      <trkpt lat="46.488118814304471" lon="10.359020791947842">
        <ele>1304.165771484375</ele>
        <time>2003-06-07T07:28:23Z</time>
      </trkpt>
      <trkpt lat="46.488240351900458" lon="10.359030347317457">
        <ele>1304.165771484375</ele>
        <time>2003-06-07T07:28:24Z</time>
      </trkpt>
      <trkpt lat="46.488361386582255" lon="10.359039818868041">
        <ele>1304.165771484375</ele>
        <time>2003-06-07T07:28:25Z</time>
      </trkpt>
      <trkpt lat="46.488478146493435" lon="10.359058259055018">
        <ele>1304.165771484375</ele>
        <time>2003-06-07T07:28:26Z</time>
      </trkpt>
      <trkpt lat="46.488590380176902" lon="10.359104694798589">
        <ele>1304.165771484375</ele>
        <time>2003-06-07T07:28:27Z</time>
      </trkpt>
      <trkpt lat="46.488704457879066" lon="10.35915213637054">
        <ele>1304.165771484375</ele>
        <time>2003-06-07T07:28:28Z</time>
      </trkpt>
      <trkpt lat="46.488813674077392" lon="10.359213408082724">
        <ele>1304.165771484375</ele>
        <time>2003-06-07T07:28:29Z</time>
      </trkpt>
      <trkpt lat="46.488922722637653" lon="10.359274595975876">
        <ele>1304.165771484375</ele>
        <time>2003-06-07T07:28:30Z</time>
      </trkpt>
      <trkpt lat="46.489018611609936" lon="10.359352799132466">
        <ele>1303.68505859375</ele>
        <time>2003-06-07T07:28:31Z</time>
      </trkpt>
      <trkpt lat="46.489114249125123" lon="10.35943116992712">
        <ele>1303.68505859375</ele>
        <time>2003-06-07T07:28:32Z</time>
      </trkpt>
      <trkpt lat="46.489194463938475" lon="10.359496548771858">
        <ele>1302.7236328125</ele>
        <time>2003-06-07T07:28:33Z</time>
      </trkpt>
      <trkpt lat="46.489343913272023" lon="10.359540553763509">
        <ele>1301.762451171875</ele>
        <time>2003-06-07T07:28:35Z</time>
      </trkpt>
      <trkpt lat="46.489455895498395" lon="10.359451286494732">
        <ele>1301.762451171875</ele>
        <time>2003-06-07T07:28:37Z</time>
      </trkpt>
      <trkpt lat="46.489518005400896" lon="10.359288342297077">
        <ele>1302.242919921875</ele>
        <time>2003-06-07T07:28:39Z</time>
      </trkpt>
      <trkpt lat="46.489560082554817" lon="10.359100587666035">
        <ele>1302.242919921875</ele>
        <time>2003-06-07T07:28:41Z</time>
      </trkpt>
      <trkpt lat="46.489569218829274" lon="10.358896655961871">
        <ele>1301.762451171875</ele>
        <time>2003-06-07T07:28:43Z</time>
      </trkpt>
      <trkpt lat="46.489507192745805" lon="10.358695155009627">
        <ele>1302.242919921875</ele>
        <time>2003-06-07T07:28:45Z</time>
      </trkpt>
      <trkpt lat="46.489399736747146" lon="10.358529612421989">
        <ele>1302.7236328125</ele>
        <time>2003-06-07T07:28:47Z</time>
      </trkpt>
      <trkpt lat="46.489267889410257" lon="10.358371613547206">
        <ele>1303.68505859375</ele>
        <time>2003-06-07T07:28:49Z</time>
      </trkpt>
      <trkpt lat="46.48919421248138" lon="10.358286704868078">
        <ele>1303.68505859375</ele>
        <time>2003-06-07T07:28:50Z</time>
      </trkpt>
      <trkpt lat="46.489112991839647" lon="10.358202969655395">
        <ele>1304.646240234375</ele>
        <time>2003-06-07T07:28:51Z</time>
      </trkpt>
      <trkpt lat="46.48902271874249" lon="10.358126191422343">
        <ele>1304.646240234375</ele>
        <time>2003-06-07T07:28:52Z</time>
      </trkpt>
      <trkpt lat="46.488924566656351" lon="10.358054609969258">
        <ele>1305.607666015625</ele>
        <time>2003-06-07T07:28:53Z</time>
      </trkpt>
      <trkpt lat="46.488820379599929" lon="10.357985626906157">
        <ele>1306.088134765625</ele>
        <time>2003-06-07T07:28:54Z</time>
      </trkpt>
      <trkpt lat="46.488711079582572" lon="10.357922846451402">
        <ele>1307.049560546875</ele>
        <time>2003-06-07T07:28:55Z</time>
      </trkpt>
      <trkpt lat="46.488599013537169" lon="10.357870291918516">
        <ele>1307.049560546875</ele>
        <time>2003-06-07T07:28:56Z</time>
      </trkpt>
      <trkpt lat="46.488481918349862" lon="10.35782553255558">
        <ele>1307.5302734375</ele>
        <time>2003-06-07T07:28:57Z</time>
      </trkpt>
      <trkpt lat="46.48836306296289" lon="10.357781108468771">
        <ele>1308.01123046875</ele>
        <time>2003-06-07T07:28:58Z</time>
      </trkpt>
      <trkpt lat="46.48826876655221" lon="10.357738863676786">
        <ele>1308.01123046875</ele>
        <time>2003-06-07T07:28:59Z</time>
      </trkpt>
      <trkpt lat="46.48814219981432" lon="10.357668707147241">
        <ele>1306.56884765625</ele>
        <time>2003-06-07T07:29:01Z</time>
      </trkpt>
      <trkpt lat="46.488011023029685" lon="10.357576590031385">
        <ele>1307.049560546875</ele>
        <time>2003-06-07T07:29:03Z</time>
      </trkpt>
      <trkpt lat="46.487879762426019" lon="10.357403503730893">
        <ele>1308.49169921875</ele>
        <time>2003-06-07T07:29:05Z</time>
      </trkpt>
      <trkpt lat="46.487816059961915" lon="10.357290683314204">
        <ele>1308.49169921875</ele>
        <time>2003-06-07T07:29:06Z</time>
      </trkpt>
      <trkpt lat="46.487753195688128" lon="10.357165206223726">
        <ele>1308.49169921875</ele>
        <time>2003-06-07T07:29:07Z</time>
      </trkpt>
      <trkpt lat="46.487692929804325" lon="10.357038388028741">
        <ele>1309.453125</ele>
        <time>2003-06-07T07:29:08Z</time>
      </trkpt>
      <trkpt lat="46.487634340301156" lon="10.356909809634089">
        <ele>1309.93359375</ele>
        <time>2003-06-07T07:29:09Z</time>
      </trkpt>
      <trkpt lat="46.487579187378287" lon="10.356772178784013">
        <ele>1309.93359375</ele>
        <time>2003-06-07T07:29:10Z</time>
      </trkpt>
      <trkpt lat="46.487524034455419" lon="10.356634128838778">
        <ele>1310.414306640625</ele>
        <time>2003-06-07T07:29:11Z</time>
      </trkpt>
      <trkpt lat="46.487482879310846" lon="10.356471939012408">
        <ele>1310.414306640625</ele>
        <time>2003-06-07T07:29:12Z</time>
      </trkpt>
      <trkpt lat="46.487452117726207" lon="10.356300193816423">
        <ele>1310.414306640625</ele>
        <time>2003-06-07T07:29:13Z</time>
      </trkpt>
      <trkpt lat="46.487437197938561" lon="10.356124928221107">
        <ele>1310.414306640625</ele>
        <time>2003-06-07T07:29:14Z</time>
      </trkpt>
      <trkpt lat="46.487438706681132" lon="10.355946896597743">
        <ele>1310.89501953125</ele>
        <time>2003-06-07T07:29:15Z</time>
      </trkpt>
      <trkpt lat="46.487439880147576" lon="10.355768445879221">
        <ele>1311.375732421875</ele>
        <time>2003-06-07T07:29:16Z</time>
      </trkpt>
      <trkpt lat="46.487444238737226" lon="10.355585888028145">
        <ele>1312.3369140625</ele>
        <time>2003-06-07T07:29:17Z</time>
      </trkpt>
      <trkpt lat="46.487444071099162" lon="10.355398887768388">
        <ele>1312.817626953125</ele>
        <time>2003-06-07T07:29:18Z</time>
      </trkpt>
      <trkpt lat="46.487440131604671" lon="10.355210211127996">
        <ele>1312.817626953125</ele>
        <time>2003-06-07T07:29:19Z</time>
      </trkpt>
      <trkpt lat="46.487444154918194" lon="10.355017930269241">
        <ele>1313.77880859375</ele>
        <time>2003-06-07T07:29:20Z</time>
      </trkpt>
      <trkpt lat="46.487453961744905" lon="10.354822045192122">
        <ele>1313.77880859375</ele>
        <time>2003-06-07T07:29:21Z</time>
      </trkpt>
      <trkpt lat="46.487463852390647" lon="10.354622136801481">
        <ele>1313.77880859375</ele>
        <time>2003-06-07T07:29:22Z</time>
      </trkpt>
      <trkpt lat="46.487473994493484" lon="10.35441929474473">
        <ele>1313.29833984375</ele>
        <time>2003-06-07T07:29:23Z</time>
      </trkpt>
      <trkpt lat="46.487486064434052" lon="10.35421209409833">
        <ele>1313.77880859375</ele>
        <time>2003-06-07T07:29:24Z</time>
      </trkpt>
      <trkpt lat="46.487499726936221" lon="10.353999277576804">
        <ele>1313.77880859375</ele>
        <time>2003-06-07T07:29:25Z</time>
      </trkpt>
      <trkpt lat="46.487519424408674" lon="10.353781599551439">
        <ele>1313.77880859375</ele>
        <time>2003-06-07T07:29:26Z</time>
      </trkpt>
      <trkpt lat="46.487544067203999" lon="10.353559898212552">
        <ele>1314.259521484375</ele>
        <time>2003-06-07T07:29:27Z</time>
      </trkpt>
      <trkpt lat="46.487566446885467" lon="10.353333335369825">
        <ele>1313.77880859375</ele>
        <time>2003-06-07T07:29:28Z</time>
      </trkpt>
      <trkpt lat="46.487588742747903" lon="10.353110628202558">
        <ele>1314.259521484375</ele>
        <time>2003-06-07T07:29:29Z</time>
      </trkpt>
      <trkpt lat="46.487612128257751" lon="10.35288842394948">
        <ele>1313.77880859375</ele>
        <time>2003-06-07T07:29:30Z</time>
      </trkpt>
      <trkpt lat="46.487632496282458" lon="10.352665632963181">
        <ele>1313.29833984375</ele>
        <time>2003-06-07T07:29:31Z</time>
      </trkpt>
      <trkpt lat="46.487650601193309" lon="10.352442925795913">
        <ele>1313.77880859375</ele>
        <time>2003-06-07T07:29:32Z</time>
      </trkpt>
      <trkpt lat="46.487666610628366" lon="10.352220889180899">
        <ele>1313.77880859375</ele>
        <time>2003-06-07T07:29:33Z</time>
      </trkpt>
      <trkpt lat="46.487677339464426" lon="10.351996757090092">
        <ele>1314.740234375</ele>
        <time>2003-06-07T07:29:34Z</time>
      </trkpt>
      <trkpt lat="46.487679351121187" lon="10.35177388228476">
        <ele>1314.740234375</ele>
        <time>2003-06-07T07:29:35Z</time>
      </trkpt>
      <trkpt lat="46.487658899277449" lon="10.351551929488778">
        <ele>1314.259521484375</ele>
        <time>2003-06-07T07:29:36Z</time>
      </trkpt>
      <trkpt lat="46.487639956176281" lon="10.351331233978271">
        <ele>1313.77880859375</ele>
        <time>2003-06-07T07:29:37Z</time>
      </trkpt>
      <trkpt lat="46.487617073580623" lon="10.351114142686129">
        <ele>1314.259521484375</ele>
        <time>2003-06-07T07:29:38Z</time>
      </trkpt>
      <trkpt lat="46.487583294510841" lon="10.350904176011682">
        <ele>1313.77880859375</ele>
        <time>2003-06-07T07:29:39Z</time>
      </trkpt>
      <trkpt lat="46.487534008920193" lon="10.350705021992326">
        <ele>1313.77880859375</ele>
        <time>2003-06-07T07:29:40Z</time>
      </trkpt>
      <trkpt lat="46.487473910674453" lon="10.35051416605711">
        <ele>1313.77880859375</ele>
        <time>2003-06-07T07:29:41Z</time>
      </trkpt>
      <trkpt lat="46.487413393333554" lon="10.35032314248383">
        <ele>1312.817626953125</ele>
        <time>2003-06-07T07:29:42Z</time>
      </trkpt>
      <trkpt lat="46.487348936498165" lon="10.350135387852788">
        <ele>1313.29833984375</ele>
        <time>2003-06-07T07:29:43Z</time>
      </trkpt>
      <trkpt lat="46.487282048910856" lon="10.349950063973665">
        <ele>1313.77880859375</ele>
        <time>2003-06-07T07:29:44Z</time>
      </trkpt>
      <trkpt lat="46.487218765541911" lon="10.349759962409735">
        <ele>1313.29833984375</ele>
        <time>2003-06-07T07:29:45Z</time>
      </trkpt>
      <trkpt lat="46.487157912924886" lon="10.349571537226439">
        <ele>1312.817626953125</ele>
        <time>2003-06-07T07:29:46Z</time>
      </trkpt>
      <trkpt lat="46.487100077793002" lon="10.349384117871523">
        <ele>1312.817626953125</ele>
        <time>2003-06-07T07:29:47Z</time>
      </trkpt>
      <trkpt lat="46.487041907384992" lon="10.349199213087559">
        <ele>1312.817626953125</ele>
        <time>2003-06-07T07:29:48Z</time>
      </trkpt>
      <trkpt lat="46.486982395872474" lon="10.349017912521958">
        <ele>1313.29833984375</ele>
        <time>2003-06-07T07:29:49Z</time>
      </trkpt>
      <trkpt lat="46.486923135817051" lon="10.348836611956358">
        <ele>1313.29833984375</ele>
        <time>2003-06-07T07:29:50Z</time>
      </trkpt>
      <trkpt lat="46.486865803599358" lon="10.3486617654562">
        <ele>1312.3369140625</ele>
        <time>2003-06-07T07:29:51Z</time>
      </trkpt>
      <trkpt lat="46.486809812486172" lon="10.348491026088595">
        <ele>1312.3369140625</ele>
        <time>2003-06-07T07:29:52Z</time>
      </trkpt>
      <trkpt lat="46.486755413934588" lon="10.348324477672577">
        <ele>1313.29833984375</ele>
        <time>2003-06-07T07:29:53Z</time>
      </trkpt>
      <trkpt lat="46.486701769754291" lon="10.348162371665239">
        <ele>1312.817626953125</ele>
        <time>2003-06-07T07:29:54Z</time>
      </trkpt>
      <trkpt lat="46.4866460300982" lon="10.348004708066583">
        <ele>1312.817626953125</ele>
        <time>2003-06-07T07:29:55Z</time>
      </trkpt>
      <trkpt lat="46.486590709537268" lon="10.347847463563085">
        <ele>1312.3369140625</ele>
        <time>2003-06-07T07:29:56Z</time>
      </trkpt>
      <trkpt lat="46.486535808071494" lon="10.347687788307667">
        <ele>1312.3369140625</ele>
        <time>2003-06-07T07:29:57Z</time>
      </trkpt>
      <trkpt lat="46.486481409519911" lon="10.347526017576456">
        <ele>1312.817626953125</ele>
        <time>2003-06-07T07:29:58Z</time>
      </trkpt>
      <trkpt lat="46.48642566986382" lon="10.34736349247396">
        <ele>1311.8564453125</ele>
        <time>2003-06-07T07:29:59Z</time>
      </trkpt>
      <trkpt lat="46.486367918550968" lon="10.347200967371464">
        <ele>1312.3369140625</ele>
        <time>2003-06-07T07:30:00Z</time>
      </trkpt>
      <trkpt lat="46.486309412866831" lon="10.347038693726063">
        <ele>1312.3369140625</ele>
        <time>2003-06-07T07:30:01Z</time>
      </trkpt>
      <trkpt lat="46.486250152811408" lon="10.346877845004201">
        <ele>1312.3369140625</ele>
        <time>2003-06-07T07:30:02Z</time>
      </trkpt>
      <trkpt lat="46.486189886927605" lon="10.346720349043608">
        <ele>1312.3369140625</ele>
        <time>2003-06-07T07:30:03Z</time>
      </trkpt>
      <trkpt lat="46.48612517863512" lon="10.346564361825585">
        <ele>1312.3369140625</ele>
        <time>2003-06-07T07:30:04Z</time>
      </trkpt>
      <trkpt lat="46.486057955771685" lon="10.346410218626261">
        <ele>1311.8564453125</ele>
        <time>2003-06-07T07:30:05Z</time>
      </trkpt>
      <trkpt lat="46.485987799242139" lon="10.346263200044632">
        <ele>1312.3369140625</ele>
        <time>2003-06-07T07:30:06Z</time>
      </trkpt>
      <trkpt lat="46.485914206132293" lon="10.34612188115716">
        <ele>1312.817626953125</ele>
        <time>2003-06-07T07:30:07Z</time>
      </trkpt>
      <trkpt lat="46.485835751518607" lon="10.345985926687717">
        <ele>1312.3369140625</ele>
        <time>2003-06-07T07:30:08Z</time>
      </trkpt>
      <trkpt lat="46.485754027962685" lon="10.345855001360178">
        <ele>1313.29833984375</ele>
        <time>2003-06-07T07:30:09Z</time>
      </trkpt>
      <trkpt lat="46.485670879483223" lon="10.345727261155844">
        <ele>1312.817626953125</ele>
        <time>2003-06-07T07:30:10Z</time>
      </trkpt>
      <trkpt lat="46.485587479546666" lon="10.345600359141827">
        <ele>1312.3369140625</ele>
        <time>2003-06-07T07:30:11Z</time>
      </trkpt>
      <trkpt lat="46.485504331067204" lon="10.345474546775222">
        <ele>1312.3369140625</ele>
        <time>2003-06-07T07:30:12Z</time>
      </trkpt>
      <trkpt lat="46.485421182587743" lon="10.345352087169886">
        <ele>1312.3369140625</ele>
        <time>2003-06-07T07:30:13Z</time>
      </trkpt>
      <trkpt lat="46.48533895611763" lon="10.345232728868723">
        <ele>1312.3369140625</ele>
        <time>2003-06-07T07:30:14Z</time>
      </trkpt>
      <trkpt lat="46.485259244218469" lon="10.345117393881083">
        <ele>1313.29833984375</ele>
        <time>2003-06-07T07:30:15Z</time>
      </trkpt>
      <trkpt lat="46.485182968899608" lon="10.345006585121155">
        <ele>1312.3369140625</ele>
        <time>2003-06-07T07:30:16Z</time>
      </trkpt>
      <trkpt lat="46.485109040513635" lon="10.344893597066402">
        <ele>1312.3369140625</ele>
        <time>2003-06-07T07:30:17Z</time>
      </trkpt>
      <trkpt lat="46.485035195946693" lon="10.344779184088111">
        <ele>1312.3369140625</ele>
        <time>2003-06-07T07:30:18Z</time>
      </trkpt>
      <trkpt lat="46.484967218711972" lon="10.344660831615329">
        <ele>1312.3369140625</ele>
        <time>2003-06-07T07:30:19Z</time>
      </trkpt>
      <trkpt lat="46.484903264790773" lon="10.344544490799308">
        <ele>1312.3369140625</ele>
        <time>2003-06-07T07:30:20Z</time>
      </trkpt>
      <trkpt lat="46.484846016392112" lon="10.3444361127913">
        <ele>1312.3369140625</ele>
        <time>2003-06-07T07:30:21Z</time>
      </trkpt>
      <trkpt lat="46.484796814620495" lon="10.344335865229368">
        <ele>1311.8564453125</ele>
        <time>2003-06-07T07:30:22Z</time>
      </trkpt>
      <trkpt lat="46.484709391370416" lon="10.34414635039866">
        <ele>1311.375732421875</ele>
        <time>2003-06-07T07:30:24Z</time>
      </trkpt>
      <trkpt lat="46.484631020575762" lon="10.343973934650421">
        <ele>1310.89501953125</ele>
        <time>2003-06-07T07:30:26Z</time>
      </trkpt>
      <trkpt lat="46.484549632295966" lon="10.343825491145253">
        <ele>1310.89501953125</ele>
        <time>2003-06-07T07:30:28Z</time>
      </trkpt>
      <trkpt lat="46.484428178519011" lon="10.343693308532238">
        <ele>1310.414306640625</ele>
        <time>2003-06-07T07:30:30Z</time>
      </trkpt>
      <trkpt lat="46.484279986470938" lon="10.343547211959958">
        <ele>1310.414306640625</ele>
        <time>2003-06-07T07:30:32Z</time>
      </trkpt>
      <trkpt lat="46.484198262915015" lon="10.343468422070146">
        <ele>1310.414306640625</ele>
        <time>2003-06-07T07:30:33Z</time>
      </trkpt>
      <trkpt lat="46.484115952625871" lon="10.343376891687512">
        <ele>1309.93359375</ele>
        <time>2003-06-07T07:30:34Z</time>
      </trkpt>
      <trkpt lat="46.484035989269614" lon="10.343266502022743">
        <ele>1309.453125</ele>
        <time>2003-06-07T07:30:35Z</time>
      </trkpt>
      <trkpt lat="46.483959378674626" lon="10.343138677999377">
        <ele>1309.93359375</ele>
        <time>2003-06-07T07:30:36Z</time>
      </trkpt>
      <trkpt lat="46.483883103355765" lon="10.343000125139952">
        <ele>1309.93359375</ele>
        <time>2003-06-07T07:30:37Z</time>
      </trkpt>
      <trkpt lat="46.483804816380143" lon="10.342855704948306">
        <ele>1308.972412109375</ele>
        <time>2003-06-07T07:30:38Z</time>
      </trkpt>
      <trkpt lat="46.483725691214204" lon="10.342709608376026">
        <ele>1309.453125</ele>
        <time>2003-06-07T07:30:39Z</time>
      </trkpt>
      <trkpt lat="46.483646230772138" lon="10.342564014717937">
        <ele>1309.453125</ele>
        <time>2003-06-07T07:30:40Z</time>
      </trkpt>
      <trkpt lat="46.483567357063293" lon="10.342422360554338">
        <ele>1309.453125</ele>
        <time>2003-06-07T07:30:41Z</time>
      </trkpt>
      <trkpt lat="46.483490327373147" lon="10.342283891513944">
        <ele>1309.453125</ele>
        <time>2003-06-07T07:30:42Z</time>
      </trkpt>
      <trkpt lat="46.483414471149445" lon="10.342150367796421">
        <ele>1309.453125</ele>
        <time>2003-06-07T07:30:43Z</time>
      </trkpt>
      <trkpt lat="46.483338363468647" lon="10.342023046687245">
        <ele>1308.972412109375</ele>
        <time>2003-06-07T07:30:44Z</time>
      </trkpt>
      <trkpt lat="46.483259070664644" lon="10.341907711699605">
        <ele>1308.972412109375</ele>
        <time>2003-06-07T07:30:45Z</time>
      </trkpt>
      <trkpt lat="46.483180951327085" lon="10.341808553785086">
        <ele>1309.453125</ele>
        <time>2003-06-07T07:30:46Z</time>
      </trkpt>
      <trkpt lat="46.483107274398208" lon="10.341727333143353">
        <ele>1307.5302734375</ele>
        <time>2003-06-07T07:30:47Z</time>
      </trkpt>
      <trkpt lat="46.482993448153138" lon="10.341599592939019">
        <ele>1308.01123046875</ele>
        <time>2003-06-07T07:30:49Z</time>
      </trkpt>
      <trkpt lat="46.482904013246298" lon="10.341461207717657">
        <ele>1308.49169921875</ele>
        <time>2003-06-07T07:30:51Z</time>
      </trkpt>
      <trkpt lat="46.482813488692045" lon="10.341311674565077">
        <ele>1308.972412109375</ele>
        <time>2003-06-07T07:30:53Z</time>
      </trkpt>
      <trkpt lat="46.482704943045974" lon="10.341171193867922">
        <ele>1308.49169921875</ele>
        <time>2003-06-07T07:30:55Z</time>
      </trkpt>
      <trkpt lat="46.482603857293725" lon="10.341001963242888">
        <ele>1308.49169921875</ele>
        <time>2003-06-07T07:30:57Z</time>
      </trkpt>
      <trkpt lat="46.482550632208586" lon="10.340787386521697">
        <ele>1308.01123046875</ele>
        <time>2003-06-07T07:30:59Z</time>
      </trkpt>
      <trkpt lat="46.482551554217935" lon="10.340526793152094">
        <ele>1308.49169921875</ele>
        <time>2003-06-07T07:31:01Z</time>
      </trkpt>
      <trkpt lat="46.482563288882375" lon="10.340386563912034">
        <ele>1308.01123046875</ele>
        <time>2003-06-07T07:31:02Z</time>
      </trkpt>
      <trkpt lat="46.482576699927449" lon="10.340244490653276">
        <ele>1307.5302734375</ele>
        <time>2003-06-07T07:31:03Z</time>
      </trkpt>
      <trkpt lat="46.482589105144143" lon="10.340102417394519">
        <ele>1307.049560546875</ele>
        <time>2003-06-07T07:31:04Z</time>
      </trkpt>
      <trkpt lat="46.482603019103408" lon="10.339962774887681">
        <ele>1306.088134765625</ele>
        <time>2003-06-07T07:31:05Z</time>
      </trkpt>
      <trkpt lat="46.48261827416718" lon="10.339827826246619">
        <ele>1305.607666015625</ele>
        <time>2003-06-07T07:31:06Z</time>
      </trkpt>
      <trkpt lat="46.482639061287045" lon="10.339702684432268">
        <ele>1306.088134765625</ele>
        <time>2003-06-07T07:31:07Z</time>
      </trkpt>
      <trkpt lat="46.482722293585539" lon="10.339490370824933">
        <ele>1305.607666015625</ele>
        <time>2003-06-07T07:31:09Z</time>
      </trkpt>
      <trkpt lat="46.482859505340457" lon="10.33931678161025">
        <ele>1305.607666015625</ele>
        <time>2003-06-07T07:31:11Z</time>
      </trkpt>
      <trkpt lat="46.482932595536113" lon="10.339222485199571">
        <ele>1304.646240234375</ele>
        <time>2003-06-07T07:31:12Z</time>
      </trkpt>
      <trkpt lat="46.482996130362153" lon="10.339115280658007">
        <ele>1305.126953125</ele>
        <time>2003-06-07T07:31:13Z</time>
      </trkpt>
      <trkpt lat="46.483044913038611" lon="10.338994665071368">
        <ele>1305.126953125</ele>
        <time>2003-06-07T07:31:14Z</time>
      </trkpt>
      <trkpt lat="46.4830765966326" lon="10.338861895725131">
        <ele>1305.126953125</ele>
        <time>2003-06-07T07:31:15Z</time>
      </trkpt>
      <trkpt lat="46.48308296687901" lon="10.33872208558023">
        <ele>1305.607666015625</ele>
        <time>2003-06-07T07:31:16Z</time>
      </trkpt>
      <trkpt lat="46.483063017949462" lon="10.338584454730153">
        <ele>1305.126953125</ele>
        <time>2003-06-07T07:31:17Z</time>
      </trkpt>
      <trkpt lat="46.483030077069998" lon="10.338448667898774">
        <ele>1304.646240234375</ele>
        <time>2003-06-07T07:31:18Z</time>
      </trkpt>
      <trkpt lat="46.482996884733438" lon="10.338310031220317">
        <ele>1304.646240234375</ele>
        <time>2003-06-07T07:31:19Z</time>
      </trkpt>
      <trkpt lat="46.482970314100385" lon="10.338167203590274">
        <ele>1304.646240234375</ele>
        <time>2003-06-07T07:31:20Z</time>
      </trkpt>
      <trkpt lat="46.482955226674676" lon="10.338019262999296">
        <ele>1304.646240234375</ele>
        <time>2003-06-07T07:31:21Z</time>
      </trkpt>
      <trkpt lat="46.482951873913407" lon="10.337867215275764">
        <ele>1304.165771484375</ele>
        <time>2003-06-07T07:31:22Z</time>
      </trkpt>
      <trkpt lat="46.482958663254976" lon="10.33771307207644">
        <ele>1304.165771484375</ele>
        <time>2003-06-07T07:31:23Z</time>
      </trkpt>
      <trkpt lat="46.482975762337446" lon="10.337556917220354">
        <ele>1304.165771484375</ele>
        <time>2003-06-07T07:31:24Z</time>
      </trkpt>
      <trkpt lat="46.483004344627261" lon="10.337402941659093">
        <ele>1304.646240234375</ele>
        <time>2003-06-07T07:31:25Z</time>
      </trkpt>
      <trkpt lat="46.483042985200882" lon="10.337251732125878">
        <ele>1304.646240234375</ele>
        <time>2003-06-07T07:31:26Z</time>
      </trkpt>
      <trkpt lat="46.483089001849294" lon="10.337103037163615">
        <ele>1304.165771484375</ele>
        <time>2003-06-07T07:31:27Z</time>
      </trkpt>
      <trkpt lat="46.483135605230927" lon="10.336957108229399">
        <ele>1304.646240234375</ele>
        <time>2003-06-07T07:31:28Z</time>
      </trkpt>
      <trkpt lat="46.483178436756134" lon="10.336814364418387">
        <ele>1304.646240234375</ele>
        <time>2003-06-07T07:31:29Z</time>
      </trkpt>
      <trkpt lat="46.483212299644947" lon="10.336670111864805">
        <ele>1304.165771484375</ele>
        <time>2003-06-07T07:31:30Z</time>
      </trkpt>
      <trkpt lat="46.483235433697701" lon="10.336521668359637">
        <ele>1304.165771484375</ele>
        <time>2003-06-07T07:31:31Z</time>
      </trkpt>
      <trkpt lat="46.483239624649286" lon="10.336367441341281">
        <ele>1304.646240234375</ele>
        <time>2003-06-07T07:31:32Z</time>
      </trkpt>
      <trkpt lat="46.483228644356132" lon="10.336211370304227">
        <ele>1305.607666015625</ele>
        <time>2003-06-07T07:31:33Z</time>
      </trkpt>
      <trkpt lat="46.483206516131759" lon="10.336054963991046">
        <ele>1305.126953125</ele>
        <time>2003-06-07T07:31:34Z</time>
      </trkpt>
      <trkpt lat="46.483174748718739" lon="10.335898892953992">
        <ele>1305.607666015625</ele>
        <time>2003-06-07T07:31:35Z</time>
      </trkpt>
      <trkpt lat="46.483135521411896" lon="10.335747515782714">
        <ele>1306.56884765625</ele>
        <time>2003-06-07T07:31:36Z</time>
      </trkpt>
      <trkpt lat="46.483089840039611" lon="10.335603430867195">
        <ele>1307.049560546875</ele>
        <time>2003-06-07T07:31:37Z</time>
      </trkpt>
      <trkpt lat="46.48303753696382" lon="10.335467560216784">
        <ele>1307.049560546875</ele>
        <time>2003-06-07T07:31:38Z</time>
      </trkpt>
      <trkpt lat="46.482981294393539" lon="10.335338059812784">
        <ele>1307.049560546875</ele>
        <time>2003-06-07T07:31:39Z</time>
      </trkpt>
      <trkpt lat="46.482926225289702" lon="10.335210738703609">
        <ele>1307.5302734375</ele>
        <time>2003-06-07T07:31:40Z</time>
      </trkpt>
      <trkpt lat="46.482874341309071" lon="10.335085680708289">
        <ele>1306.56884765625</ele>
        <time>2003-06-07T07:31:41Z</time>
      </trkpt>
      <trkpt lat="46.482823295518756" lon="10.334965316578746">
        <ele>1306.088134765625</ele>
        <time>2003-06-07T07:31:42Z</time>
      </trkpt>
      <trkpt lat="46.482774261385202" lon="10.334846880286932">
        <ele>1307.049560546875</ele>
        <time>2003-06-07T07:31:43Z</time>
      </trkpt>
      <trkpt lat="46.482689352706075" lon="10.334613528102636">
        <ele>1306.56884765625</ele>
        <time>2003-06-07T07:31:45Z</time>
      </trkpt>
      <trkpt lat="46.482616178691387" lon="10.33437917008996">
        <ele>1307.049560546875</ele>
        <time>2003-06-07T07:31:47Z</time>
      </trkpt>
      <trkpt lat="46.482601091265678" lon="10.334143219515681">
        <ele>1307.049560546875</ele>
        <time>2003-06-07T07:31:49Z</time>
      </trkpt>
      <trkpt lat="46.482632607221603" lon="10.333907017484307">
        <ele>1307.049560546875</ele>
        <time>2003-06-07T07:31:51Z</time>
      </trkpt>
      <trkpt lat="46.482643336057663" lon="10.333664445206523">
        <ele>1308.01123046875</ele>
        <time>2003-06-07T07:31:53Z</time>
      </trkpt>
      <trkpt lat="46.482647024095058" lon="10.333447102457285">
        <ele>1308.49169921875</ele>
        <time>2003-06-07T07:31:55Z</time>
      </trkpt>
      <trkpt lat="46.482654148712754" lon="10.333229005336761">
        <ele>1309.453125</ele>
        <time>2003-06-07T07:31:57Z</time>
      </trkpt>
      <trkpt lat="46.482666218653321" lon="10.333009734749794">
        <ele>1310.414306640625</ele>
        <time>2003-06-07T07:31:59Z</time>
      </trkpt>
      <trkpt lat="46.482688011601567" lon="10.332767246291041">
        <ele>1310.414306640625</ele>
        <time>2003-06-07T07:32:01Z</time>
      </trkpt>
      <trkpt lat="46.482712151482701" lon="10.332514448091388">
        <ele>1310.414306640625</ele>
        <time>2003-06-07T07:32:03Z</time>
      </trkpt>
      <trkpt lat="46.482723718509078" lon="10.332258129492402">
        <ele>1310.89501953125</ele>
        <time>2003-06-07T07:32:05Z</time>
      </trkpt>
      <trkpt lat="46.482718521729112" lon="10.332131143659353">
        <ele>1310.89501953125</ele>
        <time>2003-06-07T07:32:06Z</time>
      </trkpt>
      <trkpt lat="46.482701087370515" lon="10.332004576921463">
        <ele>1310.89501953125</ele>
        <time>2003-06-07T07:32:07Z</time>
      </trkpt>
      <trkpt lat="46.482650879770517" lon="10.331747671589255">
        <ele>1310.89501953125</ele>
        <time>2003-06-07T07:32:09Z</time>
      </trkpt>
      <trkpt lat="46.482632104307413" lon="10.331616075709462">
        <ele>1310.89501953125</ele>
        <time>2003-06-07T07:32:10Z</time>
      </trkpt>
      <trkpt lat="46.482620118185878" lon="10.331481378525496">
        <ele>1310.89501953125</ele>
        <time>2003-06-07T07:32:11Z</time>
      </trkpt>
      <trkpt lat="46.482609221711755" lon="10.331202177330852">
        <ele>1311.375732421875</ele>
        <time>2003-06-07T07:32:13Z</time>
      </trkpt>
      <trkpt lat="46.482604527845979" lon="10.331062115728855">
        <ele>1311.8564453125</ele>
        <time>2003-06-07T07:32:14Z</time>
      </trkpt>
      <trkpt lat="46.482601845636964" lon="10.33092213794589">
        <ele>1311.8564453125</ele>
        <time>2003-06-07T07:32:15Z</time>
      </trkpt>
      <trkpt lat="46.482619196176529" lon="10.330692054703832">
        <ele>1311.8564453125</ele>
        <time>2003-06-07T07:32:17Z</time>
      </trkpt>
      <trkpt lat="46.482643755152822" lon="10.330511592328548">
        <ele>1311.8564453125</ele>
        <time>2003-06-07T07:32:19Z</time>
      </trkpt>
      <trkpt lat="46.482653226703405" lon="10.330381086096168">
        <ele>1311.8564453125</ele>
        <time>2003-06-07T07:32:21Z</time>
      </trkpt>
      <trkpt lat="46.482598995789886" lon="10.330292824655771">
        <ele>1311.375732421875</ele>
        <time>2003-06-07T07:32:24Z</time>
      </trkpt>
      <trkpt lat="46.482509560883045" lon="10.330349653959274">
        <ele>1311.375732421875</ele>
        <time>2003-06-07T07:32:36Z</time>
      </trkpt>
      <trkpt lat="46.482445858418941" lon="10.330472867935896">
        <ele>1311.375732421875</ele>
        <time>2003-06-07T07:32:39Z</time>
      </trkpt>
      <trkpt lat="46.482438649982214" lon="10.330615779384971">
        <ele>1311.375732421875</ele>
        <time>2003-06-07T07:32:42Z</time>
      </trkpt>
      <trkpt lat="46.482473518699408" lon="10.330837061628699">
        <ele>1311.8564453125</ele>
        <time>2003-06-07T07:32:45Z</time>
      </trkpt>
      <trkpt lat="46.482466394081712" lon="10.33103403635323">
        <ele>1312.817626953125</ele>
        <time>2003-06-07T07:32:47Z</time>
      </trkpt>
      <trkpt lat="46.482419203966856" lon="10.331243583932519">
        <ele>1312.3369140625</ele>
        <time>2003-06-07T07:32:49Z</time>
      </trkpt>
      <trkpt lat="46.482370086014271" lon="10.33144592307508">
        <ele>1311.8564453125</ele>
        <time>2003-06-07T07:32:51Z</time>
      </trkpt>
      <trkpt lat="46.482321303337812" lon="10.331641975790262">
        <ele>1311.8564453125</ele>
        <time>2003-06-07T07:32:53Z</time>
      </trkpt>
      <trkpt lat="46.4822684135288" lon="10.331840291619301">
        <ele>1312.3369140625</ele>
        <time>2003-06-07T07:32:55Z</time>
      </trkpt>
      <trkpt lat="46.482208482921124" lon="10.332048665732145">
        <ele>1313.29833984375</ele>
        <time>2003-06-07T07:32:57Z</time>
      </trkpt>
      <trkpt lat="46.482135308906436" lon="10.332302637398243">
        <ele>1314.740234375</ele>
        <time>2003-06-07T07:32:59Z</time>
      </trkpt>
      <trkpt lat="46.482088789343834" lon="10.332434987649322">
        <ele>1314.740234375</ele>
        <time>2003-06-07T07:33:00Z</time>
      </trkpt>
      <trkpt lat="46.48203824646771" lon="10.332569349557161">
        <ele>1314.259521484375</ele>
        <time>2003-06-07T07:33:01Z</time>
      </trkpt>
      <trkpt lat="46.481985440477729" lon="10.33270463347435">
        <ele>1314.259521484375</ele>
        <time>2003-06-07T07:33:02Z</time>
      </trkpt>
      <trkpt lat="46.481932466849685" lon="10.33283606171608">
        <ele>1314.740234375</ele>
        <time>2003-06-07T07:33:03Z</time>
      </trkpt>
      <trkpt lat="46.481881337240338" lon="10.332960784435272">
        <ele>1314.740234375</ele>
        <time>2003-06-07T07:33:04Z</time>
      </trkpt>
      <trkpt lat="46.481830207630992" lon="10.333075867965817">
        <ele>1314.740234375</ele>
        <time>2003-06-07T07:33:05Z</time>
      </trkpt>
      <trkpt lat="46.481771785765886" lon="10.333179049193859">
        <ele>1316.18212890625</ele>
        <time>2003-06-07T07:33:06Z</time>
      </trkpt>
      <trkpt lat="46.48171185515821" lon="10.33328072167933">
        <ele>1316.662841796875</ele>
        <time>2003-06-07T07:33:07Z</time>
      </trkpt>
      <trkpt lat="46.481649996712804" lon="10.333378035575151">
        <ele>1317.6240234375</ele>
        <time>2003-06-07T07:33:08Z</time>
      </trkpt>
      <trkpt lat="46.481557711958885" lon="10.333413323387504">
        <ele>1318.104736328125</ele>
        <time>2003-06-07T07:33:09Z</time>
      </trkpt>
      <trkpt lat="46.481462912634015" lon="10.333429668098688">
        <ele>1318.104736328125</ele>
        <time>2003-06-07T07:33:10Z</time>
      </trkpt>
      <trkpt lat="46.481365682557225" lon="10.333442157134414">
        <ele>1318.58544921875</ele>
        <time>2003-06-07T07:33:11Z</time>
      </trkpt>
      <trkpt lat="46.481265518814325" lon="10.333459172397852">
        <ele>1319.546875</ele>
        <time>2003-06-07T07:33:12Z</time>
      </trkpt>
      <trkpt lat="46.481164684519172" lon="10.333490269258618">
        <ele>1320.02734375</ele>
        <time>2003-06-07T07:33:13Z</time>
      </trkpt>
      <trkpt lat="46.481066113337874" lon="10.333536034449935">
        <ele>1320.98876953125</ele>
        <time>2003-06-07T07:33:14Z</time>
      </trkpt>
      <trkpt lat="46.480975421145558" lon="10.333584481850266">
        <ele>1321.46923828125</ele>
        <time>2003-06-07T07:33:15Z</time>
      </trkpt>
      <trkpt lat="46.48089294321835" lon="10.333634437993169">
        <ele>1322.4306640625</ele>
        <time>2003-06-07T07:33:16Z</time>
      </trkpt>
      <trkpt lat="46.480760090053082" lon="10.333750275895">
        <ele>1322.911376953125</ele>
        <time>2003-06-07T07:33:18Z</time>
      </trkpt>
      <trkpt lat="46.480680461972952" lon="10.333885308355093">
        <ele>1323.87255859375</ele>
        <time>2003-06-07T07:33:20Z</time>
      </trkpt>
      <trkpt lat="46.480639223009348" lon="10.334037020802498">
        <ele>1324.353515625</ele>
        <time>2003-06-07T07:33:22Z</time>
      </trkpt>
      <trkpt lat="46.480616005137563" lon="10.334202814847231">
        <ele>1325.314697265625</ele>
        <time>2003-06-07T07:33:24Z</time>
      </trkpt>
      <trkpt lat="46.480592200532556" lon="10.334375817328691">
        <ele>1325.79541015625</ele>
        <time>2003-06-07T07:33:26Z</time>
      </trkpt>
      <trkpt lat="46.480568144470453" lon="10.334560303017497">
        <ele>1327.718017578125</ele>
        <time>2003-06-07T07:33:28Z</time>
      </trkpt>
      <trkpt lat="46.480541406199336" lon="10.334750488400459">
        <ele>1328.679443359375</ele>
        <time>2003-06-07T07:33:30Z</time>
      </trkpt>
      <trkpt lat="46.480504190549254" lon="10.334942769259214">
        <ele>1329.640625</ele>
        <time>2003-06-07T07:33:32Z</time>
      </trkpt>
      <trkpt lat="46.48044191300869" lon="10.335131194442511">
        <ele>1331.082763671875</ele>
        <time>2003-06-07T07:33:34Z</time>
      </trkpt>
      <trkpt lat="46.480367230251431" lon="10.335319871082902">
        <ele>1332.524658203125</ele>
        <time>2003-06-07T07:33:36Z</time>
      </trkpt>
      <trkpt lat="46.480293301865458" lon="10.335509805008769">
        <ele>1334.447265625</ele>
        <time>2003-06-07T07:33:38Z</time>
      </trkpt>
      <trkpt lat="46.480219960212708" lon="10.335693117231131">
        <ele>1335.408447265625</ele>
        <time>2003-06-07T07:33:40Z</time>
      </trkpt>
      <trkpt lat="46.480131028220057" lon="10.33585337921977">
        <ele>1335.408447265625</ele>
        <time>2003-06-07T07:33:42Z</time>
      </trkpt>
      <trkpt lat="46.480020973831415" lon="10.335979945957661">
        <ele>1336.369873046875</ele>
        <time>2003-06-07T07:33:44Z</time>
      </trkpt>
      <trkpt lat="46.479898514226079" lon="10.336081869900227">
        <ele>1337.811767578125</ele>
        <time>2003-06-07T07:33:46Z</time>
      </trkpt>
      <trkpt lat="46.479798015207052" lon="10.336230061948299">
        <ele>1338.773193359375</ele>
        <time>2003-06-07T07:33:48Z</time>
      </trkpt>
      <trkpt lat="46.479737665504217" lon="10.336438687518239">
        <ele>1339.253662109375</ele>
        <time>2003-06-07T07:33:50Z</time>
      </trkpt>
      <trkpt lat="46.479689721018076" lon="10.336681930348277">
        <ele>1341.6572265625</ele>
        <time>2003-06-07T07:33:52Z</time>
      </trkpt>
      <trkpt lat="46.479664240032434" lon="10.336814867332578">
        <ele>1341.176513671875</ele>
        <time>2003-06-07T07:33:53Z</time>
      </trkpt>
      <trkpt lat="46.479637585580349" lon="10.33695375546813">
        <ele>1341.176513671875</ele>
        <time>2003-06-07T07:33:54Z</time>
      </trkpt>
      <trkpt lat="46.479609925299883" lon="10.337098594754934">
        <ele>1342.137939453125</ele>
        <time>2003-06-07T07:33:55Z</time>
      </trkpt>
      <trkpt lat="46.479582348838449" lon="10.337248295545578">
        <ele>1343.09912109375</ele>
        <time>2003-06-07T07:33:56Z</time>
      </trkpt>
      <trkpt lat="46.479554604738951" lon="10.337395817041397">
        <ele>1344.060546875</ele>
        <time>2003-06-07T07:33:57Z</time>
      </trkpt>
      <trkpt lat="46.479527615010738" lon="10.337540237233043">
        <ele>1345.021728515625</ele>
        <time>2003-06-07T07:33:58Z</time>
      </trkpt>
      <trkpt lat="46.479499535635114" lon="10.337685579434037">
        <ele>1345.021728515625</ele>
        <time>2003-06-07T07:33:59Z</time>
      </trkpt>
      <trkpt lat="46.47947053425014" lon="10.337831759825349">
        <ele>1345.50244140625</ele>
        <time>2003-06-07T07:34:00Z</time>
      </trkpt>
      <trkpt lat="46.479441784322262" lon="10.33797794021666">
        <ele>1345.50244140625</ele>
        <time>2003-06-07T07:34:01Z</time>
      </trkpt>
      <trkpt lat="46.479414040222764" lon="10.338122863322496">
        <ele>1346.4638671875</ele>
        <time>2003-06-07T07:34:02Z</time>
      </trkpt>
      <trkpt lat="46.479387218132615" lon="10.338266277685761">
        <ele>1346.9443359375</ele>
        <time>2003-06-07T07:34:03Z</time>
      </trkpt>
      <trkpt lat="46.479359976947308" lon="10.338408350944519">
        <ele>1346.4638671875</ele>
        <time>2003-06-07T07:34:04Z</time>
      </trkpt>
      <trkpt lat="46.479332149028778" lon="10.338548496365547">
        <ele>1346.9443359375</ele>
        <time>2003-06-07T07:34:05Z</time>
      </trkpt>
      <trkpt lat="46.479304656386375" lon="10.338684534654021">
        <ele>1347.90576171875</ele>
        <time>2003-06-07T07:34:06Z</time>
      </trkpt>
      <trkpt lat="46.479277834296227" lon="10.338815962895751">
        <ele>1348.38623046875</ele>
        <time>2003-06-07T07:34:07Z</time>
      </trkpt>
      <trkpt lat="46.479251012206078" lon="10.33894537948072">
        <ele>1349.828369140625</ele>
        <time>2003-06-07T07:34:08Z</time>
      </trkpt>
      <trkpt lat="46.479225615039468" lon="10.339073287323117">
        <ele>1350.30908203125</ele>
        <time>2003-06-07T07:34:09Z</time>
      </trkpt>
      <trkpt lat="46.479204325005412" lon="10.339202368631959">
        <ele>1351.270263671875</ele>
        <time>2003-06-07T07:34:10Z</time>
      </trkpt>
      <trkpt lat="46.479187980294228" lon="10.33933388069272">
        <ele>1351.270263671875</ele>
        <time>2003-06-07T07:34:11Z</time>
      </trkpt>
      <trkpt lat="46.479177502915263" lon="10.339466650038958">
        <ele>1351.7509765625</ele>
        <time>2003-06-07T07:34:12Z</time>
      </trkpt>
      <trkpt lat="46.479168785735965" lon="10.339599587023258">
        <ele>1351.7509765625</ele>
        <time>2003-06-07T07:34:13Z</time>
      </trkpt>
      <trkpt lat="46.479163337498903" lon="10.339733529835939">
        <ele>1352.2314453125</ele>
        <time>2003-06-07T07:34:14Z</time>
      </trkpt>
      <trkpt lat="46.479160990566015" lon="10.339868394657969">
        <ele>1352.712158203125</ele>
        <time>2003-06-07T07:34:15Z</time>
      </trkpt>
      <trkpt lat="46.479159481823444" lon="10.340004097670317">
        <ele>1352.712158203125</ele>
        <time>2003-06-07T07:34:16Z</time>
      </trkpt>
      <trkpt lat="46.479154704138637" lon="10.340276090428233">
        <ele>1355.115478515625</ele>
        <time>2003-06-07T07:34:18Z</time>
      </trkpt>
      <trkpt lat="46.479152105748653" lon="10.340412799268961">
        <ele>1356.076904296875</ele>
        <time>2003-06-07T07:34:19Z</time>
      </trkpt>
      <trkpt lat="46.479149339720607" lon="10.340549927204847">
        <ele>1357.51904296875</ele>
        <time>2003-06-07T07:34:20Z</time>
      </trkpt>
      <trkpt lat="46.479145986959338" lon="10.340687138959765">
        <ele>1357.999755859375</ele>
        <time>2003-06-07T07:34:21Z</time>
      </trkpt>
      <trkpt lat="46.479142466560006" lon="10.340815633535385">
        <ele>1359.441650390625</ele>
        <time>2003-06-07T07:34:22Z</time>
      </trkpt>
      <trkpt lat="46.479135090485215" lon="10.341074131429195">
        <ele>1359.922119140625</ele>
        <time>2003-06-07T07:34:24Z</time>
      </trkpt>
      <trkpt lat="46.479131653904915" lon="10.341212684288621">
        <ele>1361.844970703125</ele>
        <time>2003-06-07T07:34:25Z</time>
      </trkpt>
      <trkpt lat="46.479127798229456" lon="10.34135727211833">
        <ele>1362.80615234375</ele>
        <time>2003-06-07T07:34:26Z</time>
      </trkpt>
      <trkpt lat="46.479123188182712" lon="10.341507475823164">
        <ele>1362.80615234375</ele>
        <time>2003-06-07T07:34:27Z</time>
      </trkpt>
      <trkpt lat="46.479118410497904" lon="10.341663798317313">
        <ele>1363.286865234375</ele>
        <time>2003-06-07T07:34:28Z</time>
      </trkpt>
      <trkpt lat="46.479114471003413" lon="10.341825317591429">
        <ele>1364.248046875</ele>
        <time>2003-06-07T07:34:29Z</time>
      </trkpt>
      <trkpt lat="46.479112626984715" lon="10.341991949826479">
        <ele>1365.20947265625</ele>
        <time>2003-06-07T07:34:30Z</time>
      </trkpt>
      <trkpt lat="46.479114471003413" lon="10.342153972014785">
        <ele>1366.170654296875</ele>
        <time>2003-06-07T07:34:31Z</time>
      </trkpt>
      <trkpt lat="46.479119500145316" lon="10.342311803251505">
        <ele>1365.690185546875</ele>
        <time>2003-06-07T07:34:32Z</time>
      </trkpt>
      <trkpt lat="46.4791289716959" lon="10.342467790469527">
        <ele>1366.6513671875</ele>
        <time>2003-06-07T07:34:33Z</time>
      </trkpt>
      <trkpt lat="46.47914263419807" lon="10.342621179297566">
        <ele>1367.612548828125</ele>
        <time>2003-06-07T07:34:34Z</time>
      </trkpt>
      <trkpt lat="46.479158056899905" lon="10.342768868431449">
        <ele>1368.573974609375</ele>
        <time>2003-06-07T07:34:35Z</time>
      </trkpt>
      <trkpt lat="46.479170043021441" lon="10.342909181490541">
        <ele>1369.535400390625</ele>
        <time>2003-06-07T07:34:36Z</time>
      </trkpt>
      <trkpt lat="46.479174569249153" lon="10.343045387417078">
        <ele>1370.49658203125</ele>
        <time>2003-06-07T07:34:37Z</time>
      </trkpt>
      <trkpt lat="46.479167863726616" lon="10.343305477872491">
        <ele>1371.9384765625</ele>
        <time>2003-06-07T07:34:39Z</time>
      </trkpt>
      <trkpt lat="46.479151519015431" lon="10.343548636883497">
        <ele>1373.861328125</ele>
        <time>2003-06-07T07:34:41Z</time>
      </trkpt>
      <trkpt lat="46.479136012494564" lon="10.343776624649763">
        <ele>1374.82275390625</ele>
        <time>2003-06-07T07:34:43Z</time>
      </trkpt>
      <trkpt lat="46.479113297536969" lon="10.343990866094828">
        <ele>1376.2646484375</ele>
        <time>2003-06-07T07:34:45Z</time>
      </trkpt>
      <trkpt lat="46.479080524295568" lon="10.344178788363934">
        <ele>1377.22607421875</ele>
        <time>2003-06-07T07:34:47Z</time>
      </trkpt>
      <trkpt lat="46.479075411334634" lon="10.344368638470769">
        <ele>1378.187255859375</ele>
        <time>2003-06-07T07:34:49Z</time>
      </trkpt>
      <trkpt lat="46.479094102978706" lon="10.344572402536869">
        <ele>1379.629150390625</ele>
        <time>2003-06-07T07:34:51Z</time>
      </trkpt>
      <trkpt lat="46.479117404669523" lon="10.344787565991282">
        <ele>1381.5517578125</ele>
        <time>2003-06-07T07:34:53Z</time>
      </trkpt>
      <trkpt lat="46.479123272001743" lon="10.345008596777916">
        <ele>1383.474365234375</ele>
        <time>2003-06-07T07:34:55Z</time>
      </trkpt>
      <trkpt lat="46.47907767444849" lon="10.345213366672397">
        <ele>1384.91650390625</ele>
        <time>2003-06-07T07:34:57Z</time>
      </trkpt>
      <trkpt lat="46.478976085782051" lon="10.345372706651688">
        <ele>1385.877685546875</ele>
        <time>2003-06-07T07:34:59Z</time>
      </trkpt>
      <trkpt lat="46.478826887905598" lon="10.345499105751514">
        <ele>1386.8388671875</ele>
        <time>2003-06-07T07:35:01Z</time>
      </trkpt>
      <trkpt lat="46.478705434128642" lon="10.345690213143826">
        <ele>1388.28125</ele>
        <time>2003-06-07T07:35:03Z</time>
      </trkpt>
      <trkpt lat="46.478660255670547" lon="10.345794064924121">
        <ele>1388.761962890625</ele>
        <time>2003-06-07T07:35:04Z</time>
      </trkpt>
      <trkpt lat="46.47854064591229" lon="10.345948878675699">
        <ele>1389.72314453125</ele>
        <time>2003-06-07T07:35:06Z</time>
      </trkpt>
      <trkpt lat="46.478392370045185" lon="10.346012832596898">
        <ele>1391.1650390625</ele>
        <time>2003-06-07T07:35:08Z</time>
      </trkpt>
      <trkpt lat="46.478224731981754" lon="10.345995482057333">
        <ele>1391.1650390625</ele>
        <time>2003-06-07T07:35:10Z</time>
      </trkpt>
      <trkpt lat="46.478062709793448" lon="10.345964217558503">
        <ele>1390.684326171875</ele>
        <time>2003-06-07T07:35:12Z</time>
      </trkpt>
      <trkpt lat="46.477903872728348" lon="10.345924068242311">
        <ele>1391.1650390625</ele>
        <time>2003-06-07T07:35:14Z</time>
      </trkpt>
      <trkpt lat="46.47775542922318" lon="10.345906130969524">
        <ele>1390.684326171875</ele>
        <time>2003-06-07T07:35:16Z</time>
      </trkpt>
      <trkpt lat="46.477625761181116" lon="10.345953237265348">
        <ele>1391.1650390625</ele>
        <time>2003-06-07T07:35:18Z</time>
      </trkpt>
      <trkpt lat="46.477526854723692" lon="10.346069494262338">
        <ele>1391.1650390625</ele>
        <time>2003-06-07T07:35:20Z</time>
      </trkpt>
      <trkpt lat="46.477439599111676" lon="10.346215507015586">
        <ele>1391.1650390625</ele>
        <time>2003-06-07T07:35:22Z</time>
      </trkpt>
      <trkpt lat="46.477364664897323" lon="10.346420193091035">
        <ele>1392.607177734375</ele>
        <time>2003-06-07T07:35:24Z</time>
      </trkpt>
      <trkpt lat="46.477292077615857" lon="10.346646253019571">
        <ele>1395.01025390625</ele>
        <time>2003-06-07T07:35:26Z</time>
      </trkpt>
      <trkpt lat="46.477222759276628" lon="10.346885807812214">
        <ele>1396.932861328125</ele>
        <time>2003-06-07T07:35:28Z</time>
      </trkpt>
      <trkpt lat="46.477190740406513" lon="10.347009189426899">
        <ele>1397.41357421875</ele>
        <time>2003-06-07T07:35:29Z</time>
      </trkpt>
      <trkpt lat="46.477166265249252" lon="10.347135085612535">
        <ele>1398.374755859375</ele>
        <time>2003-06-07T07:35:30Z</time>
      </trkpt>
      <trkpt lat="46.477106502279639" lon="10.347379334270954">
        <ele>1399.81689453125</ele>
        <time>2003-06-07T07:35:32Z</time>
      </trkpt>
      <trkpt lat="46.477027712389827" lon="10.347612602636218">
        <ele>1402.219970703125</ele>
        <time>2003-06-07T07:35:34Z</time>
      </trkpt>
      <trkpt lat="46.476922268047929" lon="10.347826173529029">
        <ele>1405.5849609375</ele>
        <time>2003-06-07T07:35:36Z</time>
      </trkpt>
      <trkpt lat="46.476867869496346" lon="10.347930947318673">
        <ele>1406.0654296875</ele>
        <time>2003-06-07T07:35:37Z</time>
      </trkpt>
      <trkpt lat="46.476761251688004" lon="10.348138986155391">
        <ele>1407.507568359375</ele>
        <time>2003-06-07T07:35:39Z</time>
      </trkpt>
      <trkpt lat="46.476689921692014" lon="10.348344510421157">
        <ele>1409.43017578125</ele>
        <time>2003-06-07T07:35:41Z</time>
      </trkpt>
      <trkpt lat="46.476703584194183" lon="10.348566127941012">
        <ele>1410.391357421875</ele>
        <time>2003-06-07T07:35:43Z</time>
      </trkpt>
      <trkpt lat="46.476795952767134" lon="10.348765784874558">
        <ele>1411.83349609375</ele>
        <time>2003-06-07T07:35:45Z</time>
      </trkpt>
      <trkpt lat="46.476851608604193" lon="10.348861506208777">
        <ele>1412.31396484375</ele>
        <time>2003-06-07T07:35:46Z</time>
      </trkpt>
      <trkpt lat="46.47697071544826" lon="10.349059486761689">
        <ele>1415.197998046875</ele>
        <time>2003-06-07T07:35:48Z</time>
      </trkpt>
      <trkpt lat="46.477029053494334" lon="10.349157806485891">
        <ele>1416.1591796875</ele>
        <time>2003-06-07T07:35:49Z</time>
      </trkpt>
      <trkpt lat="46.477095857262611" lon="10.349343968555331">
        <ele>1416.639892578125</ele>
        <time>2003-06-07T07:35:51Z</time>
      </trkpt>
      <trkpt lat="46.477123601362109" lon="10.349555863067508">
        <ele>1418.081787109375</ele>
        <time>2003-06-07T07:35:53Z</time>
      </trkpt>
      <trkpt lat="46.477119997143745" lon="10.34979441203177">
        <ele>1419.043212890625</ele>
        <time>2003-06-07T07:35:55Z</time>
      </trkpt>
      <trkpt lat="46.477111028507352" lon="10.349917206913233">
        <ele>1419.043212890625</ele>
        <time>2003-06-07T07:35:56Z</time>
      </trkpt>
      <trkpt lat="46.477097198367119" lon="10.350049054250121">
        <ele>1418.5625</ele>
        <time>2003-06-07T07:35:57Z</time>
      </trkpt>
      <trkpt lat="46.47706551477313" lon="10.350179141387343">
        <ele>1419.043212890625</ele>
        <time>2003-06-07T07:35:58Z</time>
      </trkpt>
      <trkpt lat="46.476986557245255" lon="10.350425653159618">
        <ele>1419.52392578125</ele>
        <time>2003-06-07T07:36:00Z</time>
      </trkpt>
      <trkpt lat="46.476936182007194" lon="10.350540317595005">
        <ele>1419.52392578125</ele>
        <time>2003-06-07T07:36:01Z</time>
      </trkpt>
      <trkpt lat="46.476864432916045" lon="10.350630171597004">
        <ele>1419.52392578125</ele>
        <time>2003-06-07T07:36:02Z</time>
      </trkpt>
      <trkpt lat="46.476704422384501" lon="10.350762857124209">
        <ele>1420.004638671875</ele>
        <time>2003-06-07T07:36:04Z</time>
      </trkpt>
      <trkpt lat="46.476569389924407" lon="10.350875342264771">
        <ele>1419.52392578125</ele>
        <time>2003-06-07T07:36:06Z</time>
      </trkpt>
      <trkpt lat="46.476470483466983" lon="10.35099109634757">
        <ele>1419.52392578125</ele>
        <time>2003-06-07T07:36:08Z</time>
      </trkpt>
      <trkpt lat="46.476418934762478" lon="10.351084722205997">
        <ele>1419.52392578125</ele>
        <time>2003-06-07T07:36:10Z</time>
      </trkpt>
      <trkpt lat="46.476356405764818" lon="10.351191675290465">
        <ele>1418.5625</ele>
        <time>2003-06-07T07:36:17Z</time>
      </trkpt>
      <trkpt lat="46.476291446015239" lon="10.35131991840899">
        <ele>1418.5625</ele>
        <time>2003-06-07T07:36:21Z</time>
      </trkpt>
      <trkpt lat="46.4762450940907" lon="10.351444976404309">
        <ele>1417.60107421875</ele>
        <time>2003-06-07T07:36:24Z</time>
      </trkpt>
      <trkpt lat="46.476209051907063" lon="10.351578081026673">
        <ele>1417.12060546875</ele>
        <time>2003-06-07T07:36:27Z</time>
      </trkpt>
      <trkpt lat="46.476176865398884" lon="10.35174504853785">
        <ele>1417.12060546875</ele>
        <time>2003-06-07T07:36:30Z</time>
      </trkpt>
      <trkpt lat="46.476141158491373" lon="10.351888881996274">
        <ele>1416.1591796875</ele>
        <time>2003-06-07T07:36:32Z</time>
      </trkpt>
      <trkpt lat="46.476079048588872" lon="10.352046713232994">
        <ele>1416.1591796875</ele>
        <time>2003-06-07T07:36:34Z</time>
      </trkpt>
      <trkpt lat="46.475981567054987" lon="10.352198928594589">
        <ele>1415.197998046875</ele>
        <time>2003-06-07T07:36:36Z</time>
      </trkpt>
      <trkpt lat="46.475865393877029" lon="10.352362375706434">
        <ele>1414.71728515625</ele>
        <time>2003-06-07T07:36:38Z</time>
      </trkpt>
      <trkpt lat="46.475736396387219" lon="10.35254493355751">
        <ele>1413.275390625</ele>
        <time>2003-06-07T07:36:40Z</time>
      </trkpt>
      <trkpt lat="46.475664395838976" lon="10.352645851671696">
        <ele>1412.794677734375</ele>
        <time>2003-06-07T07:36:41Z</time>
      </trkpt>
      <trkpt lat="46.47558594122529" lon="10.352753978222609">
        <ele>1412.31396484375</ele>
        <time>2003-06-07T07:36:42Z</time>
      </trkpt>
      <trkpt lat="46.475501535460353" lon="10.35286788828671">
        <ele>1410.8720703125</ele>
        <time>2003-06-07T07:36:43Z</time>
      </trkpt>
      <trkpt lat="46.475413525477052" lon="10.352986492216587">
        <ele>1410.391357421875</ele>
        <time>2003-06-07T07:36:44Z</time>
      </trkpt>
      <trkpt lat="46.475321911275387" lon="10.353109622374177">
        <ele>1408.46875</ele>
        <time>2003-06-07T07:36:45Z</time>
      </trkpt>
      <trkpt lat="46.47523264400661" lon="10.353235267102718">
        <ele>1406.546142578125</ele>
        <time>2003-06-07T07:36:46Z</time>
      </trkpt>
      <trkpt lat="46.475146310403943" lon="10.353358145803213">
        <ele>1405.5849609375</ele>
        <time>2003-06-07T07:36:47Z</time>
      </trkpt>
      <trkpt lat="46.475064419209957" lon="10.353478929027915">
        <ele>1405.104248046875</ele>
        <time>2003-06-07T07:36:48Z</time>
      </trkpt>
      <trkpt lat="46.47499275393784" lon="10.353597616776824">
        <ele>1403.662109375</ele>
        <time>2003-06-07T07:36:49Z</time>
      </trkpt>
      <trkpt lat="46.474930979311466" lon="10.353707419708371">
        <ele>1400.297607421875</ele>
        <time>2003-06-07T07:36:50Z</time>
      </trkpt>
      <trkpt lat="46.474875658750534" lon="10.353805152699351">
        <ele>1399.336181640625</ele>
        <time>2003-06-07T07:36:51Z</time>
      </trkpt>
      <trkpt lat="46.474748589098454" lon="10.353936161845922">
        <ele>1396.452392578125</ele>
        <time>2003-06-07T07:36:53Z</time>
      </trkpt>
      <trkpt lat="46.474589584395289" lon="10.353960637003183">
        <ele>1393.568359375</ele>
        <time>2003-06-07T07:36:55Z</time>
      </trkpt>
      <trkpt lat="46.474430412054062" lon="10.353959714993834">
        <ele>1390.684326171875</ele>
        <time>2003-06-07T07:36:57Z</time>
      </trkpt>
      <trkpt lat="46.474302420392632" lon="10.354012688621879">
        <ele>1389.242431640625</ele>
        <time>2003-06-07T07:36:59Z</time>
      </trkpt>
      <trkpt lat="46.474220445379615" lon="10.354066081345081">
        <ele>1387.319580078125</ele>
        <time>2003-06-07T07:37:01Z</time>
      </trkpt>
      <trkpt lat="46.474146349355578" lon="10.354099692776799">
        <ele>1385.39697265625</ele>
        <time>2003-06-07T07:37:09Z</time>
      </trkpt>
      <trkpt lat="46.47399052977562" lon="10.354119054973125">
        <ele>1385.39697265625</ele>
        <time>2003-06-07T07:37:39Z</time>
      </trkpt>
      <trkpt lat="46.473890449851751" lon="10.354148056358099">
        <ele>1385.877685546875</ele>
        <time>2003-06-07T07:37:41Z</time>
      </trkpt>
      <trkpt lat="46.473788777366281" lon="10.354184685274959">
        <ele>1386.8388671875</ele>
        <time>2003-06-07T07:37:43Z</time>
      </trkpt>
      <trkpt lat="46.473672520369291" lon="10.354225086048245">
        <ele>1386.8388671875</ele>
        <time>2003-06-07T07:37:45Z</time>
      </trkpt>
      <trkpt lat="46.473545199260116" lon="10.354267414659262">
        <ele>1389.72314453125</ele>
        <time>2003-06-07T07:37:47Z</time>
      </trkpt>
      <trkpt lat="46.473415531218052" lon="10.354298846796155">
        <ele>1390.684326171875</ele>
        <time>2003-06-07T07:37:49Z</time>
      </trkpt>
      <trkpt lat="46.473289299756289" lon="10.354274036362767">
        <ele>1392.12646484375</ele>
        <time>2003-06-07T07:37:51Z</time>
      </trkpt>
      <trkpt lat="46.473163822665811" lon="10.354207484051585">
        <ele>1393.087646484375</ele>
        <time>2003-06-07T07:37:53Z</time>
      </trkpt>
      <trkpt lat="46.473031891509891" lon="10.35413489677012">
        <ele>1394.529541015625</ele>
        <time>2003-06-07T07:37:55Z</time>
      </trkpt>
      <trkpt lat="46.472893506288528" lon="10.354065075516701">
        <ele>1395.490966796875</ele>
        <time>2003-06-07T07:37:57Z</time>
      </trkpt>
      <trkpt lat="46.472749253734946" lon="10.354003719985485">
        <ele>1396.932861328125</ele>
        <time>2003-06-07T07:37:59Z</time>
      </trkpt>
      <trkpt lat="46.472601732239127" lon="10.353956446051598">
        <ele>1397.894287109375</ele>
        <time>2003-06-07T07:38:01Z</time>
      </trkpt>
      <trkpt lat="46.472457395866513" lon="10.353919649496675">
        <ele>1398.85546875</ele>
        <time>2003-06-07T07:38:03Z</time>
      </trkpt>
      <trkpt lat="46.472314400598407" lon="10.353886624798179">
        <ele>1400.778076171875</ele>
        <time>2003-06-07T07:38:05Z</time>
      </trkpt>
      <trkpt lat="46.472166460007429" lon="10.353850834071636">
        <ele>1402.70068359375</ele>
        <time>2003-06-07T07:38:07Z</time>
      </trkpt>
      <trkpt lat="46.472025224938989" lon="10.353814288973808">
        <ele>1404.14306640625</ele>
        <time>2003-06-07T07:38:09Z</time>
      </trkpt>
      <trkpt lat="46.471902849152684" lon="10.353755364194512">
        <ele>1405.104248046875</ele>
        <time>2003-06-07T07:38:11Z</time>
      </trkpt>
      <trkpt lat="46.4717932138592" lon="10.353636844083667">
        <ele>1404.62353515625</ele>
        <time>2003-06-07T07:38:13Z</time>
      </trkpt>
      <trkpt lat="46.471670335158706" lon="10.353481695055962">
        <ele>1405.5849609375</ele>
        <time>2003-06-07T07:38:15Z</time>
      </trkpt>
      <trkpt lat="46.471530692651868" lon="10.353309279307723">
        <ele>1406.0654296875</ele>
        <time>2003-06-07T07:38:17Z</time>
      </trkpt>
      <trkpt lat="46.471454333513975" lon="10.353228393942118">
        <ele>1406.546142578125</ele>
        <time>2003-06-07T07:38:18Z</time>
      </trkpt>
      <trkpt lat="46.471375962719321" lon="10.353163769468665">
        <ele>1407.02685546875</ele>
        <time>2003-06-07T07:38:19Z</time>
      </trkpt>
      <trkpt lat="46.471199942752719" lon="10.353092942386866">
        <ele>1407.507568359375</ele>
        <time>2003-06-07T07:38:21Z</time>
      </trkpt>
      <trkpt lat="46.471104472875595" lon="10.353076513856649">
        <ele>1408.46875</ele>
        <time>2003-06-07T07:38:22Z</time>
      </trkpt>
      <trkpt lat="46.471005817875266" lon="10.353060588240623">
        <ele>1408.46875</ele>
        <time>2003-06-07T07:38:23Z</time>
      </trkpt>
      <trkpt lat="46.470904145389795" lon="10.35304382443428">
        <ele>1408.46875</ele>
        <time>2003-06-07T07:38:24Z</time>
      </trkpt>
      <trkpt lat="46.470799036324024" lon="10.353027228266001">
        <ele>1408.949462890625</ele>
        <time>2003-06-07T07:38:25Z</time>
      </trkpt>
      <trkpt lat="46.470692334696651" lon="10.353006608784199">
        <ele>1409.43017578125</ele>
        <time>2003-06-07T07:38:26Z</time>
      </trkpt>
      <trkpt lat="46.470586135983467" lon="10.352974841371179">
        <ele>1410.391357421875</ele>
        <time>2003-06-07T07:38:27Z</time>
      </trkpt>
      <trkpt lat="46.47048169746995" lon="10.352927148342133">
        <ele>1409.91064453125</ele>
        <time>2003-06-07T07:38:28Z</time>
      </trkpt>
      <trkpt lat="46.470379354432225" lon="10.352865038439631">
        <ele>1410.8720703125</ele>
        <time>2003-06-07T07:38:29Z</time>
      </trkpt>
      <trkpt lat="46.470277179032564" lon="10.352796725928783">
        <ele>1410.8720703125</ele>
        <time>2003-06-07T07:38:30Z</time>
      </trkpt>
      <trkpt lat="46.470175087451935" lon="10.352725144475698">
        <ele>1411.352783203125</ele>
        <time>2003-06-07T07:38:31Z</time>
      </trkpt>
      <trkpt lat="46.470074420794845" lon="10.352653646841645">
        <ele>1411.83349609375</ele>
        <time>2003-06-07T07:38:32Z</time>
      </trkpt>
      <trkpt lat="46.469978028908372" lon="10.352584077045321">
        <ele>1412.794677734375</ele>
        <time>2003-06-07T07:38:33Z</time>
      </trkpt>
      <trkpt lat="46.46988800726831" lon="10.352510903030634">
        <ele>1413.755859375</ele>
        <time>2003-06-07T07:38:34Z</time>
      </trkpt>
      <trkpt lat="46.469810390844941" lon="10.35242180339992">
        <ele>1415.6787109375</ele>
        <time>2003-06-07T07:38:35Z</time>
      </trkpt>
      <trkpt lat="46.469746185466647" lon="10.352317281067371">
        <ele>1415.6787109375</ele>
        <time>2003-06-07T07:38:36Z</time>
      </trkpt>
      <trkpt lat="46.469687512144446" lon="10.352207897230983">
        <ele>1416.1591796875</ele>
        <time>2003-06-07T07:38:37Z</time>
      </trkpt>
      <trkpt lat="46.469556502997875" lon="10.352009329944849">
        <ele>1417.60107421875</ele>
        <time>2003-06-07T07:38:39Z</time>
      </trkpt>
      <trkpt lat="46.46947955712676" lon="10.351929869502783">
        <ele>1418.081787109375</ele>
        <time>2003-06-07T07:38:40Z</time>
      </trkpt>
      <trkpt lat="46.469396827742457" lon="10.351864909753203">
        <ele>1419.52392578125</ele>
        <time>2003-06-07T07:38:41Z</time>
      </trkpt>
      <trkpt lat="46.469310661777854" lon="10.351807493716478">
        <ele>1419.52392578125</ele>
        <time>2003-06-07T07:38:42Z</time>
      </trkpt>
      <trkpt lat="46.469222819432616" lon="10.351751670241356">
        <ele>1420.4853515625</ele>
        <time>2003-06-07T07:38:43Z</time>
      </trkpt>
      <trkpt lat="46.469132881611586" lon="10.351696768775582">
        <ele>1421.446533203125</ele>
        <time>2003-06-07T07:38:44Z</time>
      </trkpt>
      <trkpt lat="46.469040596857667" lon="10.35164094530046">
        <ele>1421.92724609375</ele>
        <time>2003-06-07T07:38:45Z</time>
      </trkpt>
      <trkpt lat="46.468945294618607" lon="10.351585540920496">
        <ele>1422.407958984375</ele>
        <time>2003-06-07T07:38:46Z</time>
      </trkpt>
      <trkpt lat="46.468846388161182" lon="10.351530890911818">
        <ele>1423.369384765625</ele>
        <time>2003-06-07T07:38:47Z</time>
      </trkpt>
      <trkpt lat="46.46874513477087" lon="10.351474229246378">
        <ele>1423.849853515625</ele>
        <time>2003-06-07T07:38:48Z</time>
      </trkpt>
      <trkpt lat="46.46864153444767" lon="10.351415723562241">
        <ele>1424.33056640625</ele>
        <time>2003-06-07T07:38:49Z</time>
      </trkpt>
      <trkpt lat="46.468536341562867" lon="10.351354870945215">
        <ele>1425.291748046875</ele>
        <time>2003-06-07T07:38:50Z</time>
      </trkpt>
      <trkpt lat="46.468428885564208" lon="10.351294437423348">
        <ele>1425.7724609375</ele>
        <time>2003-06-07T07:38:51Z</time>
      </trkpt>
      <trkpt lat="46.468320759013295" lon="10.35123341716826">
        <ele>1426.253173828125</ele>
        <time>2003-06-07T07:38:52Z</time>
      </trkpt>
      <trkpt lat="46.468212548643351" lon="10.351172899827361">
        <ele>1426.253173828125</ele>
        <time>2003-06-07T07:38:53Z</time>
      </trkpt>
      <trkpt lat="46.468104841187596" lon="10.351112298667431">
        <ele>1427.214599609375</ele>
        <time>2003-06-07T07:38:54Z</time>
      </trkpt>
      <trkpt lat="46.467998055741191" lon="10.351050524041057">
        <ele>1428.17578125</ele>
        <time>2003-06-07T07:38:55Z</time>
      </trkpt>
      <trkpt lat="46.467891186475754" lon="10.350990509614348">
        <ele>1429.136962890625</ele>
        <time>2003-06-07T07:38:56Z</time>
      </trkpt>
      <trkpt lat="46.46778498776257" lon="10.350931920111179">
        <ele>1430.5791015625</ele>
        <time>2003-06-07T07:38:57Z</time>
      </trkpt>
      <trkpt lat="46.467679627239704" lon="10.350874168798327">
        <ele>1431.540283203125</ele>
        <time>2003-06-07T07:38:58Z</time>
      </trkpt>
      <trkpt lat="46.46757535636425" lon="10.350817004218698">
        <ele>1432.501708984375</ele>
        <time>2003-06-07T07:38:59Z</time>
      </trkpt>
      <trkpt lat="46.467471923679113" lon="10.350760594010353">
        <ele>1432.982177734375</ele>
        <time>2003-06-07T07:39:00Z</time>
      </trkpt>
      <trkpt lat="46.467369580641389" lon="10.350704938173294">
        <ele>1434.42431640625</ele>
        <time>2003-06-07T07:39:01Z</time>
      </trkpt>
      <trkpt lat="46.467269081622362" lon="10.350648025050759">
        <ele>1434.42431640625</ele>
        <time>2003-06-07T07:39:02Z</time>
      </trkpt>
      <trkpt lat="46.467170342803001" lon="10.350590273737907">
        <ele>1435.385498046875</ele>
        <time>2003-06-07T07:39:03Z</time>
      </trkpt>
      <trkpt lat="46.467073364183307" lon="10.35053126513958">
        <ele>1435.8662109375</ele>
        <time>2003-06-07T07:39:04Z</time>
      </trkpt>
      <trkpt lat="46.4669787324965" lon="10.350470580160618">
        <ele>1437.308349609375</ele>
        <time>2003-06-07T07:39:05Z</time>
      </trkpt>
      <trkpt lat="46.466885693371296" lon="10.350409643724561">
        <ele>1437.7890625</ele>
        <time>2003-06-07T07:39:06Z</time>
      </trkpt>
      <trkpt lat="46.466793576255441" lon="10.350349126383662">
        <ele>1438.269775390625</ele>
        <time>2003-06-07T07:39:07Z</time>
      </trkpt>
      <trkpt lat="46.466702381148934" lon="10.350287770852447">
        <ele>1439.711669921875</ele>
        <time>2003-06-07T07:39:08Z</time>
      </trkpt>
      <trkpt lat="46.46661126986146" lon="10.350225828588009">
        <ele>1440.1923828125</ele>
        <time>2003-06-07T07:39:09Z</time>
      </trkpt>
      <trkpt lat="46.46651990711689" lon="10.350163383409381">
        <ele>1440.6728515625</ele>
        <time>2003-06-07T07:39:10Z</time>
      </trkpt>
      <trkpt lat="46.46642854437232" lon="10.350099932402372">
        <ele>1441.153564453125</ele>
        <time>2003-06-07T07:39:11Z</time>
      </trkpt>
      <trkpt lat="46.466337684541941" lon="10.350037068128586">
        <ele>1441.63427734375</ele>
        <time>2003-06-07T07:39:12Z</time>
      </trkpt>
      <trkpt lat="46.466251434758306" lon="10.349979232996702">
        <ele>1442.114990234375</ele>
        <time>2003-06-07T07:39:13Z</time>
      </trkpt>
      <trkpt lat="46.466101231053472" lon="10.349874459207058">
        <ele>1443.076171875</ele>
        <time>2003-06-07T07:39:15Z</time>
      </trkpt>
      <trkpt lat="46.465999642387033" lon="10.349803632125258">
        <ele>1443.076171875</ele>
        <time>2003-06-07T07:39:17Z</time>
      </trkpt>
      <trkpt lat="46.465923702344298" lon="10.349753592163324">
        <ele>1443.556884765625</ele>
        <time>2003-06-07T07:39:20Z</time>
      </trkpt>
      <trkpt lat="46.465838458389044" lon="10.349677568301558">
        <ele>1443.556884765625</ele>
        <time>2003-06-07T07:39:25Z</time>
      </trkpt>
      <trkpt lat="46.465744329616427" lon="10.349645968526602">
        <ele>1444.03759765625</ele>
        <time>2003-06-07T07:41:37Z</time>
      </trkpt>
      <trkpt lat="46.46563058719039" lon="10.349572794511914">
        <ele>1445.4794921875</ele>
        <time>2003-06-07T07:41:40Z</time>
      </trkpt>
      <trkpt lat="46.465512989088893" lon="10.34948755055666">
        <ele>1445.960205078125</ele>
        <time>2003-06-07T07:41:43Z</time>
      </trkpt>
      <trkpt lat="46.465426655486226" lon="10.349422674626112">
        <ele>1447.402099609375</ele>
        <time>2003-06-07T07:41:45Z</time>
      </trkpt>
      <trkpt lat="46.465332359075546" lon="10.349348662421107">
        <ele>1447.402099609375</ele>
        <time>2003-06-07T07:41:47Z</time>
      </trkpt>
      <trkpt lat="46.465230938047171" lon="10.349268782883883">
        <ele>1448.36328125</ele>
        <time>2003-06-07T07:41:49Z</time>
      </trkpt>
      <trkpt lat="46.465134713798761" lon="10.349190328270197">
        <ele>1449.805419921875</ele>
        <time>2003-06-07T07:41:51Z</time>
      </trkpt>
      <trkpt lat="46.465056259185076" lon="10.349113550037146">
        <ele>1451.247314453125</ele>
        <time>2003-06-07T07:41:53Z</time>
      </trkpt>
      <trkpt lat="46.465036813169718" lon="10.348950270563364">
        <ele>1451.72802734375</ele>
        <time>2003-06-07T07:41:56Z</time>
      </trkpt>
      <trkpt lat="46.465157261118293" lon="10.348911713808775">
        <ele>1452.208740234375</ele>
        <time>2003-06-07T07:41:59Z</time>
      </trkpt>
      <trkpt lat="46.465290784835815" lon="10.348965441808105">
        <ele>1453.65087890625</ele>
        <time>2003-06-07T07:42:02Z</time>
      </trkpt>
      <trkpt lat="46.46539120003581" lon="10.349012464284897">
        <ele>1454.612060546875</ele>
        <time>2003-06-07T07:42:04Z</time>
      </trkpt>
      <trkpt lat="46.465500332415104" lon="10.349059486761689">
        <ele>1455.573486328125</ele>
        <time>2003-06-07T07:42:06Z</time>
      </trkpt>
      <trkpt lat="46.465621450915933" lon="10.349107179790735">
        <ele>1457.015380859375</ele>
        <time>2003-06-07T07:42:08Z</time>
      </trkpt>
      <trkpt lat="46.465752124786377" lon="10.349162751808763">
        <ele>1458.457275390625</ele>
        <time>2003-06-07T07:42:10Z</time>
      </trkpt>
      <trkpt lat="46.465888330712914" lon="10.349226957187057">
        <ele>1459.418701171875</ele>
        <time>2003-06-07T07:42:12Z</time>
      </trkpt>
      <trkpt lat="46.466012382879853" lon="10.349283451214433">
        <ele>1459.899169921875</ele>
        <time>2003-06-07T07:42:14Z</time>
      </trkpt>
      <trkpt lat="46.466115731745958" lon="10.349321253597736">
        <ele>1460.860595703125</ele>
        <time>2003-06-07T07:42:16Z</time>
      </trkpt>
      <trkpt lat="46.466197874397039" lon="10.349291246384382">
        <ele>1461.34130859375</ele>
        <time>2003-06-07T07:42:18Z</time>
      </trkpt>
      <trkpt lat="46.466203154996037" lon="10.349125536158681">
        <ele>1462.302490234375</ele>
        <time>2003-06-07T07:42:21Z</time>
      </trkpt>
      <trkpt lat="46.466128136962652" lon="10.349035011604428">
        <ele>1463.744384765625</ele>
        <time>2003-06-07T07:42:23Z</time>
      </trkpt>
      <trkpt lat="46.466019423678517" lon="10.348979020491242">
        <ele>1465.1865234375</ele>
        <time>2003-06-07T07:42:25Z</time>
      </trkpt>
      <trkpt lat="46.465894365683198" lon="10.348921101540327">
        <ele>1465.1865234375</ele>
        <time>2003-06-07T07:42:27Z</time>
      </trkpt>
      <trkpt lat="46.465756148099899" lon="10.348857063800097">
        <ele>1466.147705078125</ele>
        <time>2003-06-07T07:42:29Z</time>
      </trkpt>
      <trkpt lat="46.465608039870858" lon="10.34878833219409">
        <ele>1468.070556640625</ele>
        <time>2003-06-07T07:42:31Z</time>
      </trkpt>
      <trkpt lat="46.465451130643487" lon="10.348709626123309">
        <ele>1469.031982421875</ele>
        <time>2003-06-07T07:42:33Z</time>
      </trkpt>
      <trkpt lat="46.465293215587735" lon="10.348618850111961">
        <ele>1469.9931640625</ele>
        <time>2003-06-07T07:42:35Z</time>
      </trkpt>
      <trkpt lat="46.465143347159028" lon="10.348514998331666">
        <ele>1470.95458984375</ele>
        <time>2003-06-07T07:42:37Z</time>
      </trkpt>
      <trkpt lat="46.464989874511957" lon="10.348461605608463">
        <ele>1470.95458984375</ele>
        <time>2003-06-07T07:42:39Z</time>
      </trkpt>
      <trkpt lat="46.46484344266355" lon="10.348450960591435">
        <ele>1472.877197265625</ele>
        <time>2003-06-07T07:42:41Z</time>
      </trkpt>
      <trkpt lat="46.464715451002121" lon="10.348425647243857">
        <ele>1473.83837890625</ele>
        <time>2003-06-07T07:42:43Z</time>
      </trkpt>
      <trkpt lat="46.464611850678921" lon="10.348365046083927">
        <ele>1473.35791015625</ele>
        <time>2003-06-07T07:42:45Z</time>
      </trkpt>
      <trkpt lat="46.464511603116989" lon="10.348279383033514">
        <ele>1473.35791015625</ele>
        <time>2003-06-07T07:42:47Z</time>
      </trkpt>
      <trkpt lat="46.464418396353722" lon="10.348161952570081">
        <ele>1473.35791015625</ele>
        <time>2003-06-07T07:42:49Z</time>
      </trkpt>
      <trkpt lat="46.46434111520648" lon="10.348047958686948">
        <ele>1473.35791015625</ele>
        <time>2003-06-07T07:42:51Z</time>
      </trkpt>
      <trkpt lat="46.464275484904647" lon="10.347942765802145">
        <ele>1473.35791015625</ele>
        <time>2003-06-07T07:42:53Z</time>
      </trkpt>
      <trkpt lat="46.464210860431194" lon="10.347813600674272">
        <ele>1473.83837890625</ele>
        <time>2003-06-07T07:42:55Z</time>
      </trkpt>
      <trkpt lat="46.464148499071598" lon="10.347654679790139">
        <ele>1473.35791015625</ele>
        <time>2003-06-07T07:42:57Z</time>
      </trkpt>
      <trkpt lat="46.464073983952403" lon="10.347489975392818">
        <ele>1473.83837890625</ele>
        <time>2003-06-07T07:42:59Z</time>
      </trkpt>
      <trkpt lat="46.46397759206593" lon="10.347342789173126">
        <ele>1473.35791015625</ele>
        <time>2003-06-07T07:43:01Z</time>
      </trkpt>
      <trkpt lat="46.463857144117355" lon="10.34722569398582">
        <ele>1474.319091796875</ele>
        <time>2003-06-07T07:43:03Z</time>
      </trkpt>
      <trkpt lat="46.463735857978463" lon="10.347120417281985">
        <ele>1474.7998046875</ele>
        <time>2003-06-07T07:43:05Z</time>
      </trkpt>
      <trkpt lat="46.463639130815864" lon="10.347016314044595">
        <ele>1475.760986328125</ele>
        <time>2003-06-07T07:43:07Z</time>
      </trkpt>
      <trkpt lat="46.463564615696669" lon="10.34690273925662">
        <ele>1476.24169921875</ele>
        <time>2003-06-07T07:43:09Z</time>
      </trkpt>
      <trkpt lat="46.463511222973466" lon="10.34679519943893">
        <ele>1476.24169921875</ele>
        <time>2003-06-07T07:43:11Z</time>
      </trkpt>
      <trkpt lat="46.463428996503353" lon="10.346653293818235">
        <ele>1476.24169921875</ele>
        <time>2003-06-07T07:43:14Z</time>
      </trkpt>
      <trkpt lat="46.463333945721388" lon="10.346510298550129">
        <ele>1476.24169921875</ele>
        <time>2003-06-07T07:43:17Z</time>
      </trkpt>
      <trkpt lat="46.463258508592844" lon="10.346406865864992">
        <ele>1476.722412109375</ele>
        <time>2003-06-07T07:43:19Z</time>
      </trkpt>
      <trkpt lat="46.46317770704627" lon="10.346301170065999">
        <ele>1476.722412109375</ele>
        <time>2003-06-07T07:43:21Z</time>
      </trkpt>
      <trkpt lat="46.463094558566809" lon="10.346198072656989">
        <ele>1477.203125</ele>
        <time>2003-06-07T07:43:23Z</time>
      </trkpt>
      <trkpt lat="46.463006129488349" lon="10.346097154542804">
        <ele>1477.68359375</ele>
        <time>2003-06-07T07:43:25Z</time>
      </trkpt>
      <trkpt lat="46.462919879704714" lon="10.345985591411591">
        <ele>1478.164306640625</ele>
        <time>2003-06-07T07:43:27Z</time>
      </trkpt>
      <trkpt lat="46.462842263281345" lon="10.345859946683049">
        <ele>1478.64501953125</ele>
        <time>2003-06-07T07:43:29Z</time>
      </trkpt>
      <trkpt lat="46.462764898315072" lon="10.345719549804926">
        <ele>1479.606201171875</ele>
        <time>2003-06-07T07:43:31Z</time>
      </trkpt>
      <trkpt lat="46.46268468350172" lon="10.345578314736485">
        <ele>1480.567626953125</ele>
        <time>2003-06-07T07:43:33Z</time>
      </trkpt>
      <trkpt lat="46.462595164775848" lon="10.345451328903437">
        <ele>1481.52880859375</ele>
        <time>2003-06-07T07:43:35Z</time>
      </trkpt>
      <trkpt lat="46.46249801851809" lon="10.345339849591255">
        <ele>1482.970703125</ele>
        <time>2003-06-07T07:43:37Z</time>
      </trkpt>
      <trkpt lat="46.462400034070015" lon="10.345240104943514">
        <ele>1483.451416015625</ele>
        <time>2003-06-07T07:43:39Z</time>
      </trkpt>
      <trkpt lat="46.462301546707749" lon="10.345151675865054">
        <ele>1483.451416015625</ele>
        <time>2003-06-07T07:43:41Z</time>
      </trkpt>
      <trkpt lat="46.462200377136469" lon="10.34507087431848">
        <ele>1483.93212890625</ele>
        <time>2003-06-07T07:43:43Z</time>
      </trkpt>
      <trkpt lat="46.462086215615273" lon="10.344987222924829">
        <ele>1484.4130859375</ele>
        <time>2003-06-07T07:43:45Z</time>
      </trkpt>
      <trkpt lat="46.461959900334477" lon="10.344911953434348">
        <ele>1486.335693359375</ele>
        <time>2003-06-07T07:43:47Z</time>
      </trkpt>
      <trkpt lat="46.461841380223632" lon="10.344812041148543">
        <ele>1487.777587890625</ele>
        <time>2003-06-07T07:43:49Z</time>
      </trkpt>
      <trkpt lat="46.461727973073721" lon="10.344704417511821">
        <ele>1489.7001953125</ele>
        <time>2003-06-07T07:43:51Z</time>
      </trkpt>
      <trkpt lat="46.461613727733493" lon="10.344602493569255">
        <ele>1492.103515625</ele>
        <time>2003-06-07T07:43:53Z</time>
      </trkpt>
      <trkpt lat="46.461491351947188" lon="10.344522697851062">
        <ele>1493.54541015625</ele>
        <time>2003-06-07T07:43:55Z</time>
      </trkpt>
      <trkpt lat="46.461383644491434" lon="10.344464527443051">
        <ele>1494.9873046875</ele>
        <time>2003-06-07T07:43:57Z</time>
      </trkpt>
      <trkpt lat="46.461294628679752" lon="10.344435442239046">
        <ele>1495.94873046875</ele>
        <time>2003-06-07T07:44:00Z</time>
      </trkpt>
      <trkpt lat="46.461179545149207" lon="10.344444159418344">
        <ele>1496.909912109375</ele>
        <time>2003-06-07T07:44:11Z</time>
      </trkpt>
      <trkpt lat="46.461052894592285" lon="10.34441851079464">
        <ele>1498.351806640625</ele>
        <time>2003-06-07T07:44:14Z</time>
      </trkpt>
      <trkpt lat="46.460941834375262" lon="10.344389928504825">
        <ele>1499.7939453125</ele>
        <time>2003-06-07T07:44:17Z</time>
      </trkpt>
      <trkpt lat="46.460832618176937" lon="10.344362016767263">
        <ele>1500.75537109375</ele>
        <time>2003-06-07T07:44:20Z</time>
      </trkpt>
      <trkpt lat="46.460716361179948" lon="10.344315581023693">
        <ele>1501.716796875</ele>
        <time>2003-06-07T07:44:24Z</time>
      </trkpt>
      <trkpt lat="46.460610497742891" lon="10.344248777255416">
        <ele>1504.1201171875</ele>
        <time>2003-06-07T07:44:27Z</time>
      </trkpt>
      <trkpt lat="46.460527181625366" lon="10.344164539128542">
        <ele>1505.56201171875</ele>
        <time>2003-06-07T07:44:30Z</time>
      </trkpt>
      <trkpt lat="46.460477560758591" lon="10.344064626842737">
        <ele>1506.523193359375</ele>
        <time>2003-06-07T07:44:33Z</time>
      </trkpt>
      <trkpt lat="46.460464904084802" lon="10.34392942674458">
        <ele>1509.4072265625</ele>
        <time>2003-06-07T07:44:37Z</time>
      </trkpt>
      <trkpt lat="46.460516704246402" lon="10.343784922733903">
        <ele>1510.368408203125</ele>
        <time>2003-06-07T07:44:42Z</time>
      </trkpt>
      <trkpt lat="46.460598260164261" lon="10.343647794798017">
        <ele>1510.84912109375</ele>
        <time>2003-06-07T07:44:46Z</time>
      </trkpt>
      <trkpt lat="46.460657436400652" lon="10.34352676011622">
        <ele>1512.771728515625</ele>
        <time>2003-06-07T07:44:49Z</time>
      </trkpt>
      <trkpt lat="46.46069155074656" lon="10.343402037397027">
        <ele>1513.73291015625</ele>
        <time>2003-06-07T07:44:52Z</time>
      </trkpt>
      <trkpt lat="46.460712840780616" lon="10.343222748488188">
        <ele>1515.65576171875</ele>
        <time>2003-06-07T07:44:56Z</time>
      </trkpt>
      <trkpt lat="46.460728850215673" lon="10.343079250305891">
        <ele>1516.6171875</ele>
        <time>2003-06-07T07:44:59Z</time>
      </trkpt>
      <trkpt lat="46.460757935419679" lon="10.342941451817751">
        <ele>1517.578369140625</ele>
        <time>2003-06-07T07:45:02Z</time>
      </trkpt>
      <trkpt lat="46.460838904604316" lon="10.342826871201396">
        <ele>1517.578369140625</ele>
        <time>2003-06-07T07:45:06Z</time>
      </trkpt>
      <trkpt lat="46.460920544341207" lon="10.342757301405072">
        <ele>1519.0205078125</ele>
        <time>2003-06-07T07:45:10Z</time>
      </trkpt>
      <trkpt lat="46.46082691848278" lon="10.342820165678859">
        <ele>1523.346435546875</ele>
        <time>2003-06-07T07:59:47Z</time>
      </trkpt>
      <trkpt lat="46.460943007841706" lon="10.342735089361668">
        <ele>1525.74951171875</ele>
        <time>2003-06-07T08:03:07Z</time>
      </trkpt>
      <trkpt lat="46.461025569587946" lon="10.342664010822773">
        <ele>1526.230224609375</ele>
        <time>2003-06-07T08:03:12Z</time>
      </trkpt>
      <trkpt lat="46.46113084629178" lon="10.342677840963006">
        <ele>1528.15283203125</ele>
        <time>2003-06-07T08:03:16Z</time>
      </trkpt>
      <trkpt lat="46.461232351139188" lon="10.342690329998732">
        <ele>1529.114013671875</ele>
        <time>2003-06-07T08:03:22Z</time>
      </trkpt>
      <trkpt lat="46.461332431063056" lon="10.342707009986043">
        <ele>1531.036865234375</ele>
        <time>2003-06-07T08:03:28Z</time>
      </trkpt>
      <trkpt lat="46.461427733302116" lon="10.342712206766009">
        <ele>1532.47900390625</ele>
        <time>2003-06-07T08:03:34Z</time>
      </trkpt>
      <trkpt lat="46.461526472121477" lon="10.342708015814424">
        <ele>1533.440185546875</ele>
        <time>2003-06-07T08:03:41Z</time>
      </trkpt>
      <trkpt lat="46.461620684713125" lon="10.342702567577362">
        <ele>1534.401611328125</ele>
        <time>2003-06-07T08:03:48Z</time>
      </trkpt>
      <trkpt lat="46.461712466552854" lon="10.342723857611418">
        <ele>1534.88232421875</ele>
        <time>2003-06-07T08:03:55Z</time>
      </trkpt>
      <trkpt lat="46.461816653609276" lon="10.34268245100975">
        <ele>1535.843505859375</ele>
        <time>2003-06-07T08:04:01Z</time>
      </trkpt>
      <trkpt lat="46.461896952241659" lon="10.342617407441139">
        <ele>1536.8046875</ele>
        <time>2003-06-07T08:04:06Z</time>
      </trkpt>
      <trkpt lat="46.461997870355844" lon="10.342538869008422">
        <ele>1537.285400390625</ele>
        <time>2003-06-07T08:04:12Z</time>
      </trkpt>
      <trkpt lat="46.462083030492067" lon="10.34247768111527">
        <ele>1537.76611328125</ele>
        <time>2003-06-07T08:04:17Z</time>
      </trkpt>
      <trkpt lat="46.462169028818607" lon="10.342411966994405">
        <ele>1538.7275390625</ele>
        <time>2003-06-07T08:04:22Z</time>
      </trkpt>
      <trkpt lat="46.462251422926784" lon="10.342345163226128">
        <ele>1540.16943359375</ele>
        <time>2003-06-07T08:04:27Z</time>
      </trkpt>
      <trkpt lat="46.462325435131788" lon="10.342269307002425">
        <ele>1541.130615234375</ele>
        <time>2003-06-07T08:04:32Z</time>
      </trkpt>
      <trkpt lat="46.462395507842302" lon="10.342192193493247">
        <ele>1541.611328125</ele>
        <time>2003-06-07T08:04:37Z</time>
      </trkpt>
      <trkpt lat="46.462499108165503" lon="10.342161515727639">
        <ele>1543.05322265625</ele>
        <time>2003-06-07T08:04:43Z</time>
      </trkpt>
      <trkpt lat="46.462588123977184" lon="10.34218649379909">
        <ele>1544.4951171875</ele>
        <time>2003-06-07T08:04:48Z</time>
      </trkpt>
      <trkpt lat="46.462676050141454" lon="10.342256985604763">
        <ele>1544.4951171875</ele>
        <time>2003-06-07T08:04:53Z</time>
      </trkpt>
      <trkpt lat="46.462762635201216" lon="10.342350192368031">
        <ele>1545.45654296875</ele>
        <time>2003-06-07T08:04:58Z</time>
      </trkpt>
      <trkpt lat="46.462818207219243" lon="10.342450188472867">
        <ele>1545.45654296875</ele>
        <time>2003-06-07T08:05:02Z</time>
      </trkpt>
      <trkpt lat="46.462876964360476" lon="10.342585053294897">
        <ele>1546.41796875</ele>
        <time>2003-06-07T08:05:07Z</time>
      </trkpt>
      <trkpt lat="46.462937649339437" lon="10.342707512900233">
        <ele>1546.41796875</ele>
        <time>2003-06-07T08:05:12Z</time>
      </trkpt>
      <trkpt lat="46.462974529713392" lon="10.342839946970344">
        <ele>1546.8984375</ele>
        <time>2003-06-07T08:05:17Z</time>
      </trkpt>
      <trkpt lat="46.463008057326078" lon="10.342999035492539">
        <ele>1547.379150390625</ele>
        <time>2003-06-07T08:05:22Z</time>
      </trkpt>
      <trkpt lat="46.463033203035593" lon="10.343137672170997">
        <ele>1547.85986328125</ele>
        <time>2003-06-07T08:05:26Z</time>
      </trkpt>
      <trkpt lat="46.463055834174156" lon="10.343297263607383">
        <ele>1548.340576171875</ele>
        <time>2003-06-07T08:05:31Z</time>
      </trkpt>
      <trkpt lat="46.463128253817558" lon="10.343414526432753">
        <ele>1548.8212890625</ele>
        <time>2003-06-07T08:05:36Z</time>
      </trkpt>
      <trkpt lat="46.463230680674314" lon="10.343463392928243">
        <ele>1548.8212890625</ele>
        <time>2003-06-07T08:05:41Z</time>
      </trkpt>
      <trkpt lat="46.463335203006864" lon="10.343460543081164">
        <ele>1549.78271484375</ele>
        <time>2003-06-07T08:05:46Z</time>
      </trkpt>
      <trkpt lat="46.463408293202519" lon="10.343382423743606">
        <ele>1551.224609375</ele>
        <time>2003-06-07T08:05:51Z</time>
      </trkpt>
      <trkpt lat="46.463472582399845" lon="10.343266418203712">
        <ele>1551.705322265625</ele>
        <time>2003-06-07T08:05:58Z</time>
      </trkpt>
      <trkpt lat="46.46350409835577" lon="10.343151669949293">
        <ele>1552.185791015625</ele>
        <time>2003-06-07T08:06:05Z</time>
      </trkpt>
      <trkpt lat="46.463533267378807" lon="10.343019822612405">
        <ele>1553.147216796875</ele>
        <time>2003-06-07T08:06:13Z</time>
      </trkpt>
      <trkpt lat="46.463554473593831" lon="10.342880850657821">
        <ele>1553.6279296875</ele>
        <time>2003-06-07T08:06:20Z</time>
      </trkpt>
      <trkpt lat="46.463563945144415" lon="10.342737855389714">
        <ele>1554.589111328125</ele>
        <time>2003-06-07T08:06:27Z</time>
      </trkpt>
      <trkpt lat="46.463574422523379" lon="10.342600559815764">
        <ele>1555.06982421875</ele>
        <time>2003-06-07T08:06:33Z</time>
      </trkpt>
      <trkpt lat="46.46358079276979" lon="10.342460833489895">
        <ele>1555.550537109375</ele>
        <time>2003-06-07T08:06:39Z</time>
      </trkpt>
      <trkpt lat="46.463572829961777" lon="10.342310462146997">
        <ele>1556.992431640625</ele>
        <time>2003-06-07T08:06:46Z</time>
      </trkpt>
      <trkpt lat="46.463509295135736" lon="10.342212645336986">
        <ele>1557.953857421875</ele>
        <time>2003-06-07T08:06:53Z</time>
      </trkpt>
      <trkpt lat="46.463436791673303" lon="10.34210049547255">
        <ele>1558.9150390625</ele>
        <time>2003-06-07T08:07:00Z</time>
      </trkpt>
      <trkpt lat="46.463353307917714" lon="10.341993877664208">
        <ele>1560.35693359375</ele>
        <time>2003-06-07T08:07:07Z</time>
      </trkpt>
      <trkpt lat="46.463268985971808" lon="10.341886086389422">
        <ele>1560.837646484375</ele>
        <time>2003-06-07T08:07:14Z</time>
      </trkpt>
      <trkpt lat="46.463197153061628" lon="10.341786593198776">
        <ele>1562.279541015625</ele>
        <time>2003-06-07T08:07:20Z</time>
      </trkpt>
      <trkpt lat="46.463119620457292" lon="10.341691626235843">
        <ele>1563.240966796875</ele>
        <time>2003-06-07T08:07:26Z</time>
      </trkpt>
      <trkpt lat="46.463039154186845" lon="10.341586852446198">
        <ele>1563.721435546875</ele>
        <time>2003-06-07T08:07:32Z</time>
      </trkpt>
      <trkpt lat="46.46295634098351" lon="10.34148970618844">
        <ele>1564.68310546875</ele>
        <time>2003-06-07T08:07:38Z</time>
      </trkpt>
      <trkpt lat="46.462875455617905" lon="10.34140664152801">
        <ele>1565.163818359375</ele>
        <time>2003-06-07T08:07:43Z</time>
      </trkpt>
      <trkpt lat="46.462785266339779" lon="10.341357020661235">
        <ele>1565.64453125</ele>
        <time>2003-06-07T08:07:47Z</time>
      </trkpt>
      <trkpt lat="46.462690634652972" lon="10.341326259076595">
        <ele>1565.64453125</ele>
        <time>2003-06-07T08:07:51Z</time>
      </trkpt>
      <trkpt lat="46.462579574435949" lon="10.341296419501305">
        <ele>1566.125</ele>
        <time>2003-06-07T08:07:56Z</time>
      </trkpt>
      <trkpt lat="46.462476560845971" lon="10.341269345954061">
        <ele>1566.605712890625</ele>
        <time>2003-06-07T08:08:01Z</time>
      </trkpt>
      <trkpt lat="46.462395507842302" lon="10.341208409518003">
        <ele>1567.08642578125</ele>
        <time>2003-06-07T08:08:06Z</time>
      </trkpt>
      <trkpt lat="46.462310682982206" lon="10.34111981280148">
        <ele>1568.047607421875</ele>
        <time>2003-06-07T08:08:12Z</time>
      </trkpt>
      <trkpt lat="46.462221080437303" lon="10.341040017083287">
        <ele>1569.009033203125</ele>
        <time>2003-06-07T08:08:18Z</time>
      </trkpt>
      <trkpt lat="46.462123850360513" lon="10.340975057333708">
        <ele>1570.450927734375</ele>
        <time>2003-06-07T08:08:24Z</time>
      </trkpt>
      <trkpt lat="46.462027709931135" lon="10.340903727337718">
        <ele>1570.450927734375</ele>
        <time>2003-06-07T08:08:31Z</time>
      </trkpt>
      <trkpt lat="46.461954619735479" lon="10.340801132842898">
        <ele>1572.37353515625</ele>
        <time>2003-06-07T08:08:38Z</time>
      </trkpt>
      <trkpt lat="46.461892509832978" lon="10.340685462579131">
        <ele>1572.854248046875</ele>
        <time>2003-06-07T08:08:45Z</time>
      </trkpt>
      <trkpt lat="46.461838530376554" lon="10.340587142854929">
        <ele>1573.8154296875</ele>
        <time>2003-06-07T08:08:51Z</time>
      </trkpt>
      <trkpt lat="46.461773738265038" lon="10.340469963848591">
        <ele>1575.25732421875</ele>
        <time>2003-06-07T08:08:58Z</time>
      </trkpt>
      <trkpt lat="46.461722021922469" lon="10.340344235301018">
        <ele>1576.699462890625</ele>
        <time>2003-06-07T08:09:05Z</time>
      </trkpt>
      <trkpt lat="46.461666030809283" lon="10.340207861736417">
        <ele>1578.141357421875</ele>
        <time>2003-06-07T08:09:13Z</time>
      </trkpt>
      <trkpt lat="46.461621941998601" lon="10.340087581425905">
        <ele>1579.1025390625</ele>
        <time>2003-06-07T08:09:20Z</time>
      </trkpt>
      <trkpt lat="46.461544074118137" lon="10.339924385771155">
        <ele>1580.064208984375</ele>
        <time>2003-06-07T08:09:28Z</time>
      </trkpt>
      <trkpt lat="46.461468134075403" lon="10.339814582839608">
        <ele>1581.506103515625</ele>
        <time>2003-06-07T08:09:35Z</time>
      </trkpt>
      <trkpt lat="46.461374089121819" lon="10.339718945324421">
        <ele>1583.4287109375</ele>
        <time>2003-06-07T08:09:43Z</time>
      </trkpt>
      <trkpt lat="46.461273254826665" lon="10.339641077443957">
        <ele>1584.39013671875</ele>
        <time>2003-06-07T08:09:50Z</time>
      </trkpt>
      <trkpt lat="46.461170827969909" lon="10.339582907035947">
        <ele>1585.83203125</ele>
        <time>2003-06-07T08:09:57Z</time>
      </trkpt>
      <trkpt lat="46.461049877107143" lon="10.33955616876483">
        <ele>1586.793212890625</ele>
        <time>2003-06-07T08:10:04Z</time>
      </trkpt>
      <trkpt lat="46.460943594574928" lon="10.339538985863328">
        <ele>1588.2353515625</ele>
        <time>2003-06-07T08:10:10Z</time>
      </trkpt>
      <trkpt lat="46.460838317871094" lon="10.339502608403563">
        <ele>1589.196533203125</ele>
        <time>2003-06-07T08:10:16Z</time>
      </trkpt>
      <trkpt lat="46.460739327594638" lon="10.33950730226934">
        <ele>1590.157958984375</ele>
        <time>2003-06-07T08:10:22Z</time>
      </trkpt>
      <trkpt lat="46.460637906566262" lon="10.339524149894714">
        <ele>1590.638427734375</ele>
        <time>2003-06-07T08:10:28Z</time>
      </trkpt>
      <trkpt lat="46.460541263222694" lon="10.339502356946468">
        <ele>1591.599853515625</ele>
        <time>2003-06-07T08:10:34Z</time>
      </trkpt>
      <trkpt lat="46.460462138056755" lon="10.339431026950479">
        <ele>1592.08056640625</ele>
        <time>2003-06-07T08:10:40Z</time>
      </trkpt>
      <trkpt lat="46.460418300703168" lon="10.339322816580534">
        <ele>1593.5224609375</ele>
        <time>2003-06-07T08:10:46Z</time>
      </trkpt>
      <trkpt lat="46.460377732291818" lon="10.339208906516433">
        <ele>1594.483642578125</ele>
        <time>2003-06-07T08:10:52Z</time>
      </trkpt>
      <trkpt lat="46.4603250939399" lon="10.339079070836306">
        <ele>1594.96435546875</ele>
        <time>2003-06-07T08:10:58Z</time>
      </trkpt>
      <trkpt lat="46.460292572155595" lon="10.338964322581887">
        <ele>1596.40673828125</ele>
        <time>2003-06-07T08:11:05Z</time>
      </trkpt>
      <trkpt lat="46.4602405205369" lon="10.338830966502428">
        <ele>1597.367919921875</ele>
        <time>2003-06-07T08:11:12Z</time>
      </trkpt>
      <trkpt lat="46.460178410634398" lon="10.338703729212284">
        <ele>1598.3291015625</ele>
        <time>2003-06-07T08:11:18Z</time>
      </trkpt>
      <trkpt lat="46.460109511390328" lon="10.338583365082741">
        <ele>1599.771240234375</ele>
        <time>2003-06-07T08:11:24Z</time>
      </trkpt>
      <trkpt lat="46.460041785612702" lon="10.338474987074733">
        <ele>1600.251953125</ele>
        <time>2003-06-07T08:11:29Z</time>
      </trkpt>
      <trkpt lat="46.459965845569968" lon="10.338373398408294">
        <ele>1601.213134765625</ele>
        <time>2003-06-07T08:11:35Z</time>
      </trkpt>
      <trkpt lat="46.459904322400689" lon="10.338270049542189">
        <ele>1601.69384765625</ele>
        <time>2003-06-07T08:11:41Z</time>
      </trkpt>
      <trkpt lat="46.459849672392011" lon="10.338162509724498">
        <ele>1603.616455078125</ele>
        <time>2003-06-07T08:11:47Z</time>
      </trkpt>
      <trkpt lat="46.459808433428407" lon="10.338027393445373">
        <ele>1604.09716796875</ele>
        <time>2003-06-07T08:11:53Z</time>
      </trkpt>
      <trkpt lat="46.459788149222732" lon="10.337906023487449">
        <ele>1605.058349609375</ele>
        <time>2003-06-07T08:11:59Z</time>
      </trkpt>
      <trkpt lat="46.459757052361965" lon="10.337738636881113">
        <ele>1607.461669921875</ele>
        <time>2003-06-07T08:12:06Z</time>
      </trkpt>
      <trkpt lat="46.459729475900531" lon="10.337598491460085">
        <ele>1608.4228515625</ele>
        <time>2003-06-07T08:12:13Z</time>
      </trkpt>
      <trkpt lat="46.459684213623405" lon="10.337457675486803">
        <ele>1609.86474609375</ele>
        <time>2003-06-07T08:12:19Z</time>
      </trkpt>
      <trkpt lat="46.459631575271487" lon="10.337299508973956">
        <ele>1610.826171875</ele>
        <time>2003-06-07T08:12:25Z</time>
      </trkpt>
      <trkpt lat="46.459586145356297" lon="10.337154250591993">
        <ele>1611.78759765625</ele>
        <time>2003-06-07T08:12:31Z</time>
      </trkpt>
      <trkpt lat="46.459545493125916" lon="10.337025756016374">
        <ele>1612.7490234375</ele>
        <time>2003-06-07T08:12:37Z</time>
      </trkpt>
      <trkpt lat="46.459514731541276" lon="10.336892819032073">
        <ele>1613.710205078125</ele>
        <time>2003-06-07T08:12:44Z</time>
      </trkpt>
      <trkpt lat="46.45946217700839" lon="10.336754852905869">
        <ele>1614.671630859375</ele>
        <time>2003-06-07T08:12:51Z</time>
      </trkpt>
      <trkpt lat="46.459420518949628" lon="10.336627028882504">
        <ele>1616.59423828125</ele>
        <time>2003-06-07T08:12:58Z</time>
      </trkpt>
      <trkpt lat="46.459355391561985" lon="10.336467940360308">
        <ele>1617.555419921875</ele>
        <time>2003-06-07T08:13:05Z</time>
      </trkpt>
      <trkpt lat="46.459304848685861" lon="10.336334416642785">
        <ele>1618.516845703125</ele>
        <time>2003-06-07T08:13:12Z</time>
      </trkpt>
      <trkpt lat="46.459241481497884" lon="10.336206508800387">
        <ele>1619.958740234375</ele>
        <time>2003-06-07T08:13:19Z</time>
      </trkpt>
      <trkpt lat="46.459175013005733" lon="10.336092263460159">
        <ele>1622.362060546875</ele>
        <time>2003-06-07T08:13:26Z</time>
      </trkpt>
      <trkpt lat="46.459098067134619" lon="10.33598430454731">
        <ele>1623.803955078125</ele>
        <time>2003-06-07T08:13:34Z</time>
      </trkpt>
      <trkpt lat="46.459011314436793" lon="10.33591004088521">
        <ele>1624.28466796875</ele>
        <time>2003-06-07T08:13:41Z</time>
      </trkpt>
      <trkpt lat="46.45887041464448" lon="10.335866622626781">
        <ele>1625.7265625</ele>
        <time>2003-06-07T08:13:48Z</time>
      </trkpt>
      <trkpt lat="46.458753319457173" lon="10.335865365341306">
        <ele>1625.7265625</ele>
        <time>2003-06-07T08:13:54Z</time>
      </trkpt>
      <trkpt lat="46.458625076338649" lon="10.335919931530952">
        <ele>1626.68798828125</ele>
        <time>2003-06-07T08:14:01Z</time>
      </trkpt>
      <trkpt lat="46.458528516814113" lon="10.335968714207411">
        <ele>1627.649169921875</ele>
        <time>2003-06-07T08:14:11Z</time>
      </trkpt>
      <trkpt lat="46.458622058853507" lon="10.335943149402738">
        <ele>1628.130126953125</ele>
        <time>2003-06-07T08:14:17Z</time>
      </trkpt>
      <trkpt lat="46.458708560094237" lon="10.335916830226779">
        <ele>1629.09130859375</ele>
        <time>2003-06-07T08:14:22Z</time>
      </trkpt>
      <trkpt lat="46.458807969465852" lon="10.335892522707582">
        <ele>1630.052734375</ele>
        <time>2003-06-07T08:14:27Z</time>
      </trkpt>
      <trkpt lat="46.458905199542642" lon="10.33588707447052">
        <ele>1631.01416015625</ele>
        <time>2003-06-07T08:14:33Z</time>
      </trkpt>
      <trkpt lat="46.45899111405015" lon="10.335873747244477">
        <ele>1631.975341796875</ele>
        <time>2003-06-07T08:14:38Z</time>
      </trkpt>
      <trkpt lat="46.459090104326606" lon="10.335869388654828">
        <ele>1632.4560546875</ele>
        <time>2003-06-07T08:14:43Z</time>
      </trkpt>
      <trkpt lat="46.459200158715248" lon="10.335890175774693">
        <ele>1633.417236328125</ele>
        <time>2003-06-07T08:14:48Z</time>
      </trkpt>
      <trkpt lat="46.45930333994329" lon="10.335929319262505">
        <ele>1633.89794921875</ele>
        <time>2003-06-07T08:14:53Z</time>
      </trkpt>
      <trkpt lat="46.459397971630096" lon="10.335988579317927">
        <ele>1635.820556640625</ele>
        <time>2003-06-07T08:14:58Z</time>
      </trkpt>
      <trkpt lat="46.459476677700877" lon="10.336068542674184">
        <ele>1636.30126953125</ele>
        <time>2003-06-07T08:15:03Z</time>
      </trkpt>
      <trkpt lat="46.45954767242074" lon="10.336188403889537">
        <ele>1637.262451171875</ele>
        <time>2003-06-07T08:15:09Z</time>
      </trkpt>
      <trkpt lat="46.459606764838099" lon="10.33628923818469">
        <ele>1638.223876953125</ele>
        <time>2003-06-07T08:15:14Z</time>
      </trkpt>
      <trkpt lat="46.459685890004039" lon="10.33637716434896">
        <ele>1639.18505859375</ele>
        <time>2003-06-07T08:15:19Z</time>
      </trkpt>
      <trkpt lat="46.459774905815721" lon="10.336439860984683">
        <ele>1640.146484375</ele>
        <time>2003-06-07T08:15:24Z</time>
      </trkpt>
      <trkpt lat="46.459866603836417" lon="10.33648269250989">
        <ele>1640.146484375</ele>
        <time>2003-06-07T08:15:29Z</time>
      </trkpt>
      <trkpt lat="46.45996299572289" lon="10.336515801027417">
        <ele>1641.107666015625</ele>
        <time>2003-06-07T08:15:34Z</time>
      </trkpt>
      <trkpt lat="46.460044467821717" lon="10.336545221507549">
        <ele>1641.58837890625</ele>
        <time>2003-06-07T08:15:40Z</time>
      </trkpt>
      <trkpt lat="46.460137842223048" lon="10.336583442986012">
        <ele>1643.0302734375</ele>
        <time>2003-06-07T08:15:46Z</time>
      </trkpt>
      <trkpt lat="46.460216380655766" lon="10.336659383028746">
        <ele>1643.99169921875</ele>
        <time>2003-06-07T08:15:52Z</time>
      </trkpt>
      <trkpt lat="46.460294583812356" lon="10.336755020543933">
        <ele>1644.472412109375</ele>
        <time>2003-06-07T08:15:57Z</time>
      </trkpt>
      <trkpt lat="46.460360968485475" lon="10.33686775714159">
        <ele>1645.433837890625</ele>
        <time>2003-06-07T08:16:02Z</time>
      </trkpt>
      <trkpt lat="46.460430873557925" lon="10.336975213140249">
        <ele>1645.91455078125</ele>
        <time>2003-06-07T08:16:07Z</time>
      </trkpt>
      <trkpt lat="46.460499102249742" lon="10.33709398470819">
        <ele>1646.875732421875</ele>
        <time>2003-06-07T08:16:12Z</time>
      </trkpt>
      <trkpt lat="46.460582166910172" lon="10.337180988863111">
        <ele>1647.3564453125</ele>
        <time>2003-06-07T08:16:18Z</time>
      </trkpt>
      <trkpt lat="46.460675289854407" lon="10.337242847308517">
        <ele>1648.317626953125</ele>
        <time>2003-06-07T08:16:23Z</time>
      </trkpt>
      <trkpt lat="46.460778135806322" lon="10.337297916412354">
        <ele>1648.317626953125</ele>
        <time>2003-06-07T08:16:28Z</time>
      </trkpt>
      <trkpt lat="46.460874862968922" lon="10.337345777079463">
        <ele>1649.279052734375</ele>
        <time>2003-06-07T08:16:33Z</time>
      </trkpt>
      <trkpt lat="46.460983576253057" lon="10.337390033528209">
        <ele>1649.759765625</ele>
        <time>2003-06-07T08:16:38Z</time>
      </trkpt>
      <trkpt lat="46.461081393063068" lon="10.337410233914852">
        <ele>1650.240478515625</ele>
        <time>2003-06-07T08:16:42Z</time>
      </trkpt>
      <trkpt lat="46.461196392774582" lon="10.337424231693149">
        <ele>1649.759765625</ele>
        <time>2003-06-07T08:16:46Z</time>
      </trkpt>
      <trkpt lat="46.461310219019651" lon="10.337463458999991">
        <ele>1649.759765625</ele>
        <time>2003-06-07T08:16:50Z</time>
      </trkpt>
      <trkpt lat="46.461414825171232" lon="10.337521461769938">
        <ele>1650.240478515625</ele>
        <time>2003-06-07T08:16:54Z</time>
      </trkpt>
      <trkpt lat="46.461522532626987" lon="10.337578039616346">
        <ele>1651.20166015625</ele>
        <time>2003-06-07T08:16:58Z</time>
      </trkpt>
      <trkpt lat="46.461609955877066" lon="10.337625565007329">
        <ele>1651.682373046875</ele>
        <time>2003-06-07T08:17:02Z</time>
      </trkpt>
      <trkpt lat="46.461735516786575" lon="10.337601760402322">
        <ele>1652.162841796875</ele>
        <time>2003-06-07T08:17:08Z</time>
      </trkpt>
      <trkpt lat="46.461848923936486" lon="10.337532022967935">
        <ele>1652.6435546875</ele>
        <time>2003-06-07T08:17:13Z</time>
      </trkpt>
      <trkpt lat="46.461957553401589" lon="10.337456753477454">
        <ele>1653.124267578125</ele>
        <time>2003-06-07T08:17:18Z</time>
      </trkpt>
      <trkpt lat="46.462055370211601" lon="10.337378047406673">
        <ele>1654.085693359375</ele>
        <time>2003-06-07T08:17:23Z</time>
      </trkpt>
      <trkpt lat="46.462146984413266" lon="10.337316691875458">
        <ele>1654.566162109375</ele>
        <time>2003-06-07T08:17:28Z</time>
      </trkpt>
      <trkpt lat="46.462221834808588" lon="10.337235471233726">
        <ele>1655.527587890625</ele>
        <time>2003-06-07T08:17:33Z</time>
      </trkpt>
      <trkpt lat="46.462317053228617" lon="10.337161878123879">
        <ele>1656.969482421875</ele>
        <time>2003-06-07T08:17:39Z</time>
      </trkpt>
      <trkpt lat="46.462419312447309" lon="10.337097086012363">
        <ele>1658.411376953125</ele>
        <time>2003-06-07T08:17:45Z</time>
      </trkpt>
      <trkpt lat="46.462500616908073" lon="10.337054841220379">
        <ele>1659.853271484375</ele>
        <time>2003-06-07T08:17:51Z</time>
      </trkpt>
      <trkpt lat="46.46260941401124" lon="10.337006645277143">
        <ele>1661.295654296875</ele>
        <time>2003-06-07T08:17:57Z</time>
      </trkpt>
      <trkpt lat="46.462722150608897" lon="10.336974542587996">
        <ele>1662.737548828125</ele>
        <time>2003-06-07T08:18:03Z</time>
      </trkpt>
      <trkpt lat="46.462820637971163" lon="10.336942188441753">
        <ele>1664.179443359375</ele>
        <time>2003-06-07T08:18:09Z</time>
      </trkpt>
      <trkpt lat="46.462935637682676" lon="10.336911510676146">
        <ele>1665.140869140625</ele>
        <time>2003-06-07T08:18:15Z</time>
      </trkpt>
      <trkpt lat="46.463044937700033" lon="10.336881168186665">
        <ele>1667.0634765625</ele>
        <time>2003-06-07T08:18:22Z</time>
      </trkpt>
      <trkpt lat="46.463151555508375" lon="10.336868679150939">
        <ele>1668.024658203125</ele>
        <time>2003-06-07T08:18:28Z</time>
      </trkpt>
      <trkpt lat="46.463273176923394" lon="10.336837749928236">
        <ele>1669.466796875</ele>
        <time>2003-06-07T08:18:34Z</time>
      </trkpt>
      <trkpt lat="46.463394546881318" lon="10.336814029142261">
        <ele>1669.947265625</ele>
        <time>2003-06-07T08:18:40Z</time>
      </trkpt>
      <trkpt lat="46.463500242680311" lon="10.33680472522974">
        <ele>1670.90869140625</ele>
        <time>2003-06-07T08:18:46Z</time>
      </trkpt>
      <trkpt lat="46.46360476501286" lon="10.336798690259457">
        <ele>1671.869873046875</ele>
        <time>2003-06-07T08:18:52Z</time>
      </trkpt>
      <trkpt lat="46.463700402528048" lon="10.336781339719892">
        <ele>1673.31201171875</ele>
        <time>2003-06-07T08:18:58Z</time>
      </trkpt>
      <trkpt lat="46.463812300935388" lon="10.336749069392681">
        <ele>1673.79248046875</ele>
        <time>2003-06-07T08:19:03Z</time>
      </trkpt>
      <trkpt lat="46.463927049189806" lon="10.336711769923568">
        <ele>1674.75390625</ele>
        <time>2003-06-07T08:19:08Z</time>
      </trkpt>
      <trkpt lat="46.464035511016846" lon="10.336702298372984">
        <ele>1675.234375</ele>
        <time>2003-06-07T08:19:13Z</time>
      </trkpt>
      <trkpt lat="46.464150343090296" lon="10.336710261180997">
        <ele>1675.715087890625</ele>
        <time>2003-06-07T08:19:18Z</time>
      </trkpt>
      <trkpt lat="46.464271293953061" lon="10.336710764095187">
        <ele>1676.196044921875</ele>
        <time>2003-06-07T08:19:23Z</time>
      </trkpt>
      <trkpt lat="46.464383108541369" lon="10.336717888712883">
        <ele>1677.157470703125</ele>
        <time>2003-06-07T08:19:28Z</time>
      </trkpt>
      <trkpt lat="46.464488971978426" lon="10.336731383576989">
        <ele>1678.11865234375</ele>
        <time>2003-06-07T08:19:33Z</time>
      </trkpt>
      <trkpt lat="46.464601373299956" lon="10.336732557043433">
        <ele>1679.079833984375</ele>
        <time>2003-06-07T08:19:38Z</time>
      </trkpt>
      <trkpt lat="46.464699357748032" lon="10.336746051907539">
        <ele>1680.041259765625</ele>
        <time>2003-06-07T08:19:43Z</time>
      </trkpt>
      <trkpt lat="46.464803628623486" lon="10.336751416325569">
        <ele>1680.52197265625</ele>
        <time>2003-06-07T08:19:48Z</time>
      </trkpt>
      <trkpt lat="46.4649064745754" lon="10.33673046156764">
        <ele>1681.483154296875</ele>
        <time>2003-06-07T08:19:53Z</time>
      </trkpt>
      <trkpt lat="46.464922400191426" lon="10.336752338334918">
        <ele>1682.444580078125</ele>
        <time>2003-06-07T08:19:58Z</time>
      </trkpt>
      <trkpt lat="46.465035220608115" lon="10.336727276444435">
        <ele>1683.40576171875</ele>
        <time>2003-06-07T08:20:03Z</time>
      </trkpt>
      <trkpt lat="46.465132534503937" lon="10.336742447689176">
        <ele>1684.3671875</ele>
        <time>2003-06-07T08:20:08Z</time>
      </trkpt>
      <trkpt lat="46.465260945260525" lon="10.336721912026405">
        <ele>1685.80908203125</ele>
        <time>2003-06-07T08:20:14Z</time>
      </trkpt>
      <trkpt lat="46.465365970507264" lon="10.336716547608376">
        <ele>1686.770263671875</ele>
        <time>2003-06-07T08:20:20Z</time>
      </trkpt>
      <trkpt lat="46.465474516153336" lon="10.336689641699195">
        <ele>1687.731689453125</ele>
        <time>2003-06-07T08:20:25Z</time>
      </trkpt>
      <trkpt lat="46.465578703209758" lon="10.336664412170649">
        <ele>1689.173583984375</ele>
        <time>2003-06-07T08:20:30Z</time>
      </trkpt>
      <trkpt lat="46.465678280219436" lon="10.33663859590888">
        <ele>1690.135009765625</ele>
        <time>2003-06-07T08:20:35Z</time>
      </trkpt>
      <trkpt lat="46.465785233303905" lon="10.336601883172989">
        <ele>1690.615478515625</ele>
        <time>2003-06-07T08:20:40Z</time>
      </trkpt>
      <trkpt lat="46.465877182781696" lon="10.336620071902871">
        <ele>1691.09619140625</ele>
        <time>2003-06-07T08:20:46Z</time>
      </trkpt>
      <trkpt lat="46.465955721214414" lon="10.33663566224277">
        <ele>1692.057861328125</ele>
        <time>2003-06-07T08:20:52Z</time>
      </trkpt>
      <trkpt lat="46.466068290174007" lon="10.336632560938597">
        <ele>1692.53857421875</ele>
        <time>2003-06-07T08:20:57Z</time>
      </trkpt>
      <trkpt lat="46.466188738122582" lon="10.336624681949615">
        <ele>1693.499755859375</ele>
        <time>2003-06-07T08:21:02Z</time>
      </trkpt>
      <trkpt lat="46.466309688985348" lon="10.336620826274157">
        <ele>1694.4609375</ele>
        <time>2003-06-07T08:21:07Z</time>
      </trkpt>
      <trkpt lat="46.466423012316227" lon="10.336619485169649">
        <ele>1694.4609375</ele>
        <time>2003-06-07T08:21:12Z</time>
      </trkpt>
      <trkpt lat="46.466536335647106" lon="10.336622670292854">
        <ele>1695.903076171875</ele>
        <time>2003-06-07T08:21:17Z</time>
      </trkpt>
      <trkpt lat="46.466647982597351" lon="10.336641445755959">
        <ele>1695.903076171875</ele>
        <time>2003-06-07T08:21:22Z</time>
      </trkpt>
      <trkpt lat="46.466753091663122" lon="10.336670698598027">
        <ele>1695.903076171875</ele>
        <time>2003-06-07T08:21:27Z</time>
      </trkpt>
      <trkpt lat="46.466851662844419" lon="10.336716128513217">
        <ele>1695.903076171875</ele>
        <time>2003-06-07T08:21:33Z</time>
      </trkpt>
      <trkpt lat="46.46693866699934" lon="10.336801204830408">
        <ele>1695.42236328125</ele>
        <time>2003-06-07T08:21:39Z</time>
      </trkpt>
      <trkpt lat="46.467019133269787" lon="10.336895417422056">
        <ele>1695.42236328125</ele>
        <time>2003-06-07T08:21:45Z</time>
      </trkpt>
      <trkpt lat="46.467070262879133" lon="10.337002035230398">
        <ele>1695.42236328125</ele>
        <time>2003-06-07T08:21:50Z</time>
      </trkpt>
      <trkpt lat="46.467120470479131" lon="10.337138660252094">
        <ele>1695.42236328125</ele>
        <time>2003-06-07T08:21:56Z</time>
      </trkpt>
      <trkpt lat="46.467156931757927" lon="10.337268076837063">
        <ele>1694.941650390625</ele>
        <time>2003-06-07T08:22:01Z</time>
      </trkpt>
      <trkpt lat="46.467202613130212" lon="10.337419286370277">
        <ele>1694.941650390625</ele>
        <time>2003-06-07T08:22:06Z</time>
      </trkpt>
      <trkpt lat="46.467243852093816" lon="10.337537471204996">
        <ele>1694.941650390625</ele>
        <time>2003-06-07T08:22:10Z</time>
      </trkpt>
      <trkpt lat="46.467280564829707" lon="10.337665546685457">
        <ele>1694.941650390625</ele>
        <time>2003-06-07T08:22:15Z</time>
      </trkpt>
      <trkpt lat="46.467312751337886" lon="10.337810385972261">
        <ele>1696.8642578125</ele>
        <time>2003-06-07T08:24:15Z</time>
      </trkpt>
      <trkpt lat="46.467345273122191" lon="10.337993949651718">
        <ele>1696.8642578125</ele>
        <time>2003-06-07T08:24:42Z</time>
      </trkpt>
      <trkpt lat="46.467361869290471" lon="10.338117247447371">
        <ele>1696.8642578125</ele>
        <time>2003-06-07T08:24:47Z</time>
      </trkpt>
      <trkpt lat="46.467355666682124" lon="10.338255297392607">
        <ele>1697.82568359375</ele>
        <time>2003-06-07T08:24:52Z</time>
      </trkpt>
      <trkpt lat="46.467328174039721" lon="10.338380355387926">
        <ele>1698.30615234375</ele>
        <time>2003-06-07T08:24:58Z</time>
      </trkpt>
      <trkpt lat="46.467280481010675" lon="10.338497702032328">
        <ele>1699.267578125</ele>
        <time>2003-06-07T08:25:04Z</time>
      </trkpt>
      <trkpt lat="46.467236643657088" lon="10.338620999827981">
        <ele>1700.70947265625</ele>
        <time>2003-06-07T08:25:10Z</time>
      </trkpt>
      <trkpt lat="46.467187441885471" lon="10.338732898235321">
        <ele>1701.6708984375</ele>
        <time>2003-06-07T08:25:16Z</time>
      </trkpt>
      <trkpt lat="46.467128349468112" lon="10.338834654539824">
        <ele>1702.1513671875</ele>
        <time>2003-06-07T08:25:22Z</time>
      </trkpt>
      <trkpt lat="46.467089038342237" lon="10.338947474956512">
        <ele>1703.11279296875</ele>
        <time>2003-06-07T08:25:29Z</time>
      </trkpt>
      <trkpt lat="46.467065317556262" lon="10.339059876278043">
        <ele>1704.07421875</ele>
        <time>2003-06-07T08:25:36Z</time>
      </trkpt>
      <trkpt lat="46.467058444395661" lon="10.339191472157836">
        <ele>1704.5546875</ele>
        <time>2003-06-07T08:25:42Z</time>
      </trkpt>
      <trkpt lat="46.467068921774626" lon="10.339306555688381">
        <ele>1705.035400390625</ele>
        <time>2003-06-07T08:25:48Z</time>
      </trkpt>
      <trkpt lat="46.467139916494489" lon="10.33936170861125">
        <ele>1705.51611328125</ele>
        <time>2003-06-07T08:25:55Z</time>
      </trkpt>
      <trkpt lat="46.467231865972281" lon="10.339448042213917">
        <ele>1706.9580078125</ele>
        <time>2003-06-07T08:26:04Z</time>
      </trkpt>
      <trkpt lat="46.467336304485798" lon="10.339528592303395">
        <ele>1708.400146484375</ele>
        <time>2003-06-07T08:26:13Z</time>
      </trkpt>
      <trkpt lat="46.467397324740887" lon="10.339654320850968">
        <ele>1709.361572265625</ele>
        <time>2003-06-07T08:26:21Z</time>
      </trkpt>
      <trkpt lat="46.467514336109161" lon="10.339753478765488">
        <ele>1710.32275390625</ele>
        <time>2003-06-07T08:26:30Z</time>
      </trkpt>
      <trkpt lat="46.467648530378938" lon="10.339781222864985">
        <ele>1711.764892578125</ele>
        <time>2003-06-07T08:26:39Z</time>
      </trkpt>
      <trkpt lat="46.467660767957568" lon="10.339653817936778">
        <ele>1713.206787109375</ele>
        <time>2003-06-07T08:26:50Z</time>
      </trkpt>
      <trkpt lat="46.467622043564916" lon="10.339549044147134">
        <ele>1714.16796875</ele>
        <time>2003-06-07T08:26:59Z</time>
      </trkpt>
      <trkpt lat="46.46755289286375" lon="10.339412838220596">
        <ele>1716.5712890625</ele>
        <time>2003-06-07T08:27:09Z</time>
      </trkpt>
      <trkpt lat="46.467510731890798" lon="10.339254084974527">
        <ele>1717.532470703125</ele>
        <time>2003-06-07T08:27:20Z</time>
      </trkpt>
      <trkpt lat="46.467614080756903" lon="10.339271686971188">
        <ele>1718.974609375</ele>
        <time>2003-06-07T08:27:31Z</time>
      </trkpt>
      <trkpt lat="46.467690858989954" lon="10.339345280081034">
        <ele>1720.41650390625</ele>
        <time>2003-06-07T08:27:40Z</time>
      </trkpt>
      <trkpt lat="46.467773001641035" lon="10.339453993365169">
        <ele>1722.339111328125</ele>
        <time>2003-06-07T08:27:48Z</time>
      </trkpt>
      <trkpt lat="46.467879200354218" lon="10.339519791305065">
        <ele>1722.81982421875</ele>
        <time>2003-06-07T08:27:56Z</time>
      </trkpt>
      <trkpt lat="46.468336265534163" lon="10.340016251429915">
        <ele>1722.81982421875</ele>
        <time>2003-06-07T08:29:52Z</time>
      </trkpt>
      <trkpt lat="46.46877883002162" lon="10.340442471206188">
        <ele>1721.8583984375</ele>
        <time>2003-06-07T08:30:21Z</time>
      </trkpt>
      <trkpt lat="46.468149181455374" lon="10.339784072712064">
        <ele>1722.339111328125</ele>
        <time>2003-06-07T08:30:25Z</time>
      </trkpt>
      <trkpt lat="46.46817390806973" lon="10.339814331382513">
        <ele>1721.8583984375</ele>
        <time>2003-06-07T08:30:28Z</time>
      </trkpt>
      <trkpt lat="46.468197964131832" lon="10.33984643407166">
        <ele>1722.339111328125</ele>
        <time>2003-06-07T08:30:31Z</time>
      </trkpt>
      <trkpt lat="46.468282788991928" lon="10.339908879250288">
        <ele>1721.8583984375</ele>
        <time>2003-06-07T08:30:36Z</time>
      </trkpt>
      <trkpt lat="46.468031499534845" lon="10.339596820995212">
        <ele>1726.665283203125</ele>
        <time>2003-06-07T08:36:16Z</time>
      </trkpt>
      <trkpt lat="46.467954972758889" lon="10.339481737464666">
        <ele>1725.703857421875</ele>
        <time>2003-06-07T08:36:19Z</time>
      </trkpt>
      <trkpt lat="46.467904848977923" lon="10.339419208467007">
        <ele>1725.22314453125</ele>
        <time>2003-06-07T08:36:22Z</time>
      </trkpt>
      <trkpt lat="46.467854641377926" lon="10.339352153241634">
        <ele>1725.703857421875</ele>
        <time>2003-06-07T08:36:26Z</time>
      </trkpt>
      <trkpt lat="46.467797392979264" lon="10.339238326996565">
        <ele>1726.1845703125</ele>
        <time>2003-06-07T08:36:31Z</time>
      </trkpt>
      <trkpt lat="46.46807374432683" lon="10.339593635872006">
        <ele>1727.62646484375</ele>
        <time>2003-06-07T08:38:45Z</time>
      </trkpt>
      <trkpt lat="46.467991266399622" lon="10.339500596746802">
        <ele>1728.587890625</ele>
        <time>2003-06-07T08:38:49Z</time>
      </trkpt>
      <trkpt lat="46.468006102368236" lon="10.339537477120757">
        <ele>1728.107177734375</ele>
        <time>2003-06-07T08:40:39Z</time>
      </trkpt>
      <trkpt lat="46.468039378523827" lon="10.339649291709065">
        <ele>1728.107177734375</ele>
        <time>2003-06-07T08:41:04Z</time>
      </trkpt>
      <trkpt lat="46.467990428209305" lon="10.33960796892643">
        <ele>1730.9912109375</ele>
        <time>2003-06-07T08:45:45Z</time>
      </trkpt>
      <trkpt lat="46.46788221783936" lon="10.339566562324762">
        <ele>1729.549072265625</ele>
        <time>2003-06-07T08:45:54Z</time>
      </trkpt>
      <trkpt lat="46.467774761840701" lon="10.33951174467802">
        <ele>1728.587890625</ele>
        <time>2003-06-07T08:46:01Z</time>
      </trkpt>
      <trkpt lat="46.467686919495463" lon="10.339543763548136">
        <ele>1726.665283203125</ele>
        <time>2003-06-07T08:46:07Z</time>
      </trkpt>
      <trkpt lat="46.467738803476095" lon="10.339651135727763">
        <ele>1723.781005859375</ele>
        <time>2003-06-07T08:46:12Z</time>
      </trkpt>
      <trkpt lat="46.467807618901134" lon="10.339744510129094">
        <ele>1723.781005859375</ele>
        <time>2003-06-07T08:46:14Z</time>
      </trkpt>
      <trkpt lat="46.46787827834487" lon="10.339867975562811">
        <ele>1722.339111328125</ele>
        <time>2003-06-07T08:46:16Z</time>
      </trkpt>
      <trkpt lat="46.467952877283096" lon="10.340000577270985">
        <ele>1721.377685546875</ele>
        <time>2003-06-07T08:46:19Z</time>
      </trkpt>
      <trkpt lat="46.467951200902462" lon="10.340087916702032">
        <ele>1721.377685546875</ele>
        <time>2003-06-07T08:46:23Z</time>
      </trkpt>
      <trkpt lat="46.467912141233683" lon="10.340202497318387">
        <ele>1719.455322265625</ele>
        <time>2003-06-07T08:46:29Z</time>
      </trkpt>
      <trkpt lat="46.46783821284771" lon="10.340298386290669">
        <ele>1718.01318359375</ele>
        <time>2003-06-07T08:46:36Z</time>
      </trkpt>
      <trkpt lat="46.467756237834692" lon="10.340342307463288">
        <ele>1715.610107421875</ele>
        <time>2003-06-07T08:46:43Z</time>
      </trkpt>
      <trkpt lat="46.467676609754562" lon="10.340433586388826">
        <ele>1714.648681640625</ele>
        <time>2003-06-07T08:46:51Z</time>
      </trkpt>
      <trkpt lat="46.467596897855401" lon="10.340524781495333">
        <ele>1712.72607421875</ele>
        <time>2003-06-07T08:46:59Z</time>
      </trkpt>
      <trkpt lat="46.467517269775271" lon="10.340616060420871">
        <ele>1709.842041015625</ele>
        <time>2003-06-07T08:47:07Z</time>
      </trkpt>
      <trkpt lat="46.467563370242715" lon="10.34048211760819">
        <ele>1708.880859375</ele>
        <time>2003-06-07T08:47:11Z</time>
      </trkpt>
      <trkpt lat="46.467441748827696" lon="10.338105261325836">
        <ele>1708.880859375</ele>
        <time>2003-06-07T08:47:16Z</time>
      </trkpt>
      <trkpt lat="46.467441245913506" lon="10.338012892752886">
        <ele>1707.91943359375</ele>
        <time>2003-06-07T08:47:21Z</time>
      </trkpt>
      <trkpt lat="46.467619361355901" lon="10.337912812829018">
        <ele>1707.438720703125</ele>
        <time>2003-06-07T08:47:25Z</time>
      </trkpt>
      <trkpt lat="46.467720363289118" lon="10.337849780917168">
        <ele>1706.9580078125</ele>
        <time>2003-06-07T08:47:29Z</time>
      </trkpt>
      <trkpt lat="46.467822957783937" lon="10.33782597631216">
        <ele>1706.9580078125</ele>
        <time>2003-06-07T08:47:32Z</time>
      </trkpt>
      <trkpt lat="46.467917924746871" lon="10.337802087888122">
        <ele>1706.9580078125</ele>
        <time>2003-06-07T08:47:35Z</time>
      </trkpt>
      <trkpt lat="46.468006437644362" lon="10.337789263576269">
        <ele>1706.9580078125</ele>
        <time>2003-06-07T08:47:38Z</time>
      </trkpt>
      <trkpt lat="46.468097716569901" lon="10.3377756010741">
        <ele>1707.438720703125</ele>
        <time>2003-06-07T08:47:41Z</time>
      </trkpt>
      <trkpt lat="46.468191845342517" lon="10.337763782590628">
        <ele>1707.91943359375</ele>
        <time>2003-06-07T08:47:44Z</time>
      </trkpt>
      <trkpt lat="46.468277173116803" lon="10.337745677679777">
        <ele>1707.438720703125</ele>
        <time>2003-06-07T08:47:47Z</time>
      </trkpt>
      <trkpt lat="46.468373145908117" lon="10.337727069854736">
        <ele>1707.438720703125</ele>
        <time>2003-06-07T08:47:50Z</time>
      </trkpt>
      <trkpt lat="46.468462748453021" lon="10.337691446766257">
        <ele>1707.438720703125</ele>
        <time>2003-06-07T08:47:53Z</time>
      </trkpt>
      <trkpt lat="46.468563415110111" lon="10.337658086791635">
        <ele>1707.91943359375</ele>
        <time>2003-06-07T08:47:56Z</time>
      </trkpt>
      <trkpt lat="46.468666428700089" lon="10.337628247216344">
        <ele>1707.91943359375</ele>
        <time>2003-06-07T08:47:59Z</time>
      </trkpt>
      <trkpt lat="46.468763994053006" lon="10.337603520601988">
        <ele>1707.91943359375</ele>
        <time>2003-06-07T08:48:02Z</time>
      </trkpt>
      <trkpt lat="46.468883939087391" lon="10.337566221132874">
        <ele>1707.91943359375</ele>
        <time>2003-06-07T08:48:06Z</time>
      </trkpt>
      <trkpt lat="46.468998938798904" lon="10.337526071816683">
        <ele>1708.400146484375</ele>
        <time>2003-06-07T08:48:10Z</time>
      </trkpt>
      <trkpt lat="46.469083596020937" lon="10.337497740983963">
        <ele>1708.400146484375</ele>
        <time>2003-06-07T08:48:13Z</time>
      </trkpt>
      <trkpt lat="46.469195913523436" lon="10.337471589446068">
        <ele>1707.91943359375</ele>
        <time>2003-06-07T08:48:17Z</time>
      </trkpt>
      <trkpt lat="46.469304878264666" lon="10.337450550869107">
        <ele>1707.91943359375</ele>
        <time>2003-06-07T08:48:21Z</time>
      </trkpt>
      <trkpt lat="46.469402778893709" lon="10.337412245571613">
        <ele>1707.438720703125</ele>
        <time>2003-06-07T08:48:25Z</time>
      </trkpt>
      <trkpt lat="46.469526747241616" lon="10.337363462895155">
        <ele>1707.91943359375</ele>
        <time>2003-06-07T08:48:29Z</time>
      </trkpt>
      <trkpt lat="46.469625988975167" lon="10.3373265825212">
        <ele>1707.91943359375</ele>
        <time>2003-06-07T08:48:32Z</time>
      </trkpt>
      <trkpt lat="46.469711484387517" lon="10.337292887270451">
        <ele>1707.438720703125</ele>
        <time>2003-06-07T08:48:35Z</time>
      </trkpt>
      <trkpt lat="46.469825897365808" lon="10.337254330515862">
        <ele>1706.9580078125</ele>
        <time>2003-06-07T08:48:39Z</time>
      </trkpt>
      <trkpt lat="46.469918265938759" lon="10.33721761777997">
        <ele>1706.9580078125</ele>
        <time>2003-06-07T08:48:43Z</time>
      </trkpt>
      <trkpt lat="46.470010466873646" lon="10.33717755228281">
        <ele>1706.9580078125</ele>
        <time>2003-06-07T08:48:47Z</time>
      </trkpt>
      <trkpt lat="46.470102667808533" lon="10.337137402966619">
        <ele>1707.438720703125</ele>
        <time>2003-06-07T08:48:51Z</time>
      </trkpt>
      <trkpt lat="46.47019486874342" lon="10.337097253650427">
        <ele>1706.9580078125</ele>
        <time>2003-06-07T08:48:55Z</time>
      </trkpt>
      <trkpt lat="46.470286985859275" lon="10.337057188153267">
        <ele>1706.477294921875</ele>
        <time>2003-06-07T08:48:59Z</time>
      </trkpt>
      <trkpt lat="46.470211464911699" lon="10.337017038837075">
        <ele>1705.51611328125</ele>
        <time>2003-06-07T08:49:06Z</time>
      </trkpt>
      <trkpt lat="46.470041563734412" lon="10.336923496797681">
        <ele>1705.035400390625</ele>
        <time>2003-06-07T08:49:17Z</time>
      </trkpt>
      <trkpt lat="46.46949958987534" lon="10.337086021900177">
        <ele>1707.438720703125</ele>
        <time>2003-06-07T08:54:23Z</time>
      </trkpt>
      <trkpt lat="46.469547366723418" lon="10.337222227826715">
        <ele>1708.400146484375</ele>
        <time>2003-06-07T08:54:33Z</time>
      </trkpt>
      <trkpt lat="46.469617942348123" lon="10.337335970252752">
        <ele>1708.400146484375</ele>
        <time>2003-06-07T08:54:39Z</time>
      </trkpt>
      <trkpt lat="46.469704695045948" lon="10.337415682151914">
        <ele>1708.880859375</ele>
        <time>2003-06-07T08:54:48Z</time>
      </trkpt>
      <trkpt lat="46.469601010903716" lon="10.337468488141894">
        <ele>1710.803466796875</ele>
        <time>2003-06-07T08:55:30Z</time>
      </trkpt>
      <trkpt lat="46.469507720321417" lon="10.337485838681459">
        <ele>1710.803466796875</ele>
        <time>2003-06-07T08:55:45Z</time>
      </trkpt>
      <trkpt lat="46.469374028965831" lon="10.337513079866767">
        <ele>1710.803466796875</ele>
        <time>2003-06-07T08:55:55Z</time>
      </trkpt>
      <trkpt lat="46.469230363145471" lon="10.337540823966265">
        <ele>1710.32275390625</ele>
        <time>2003-06-07T08:56:04Z</time>
      </trkpt>
      <trkpt lat="46.467449460178614" lon="10.337909962981939">
        <ele>1711.2841796875</ele>
        <time>2003-06-07T08:56:07Z</time>
      </trkpt>
      <trkpt lat="46.467320462688804" lon="10.337751628831029">
        <ele>1711.764892578125</ele>
        <time>2003-06-07T08:56:11Z</time>
      </trkpt>
      <trkpt lat="46.467264806851745" lon="10.337616596370935">
        <ele>1711.764892578125</ele>
        <time>2003-06-07T08:56:15Z</time>
      </trkpt>
      <trkpt lat="46.467202110216022" lon="10.337420124560595">
        <ele>1711.764892578125</ele>
        <time>2003-06-07T08:56:19Z</time>
      </trkpt>
      <trkpt lat="46.467160871252418" lon="10.337280062958598">
        <ele>1711.2841796875</ele>
        <time>2003-06-07T08:56:22Z</time>
      </trkpt>
      <trkpt lat="46.467122985050082" lon="10.33713161945343">
        <ele>1711.2841796875</ele>
        <time>2003-06-07T08:56:26Z</time>
      </trkpt>
      <trkpt lat="46.467087948694825" lon="10.336994659155607">
        <ele>1711.2841796875</ele>
        <time>2003-06-07T08:56:31Z</time>
      </trkpt>
      <trkpt lat="46.467051822692156" lon="10.336874043568969">
        <ele>1711.764892578125</ele>
        <time>2003-06-07T08:56:36Z</time>
      </trkpt>
      <trkpt lat="46.467017792165279" lon="10.33673825673759">
        <ele>1711.764892578125</ele>
        <time>2003-06-07T08:56:42Z</time>
      </trkpt>
      <trkpt lat="46.467018965631723" lon="10.336602637544274">
        <ele>1712.72607421875</ele>
        <time>2003-06-07T08:56:49Z</time>
      </trkpt>
      <trkpt lat="46.46701829507947" lon="10.336466934531927">
        <ele>1714.648681640625</ele>
        <time>2003-06-07T08:56:57Z</time>
      </trkpt>
      <trkpt lat="46.466944785788655" lon="10.336386300623417">
        <ele>1720.897216796875</ele>
        <time>2003-06-07T08:57:05Z</time>
      </trkpt>
      <trkpt lat="46.466852249577641" lon="10.336328381672502">
        <ele>1717.052001953125</ele>
        <time>2003-06-07T08:57:12Z</time>
      </trkpt>
      <trkpt lat="46.466765329241753" lon="10.33628580160439">
        <ele>1717.052001953125</ele>
        <time>2003-06-07T08:57:18Z</time>
      </trkpt>
      <trkpt lat="46.466676732525229" lon="10.336234169080853">
        <ele>1718.01318359375</ele>
        <time>2003-06-07T08:57:24Z</time>
      </trkpt>
      <trkpt lat="46.466571372002363" lon="10.336187733337283">
        <ele>1718.974609375</ele>
        <time>2003-06-07T08:57:30Z</time>
      </trkpt>
      <trkpt lat="46.466471962630749" lon="10.336152194067836">
        <ele>1719.935791015625</ele>
        <time>2003-06-07T08:57:36Z</time>
      </trkpt>
      <trkpt lat="46.466381940990686" lon="10.336129982024431">
        <ele>1720.41650390625</ele>
        <time>2003-06-07T08:57:42Z</time>
      </trkpt>
      <trkpt lat="46.466282950714231" lon="10.336096789687872">
        <ele>1721.377685546875</ele>
        <time>2003-06-07T08:57:50Z</time>
      </trkpt>
      <trkpt lat="46.466184798628092" lon="10.336078852415085">
        <ele>1721.8583984375</ele>
        <time>2003-06-07T08:57:58Z</time>
      </trkpt>
      <trkpt lat="46.466089161112905" lon="10.336046162992716">
        <ele>1723.781005859375</ele>
        <time>2003-06-07T08:58:06Z</time>
      </trkpt>
      <trkpt lat="46.466002073138952" lon="10.336010120809078">
        <ele>1724.261962890625</ele>
        <time>2003-06-07T08:58:14Z</time>
      </trkpt>
      <trkpt lat="46.465904926881194" lon="10.335967792198062">
        <ele>1726.1845703125</ele>
        <time>2003-06-07T08:58:22Z</time>
      </trkpt>
      <trkpt lat="46.465811971575022" lon="10.335911298170686">
        <ele>1728.107177734375</ele>
        <time>2003-06-07T08:58:31Z</time>
      </trkpt>
      <trkpt lat="46.465718848630786" lon="10.335832843557">
        <ele>1729.068359375</ele>
        <time>2003-06-07T08:58:40Z</time>
      </trkpt>
      <trkpt lat="46.465636622160673" lon="10.335762603208423">
        <ele>1730.9912109375</ele>
        <time>2003-06-07T08:58:49Z</time>
      </trkpt>
      <trkpt lat="46.465551126748323" lon="10.335697559639812">
        <ele>1733.875</ele>
        <time>2003-06-07T08:58:58Z</time>
      </trkpt>
      <trkpt lat="46.465468816459179" lon="10.335647016763687">
        <ele>1736.2783203125</ele>
        <time>2003-06-07T08:59:06Z</time>
      </trkpt>
      <trkpt lat="46.465377705171704" lon="10.335573675110936">
        <ele>1737.239501953125</ele>
        <time>2003-06-07T08:59:14Z</time>
      </trkpt>
      <trkpt lat="46.46529933437705" lon="10.335498573258519">
        <ele>1739.162109375</ele>
        <time>2003-06-07T08:59:24Z</time>
      </trkpt>
      <trkpt lat="46.465211156755686" lon="10.335417604073882">
        <ele>1742.04638671875</ele>
        <time>2003-06-07T08:59:34Z</time>
      </trkpt>
      <trkpt lat="46.465127421543002" lon="10.33533638343215">
        <ele>1743.48828125</ele>
        <time>2003-06-07T08:59:44Z</time>
      </trkpt>
      <trkpt lat="46.465047039091587" lon="10.335290785878897">
        <ele>1745.8916015625</ele>
        <time>2003-06-07T08:59:53Z</time>
      </trkpt>
      <trkpt lat="46.464964058250189" lon="10.335227837786078">
        <ele>1747.33349609375</ele>
        <time>2003-06-07T09:00:02Z</time>
      </trkpt>
      <trkpt lat="46.465031029656529" lon="10.3351731877774">
        <ele>1748.775390625</ele>
        <time>2003-06-07T09:00:21Z</time>
      </trkpt>
      <trkpt lat="46.465150807052851" lon="10.335149299353361">
        <ele>1749.73681640625</ele>
        <time>2003-06-07T09:00:31Z</time>
      </trkpt>
      <trkpt lat="46.465454734861851" lon="10.335095152258873">
        <ele>1753.101318359375</ele>
        <time>2003-06-07T09:01:28Z</time>
      </trkpt>
      <trkpt lat="46.465592700988054" lon="10.335035305470228">
        <ele>1755.504638671875</ele>
        <time>2003-06-07T09:01:40Z</time>
      </trkpt>
      <trkpt lat="46.46570635959506" lon="10.334973698481917">
        <ele>1756.94677734375</ele>
        <time>2003-06-07T09:01:48Z</time>
      </trkpt>
      <trkpt lat="46.465820940211415" lon="10.334909660741687">
        <ele>1758.388671875</ele>
        <time>2003-06-07T09:01:56Z</time>
      </trkpt>
      <trkpt lat="46.465935185551643" lon="10.334855513647199">
        <ele>1758.869384765625</ele>
        <time>2003-06-07T09:02:04Z</time>
      </trkpt>
      <trkpt lat="46.466037528589368" lon="10.334816202521324">
        <ele>1760.311279296875</ele>
        <time>2003-06-07T09:02:12Z</time>
      </trkpt>
      <trkpt lat="46.466149343177676" lon="10.334784351289272">
        <ele>1761.75341796875</ele>
        <time>2003-06-07T09:02:21Z</time>
      </trkpt>
      <trkpt lat="46.466260654851794" lon="10.334786362946033">
        <ele>1763.67578125</ele>
        <time>2003-06-07T09:02:30Z</time>
      </trkpt>
      <trkpt lat="46.466362494975328" lon="10.33481695689261">
        <ele>1764.63720703125</ele>
        <time>2003-06-07T09:02:38Z</time>
      </trkpt>
      <trkpt lat="46.466458970680833" lon="10.334835899993777">
        <ele>1766.559814453125</ele>
        <time>2003-06-07T09:02:47Z</time>
      </trkpt>
      <trkpt lat="46.466569947078824" lon="10.334855346009135">
        <ele>1768.482421875</ele>
        <time>2003-06-07T09:02:57Z</time>
      </trkpt>
      <trkpt lat="46.466672206297517" lon="10.33484922721982">
        <ele>1768.963134765625</ele>
        <time>2003-06-07T09:03:06Z</time>
      </trkpt>
      <trkpt lat="46.46677253767848" lon="10.334844449535012">
        <ele>1770.8857421875</ele>
        <time>2003-06-07T09:03:14Z</time>
      </trkpt>
      <trkpt lat="46.466871863231063" lon="10.33482575789094">
        <ele>1771.846923828125</ele>
        <time>2003-06-07T09:03:22Z</time>
      </trkpt>
      <trkpt lat="46.466950820758939" lon="10.334743447601795">
        <ele>1773.289306640625</ele>
        <time>2003-06-07T09:03:30Z</time>
      </trkpt>
      <trkpt lat="46.467034304514527" lon="10.334644373506308">
        <ele>1774.25048828125</ele>
        <time>2003-06-07T09:03:40Z</time>
      </trkpt>
      <trkpt lat="46.467115692794323" lon="10.334565667435527">
        <ele>1777.614990234375</ele>
        <time>2003-06-07T09:03:55Z</time>
      </trkpt>
      <trkpt lat="46.467208145186305" lon="10.334521327167749">
        <ele>1778.576416015625</ele>
        <time>2003-06-07T09:04:10Z</time>
      </trkpt>
      <trkpt lat="46.467315685003996" lon="10.334481261670589">
        <ele>1779.53759765625</ele>
        <time>2003-06-07T09:04:20Z</time>
      </trkpt>
      <trkpt lat="46.467425236478448" lon="10.334437675774097">
        <ele>1780.979736328125</ele>
        <time>2003-06-07T09:04:28Z</time>
      </trkpt>
      <trkpt lat="46.467522634193301" lon="10.3344168048352">
        <ele>1781.460205078125</ele>
        <time>2003-06-07T09:04:36Z</time>
      </trkpt>
      <trkpt lat="46.467666886746883" lon="10.334352431818843">
        <ele>1783.3828125</ele>
        <time>2003-06-07T09:04:46Z</time>
      </trkpt>
      <trkpt lat="46.467792531475425" lon="10.334302475675941">
        <ele>1783.3828125</ele>
        <time>2003-06-07T09:04:55Z</time>
      </trkpt>
      <trkpt lat="46.467916332185268" lon="10.334271630272269">
        <ele>1784.34423828125</ele>
        <time>2003-06-07T09:05:05Z</time>
      </trkpt>
      <trkpt lat="46.468027895316482" lon="10.334227792918682">
        <ele>1785.7861328125</ele>
        <time>2003-06-07T09:05:14Z</time>
      </trkpt>
      <trkpt lat="46.468134177848697" lon="10.334165599197149">
        <ele>1788.189697265625</ele>
        <time>2003-06-07T09:05:23Z</time>
      </trkpt>
      <trkpt lat="46.468231994658709" lon="10.334102064371109">
        <ele>1790.5927734375</ele>
        <time>2003-06-07T09:05:32Z</time>
      </trkpt>
      <trkpt lat="46.468313466757536" lon="10.333993602544069">
        <ele>1791.55419921875</ele>
        <time>2003-06-07T09:05:42Z</time>
      </trkpt>
      <trkpt lat="46.468379683792591" lon="10.333875501528382">
        <ele>1793.476806640625</ele>
        <time>2003-06-07T09:05:52Z</time>
      </trkpt>
      <trkpt lat="46.46845436654985" lon="10.333767291158438">
        <ele>1795.880126953125</ele>
        <time>2003-06-07T09:06:02Z</time>
      </trkpt>
      <trkpt lat="46.468531563878059" lon="10.333667127415538">
        <ele>1797.802734375</ele>
        <time>2003-06-07T09:06:12Z</time>
      </trkpt>
      <trkpt lat="46.468605156987906" lon="10.333563275635242">
        <ele>1799.24462890625</ele>
        <time>2003-06-07T09:06:22Z</time>
      </trkpt>
      <trkpt lat="46.468677744269371" lon="10.333465123549104">
        <ele>1801.167236328125</ele>
        <time>2003-06-07T09:06:32Z</time>
      </trkpt>
      <trkpt lat="46.468747816979885" lon="10.333367474377155">
        <ele>1803.570556640625</ele>
        <time>2003-06-07T09:06:42Z</time>
      </trkpt>
      <trkpt lat="46.468839850276709" lon="10.333295473828912">
        <ele>1804.531982421875</ele>
        <time>2003-06-07T09:06:52Z</time>
      </trkpt>
      <trkpt lat="46.468913527205586" lon="10.333226155489683">
        <ele>1805.493408203125</ele>
        <time>2003-06-07T09:07:01Z</time>
      </trkpt>
      <trkpt lat="46.468991478905082" lon="10.333142671734095">
        <ele>1806.935302734375</ele>
        <time>2003-06-07T09:07:11Z</time>
      </trkpt>
      <trkpt lat="46.469060378149152" lon="10.333058098331094">
        <ele>1809.819091796875</ele>
        <time>2003-06-07T09:07:21Z</time>
      </trkpt>
      <trkpt lat="46.469118380919099" lon="10.332951229065657">
        <ele>1812.222412109375</ele>
        <time>2003-06-07T09:07:31Z</time>
      </trkpt>
      <trkpt lat="46.469178982079029" lon="10.332851484417915">
        <ele>1814.14501953125</ele>
        <time>2003-06-07T09:07:40Z</time>
      </trkpt>
      <trkpt lat="46.469248970970511" lon="10.332757188007236">
        <ele>1815.587158203125</ele>
        <time>2003-06-07T09:07:50Z</time>
      </trkpt>
      <trkpt lat="46.469324827194214" lon="10.33267579972744">
        <ele>1817.509521484375</ele>
        <time>2003-06-07T09:08:00Z</time>
      </trkpt>
      <trkpt lat="46.469416441395879" lon="10.332590639591217">
        <ele>1819.432373046875</ele>
        <time>2003-06-07T09:08:11Z</time>
      </trkpt>
      <trkpt lat="46.469491710886359" lon="10.33250036649406">
        <ele>1822.31640625</ele>
        <time>2003-06-07T09:08:21Z</time>
      </trkpt>
      <trkpt lat="46.469553066417575" lon="10.332400538027287">
        <ele>1823.75830078125</ele>
        <time>2003-06-07T09:08:30Z</time>
      </trkpt>
      <trkpt lat="46.469610398635268" lon="10.332300709560513">
        <ele>1825.2001953125</ele>
        <time>2003-06-07T09:08:39Z</time>
      </trkpt>
      <trkpt lat="46.469687595963478" lon="10.332221668213606">
        <ele>1826.642333984375</ele>
        <time>2003-06-07T09:08:48Z</time>
      </trkpt>
      <trkpt lat="46.469761021435261" lon="10.332134244963527">
        <ele>1828.56494140625</ele>
        <time>2003-06-07T09:08:58Z</time>
      </trkpt>
      <trkpt lat="46.469826316460967" lon="10.332025531679392">
        <ele>1830.487548828125</ele>
        <time>2003-06-07T09:09:08Z</time>
      </trkpt>
      <trkpt lat="46.469873925670981" lon="10.331906760111451">
        <ele>1832.41015625</ele>
        <time>2003-06-07T09:09:17Z</time>
      </trkpt>
      <trkpt lat="46.46994274109602" lon="10.331809530034661">
        <ele>1833.85205078125</ele>
        <time>2003-06-07T09:09:26Z</time>
      </trkpt>
      <trkpt lat="46.470009293407202" lon="10.331695033237338">
        <ele>1835.774658203125</ele>
        <time>2003-06-07T09:09:36Z</time>
      </trkpt>
      <trkpt lat="46.470076432451606" lon="10.331579865887761">
        <ele>1836.255615234375</ele>
        <time>2003-06-07T09:09:45Z</time>
      </trkpt>
      <trkpt lat="46.470145583152771" lon="10.33148892223835">
        <ele>1839.139404296875</ele>
        <time>2003-06-07T09:11:19Z</time>
      </trkpt>
      <trkpt lat="46.470200484618545" lon="10.331354895606637">
        <ele>1839.139404296875</ele>
        <time>2003-06-07T09:11:26Z</time>
      </trkpt>
      <trkpt lat="46.470252955332398" lon="10.331234196200967">
        <ele>1840.100830078125</ele>
        <time>2003-06-07T09:11:31Z</time>
      </trkpt>
      <trkpt lat="46.470308359712362" lon="10.33111265860498">
        <ele>1840.100830078125</ele>
        <time>2003-06-07T09:11:36Z</time>
      </trkpt>
      <trkpt lat="46.470372565090656" lon="10.330993300303817">
        <ele>1840.581298828125</ele>
        <time>2003-06-07T09:11:42Z</time>
      </trkpt>
      <trkpt lat="46.470435261726379" lon="10.330879976972938">
        <ele>1841.542724609375</ele>
        <time>2003-06-07T09:11:48Z</time>
      </trkpt>
      <trkpt lat="46.470502316951752" lon="10.330795403569937">
        <ele>1842.504150390625</ele>
        <time>2003-06-07T09:11:54Z</time>
      </trkpt>
      <trkpt lat="46.470637014135718" lon="10.330724660307169">
        <ele>1842.0234375</ele>
        <time>2003-06-07T09:12:40Z</time>
      </trkpt>
      <trkpt lat="46.470730053260922" lon="10.330645032227039">
        <ele>1841.542724609375</ele>
        <time>2003-06-07T09:12:44Z</time>
      </trkpt>
      <trkpt lat="46.470801886171103" lon="10.330530032515526">
        <ele>1841.542724609375</ele>
        <time>2003-06-07T09:12:47Z</time>
      </trkpt>
      <trkpt lat="46.470872964709997" lon="10.330415787175298">
        <ele>1841.542724609375</ele>
        <time>2003-06-07T09:12:50Z</time>
      </trkpt>
      <trkpt lat="46.470899870619178" lon="10.330277904868126">
        <ele>1841.06201171875</ele>
        <time>2003-06-07T09:12:55Z</time>
      </trkpt>
      <trkpt lat="46.470949575304985" lon="10.330144800245762">
        <ele>1841.06201171875</ele>
        <time>2003-06-07T09:13:00Z</time>
      </trkpt>
      <trkpt lat="46.470992155373096" lon="10.330008510500193">
        <ele>1841.542724609375</ele>
        <time>2003-06-07T09:13:05Z</time>
      </trkpt>
      <trkpt lat="46.471045129001141" lon="10.329894348978996">
        <ele>1842.984619140625</ele>
        <time>2003-06-07T09:13:10Z</time>
      </trkpt>
      <trkpt lat="46.471118722110987" lon="10.329807261005044">
        <ele>1844.426513671875</ele>
        <time>2003-06-07T09:13:17Z</time>
      </trkpt>
      <trkpt lat="46.471176389604807" lon="10.329715646803379">
        <ele>1846.829833984375</ele>
        <time>2003-06-07T09:13:25Z</time>
      </trkpt>
      <trkpt lat="46.471231542527676" lon="10.329594612121582">
        <ele>1847.791259765625</ele>
        <time>2003-06-07T09:13:32Z</time>
      </trkpt>
      <trkpt lat="46.471273871138692" lon="10.329476846382022">
        <ele>1848.271728515625</ele>
        <time>2003-06-07T09:13:38Z</time>
      </trkpt>
      <trkpt lat="46.471323575824499" lon="10.329350279644132">
        <ele>1848.75244140625</ele>
        <time>2003-06-07T09:13:44Z</time>
      </trkpt>
      <trkpt lat="46.471381410956383" lon="10.329225221648812">
        <ele>1849.233154296875</ele>
        <time>2003-06-07T09:13:50Z</time>
      </trkpt>
      <trkpt lat="46.471437150612473" lon="10.32912296243012">
        <ele>1849.7138671875</ele>
        <time>2003-06-07T09:13:55Z</time>
      </trkpt>
      <trkpt lat="46.471479898318648" lon="10.329001508653164">
        <ele>1849.7138671875</ele>
        <time>2003-06-07T09:14:00Z</time>
      </trkpt>
      <trkpt lat="46.471522897481918" lon="10.328877540305257">
        <ele>1850.675048828125</ele>
        <time>2003-06-07T09:14:05Z</time>
      </trkpt>
      <trkpt lat="46.471570674329996" lon="10.328760780394077">
        <ele>1851.15576171875</ele>
        <time>2003-06-07T09:14:10Z</time>
      </trkpt>
      <trkpt lat="46.47161384113133" lon="10.32863438129425">
        <ele>1852.1171875</ele>
        <time>2003-06-07T09:14:15Z</time>
      </trkpt>
      <trkpt lat="46.471664467826486" lon="10.328530445694923">
        <ele>1852.1171875</ele>
        <time>2003-06-07T09:14:20Z</time>
      </trkpt>
      <trkpt lat="46.471720039844513" lon="10.328402370214462">
        <ele>1853.07861328125</ele>
        <time>2003-06-07T09:14:25Z</time>
      </trkpt>
      <trkpt lat="46.471786592155695" lon="10.328302290290594">
        <ele>1853.559326171875</ele>
        <time>2003-06-07T09:14:30Z</time>
      </trkpt>
      <trkpt lat="46.471853982657194" lon="10.328196259215474">
        <ele>1854.0400390625</ele>
        <time>2003-06-07T09:14:35Z</time>
      </trkpt>
      <trkpt lat="46.47189631126821" lon="10.328049156814814">
        <ele>1854.5205078125</ele>
        <time>2003-06-07T09:14:40Z</time>
      </trkpt>
      <trkpt lat="46.471939897164702" lon="10.327911274507642">
        <ele>1855.001220703125</ele>
        <time>2003-06-07T09:14:45Z</time>
      </trkpt>
      <trkpt lat="46.471993289887905" lon="10.327798454090953">
        <ele>1855.48193359375</ele>
        <time>2003-06-07T09:14:50Z</time>
      </trkpt>
      <trkpt lat="46.472042491659522" lon="10.327696278691292">
        <ele>1855.96240234375</ele>
        <time>2003-06-07T09:14:56Z</time>
      </trkpt>
      <trkpt lat="46.472074259072542" lon="10.327563928440213">
        <ele>1854.0400390625</ele>
        <time>2003-06-07T09:15:03Z</time>
      </trkpt>
      <trkpt lat="46.472067218273878" lon="10.327379861846566">
        <ele>1852.1171875</ele>
        <time>2003-06-07T09:15:08Z</time>
      </trkpt>
      <trkpt lat="46.472063111141324" lon="10.327224042266607">
        <ele>1849.7138671875</ele>
        <time>2003-06-07T09:15:12Z</time>
      </trkpt>
      <trkpt lat="46.472046514973044" lon="10.327026648446918">
        <ele>1849.233154296875</ele>
        <time>2003-06-07T09:15:16Z</time>
      </trkpt>
      <trkpt lat="46.472034277394414" lon="10.326823638752103">
        <ele>1849.7138671875</ele>
        <time>2003-06-07T09:15:20Z</time>
      </trkpt>
      <trkpt lat="46.472032014280558" lon="10.326650720089674">
        <ele>1848.271728515625</ele>
        <time>2003-06-07T09:15:24Z</time>
      </trkpt>
      <trkpt lat="46.472030254080892" lon="10.326520968228579">
        <ele>1848.75244140625</ele>
        <time>2003-06-07T09:15:27Z</time>
      </trkpt>
      <trkpt lat="46.472027990967035" lon="10.32634804956615">
        <ele>1848.75244140625</ele>
        <time>2003-06-07T09:15:31Z</time>
      </trkpt>
      <trkpt lat="46.47202480584383" lon="10.326163144782186">
        <ele>1849.233154296875</ele>
        <time>2003-06-07T09:15:35Z</time>
      </trkpt>
      <trkpt lat="46.472014244645834" lon="10.325974971055984">
        <ele>1848.75244140625</ele>
        <time>2003-06-07T09:15:39Z</time>
      </trkpt>
      <trkpt lat="46.472010556608438" lon="10.325812781229615">
        <ele>1849.233154296875</ele>
        <time>2003-06-07T09:15:43Z</time>
      </trkpt>
      <trkpt lat="46.472006868571043" lon="10.325650591403246">
        <ele>1850.194580078125</ele>
        <time>2003-06-07T09:15:47Z</time>
      </trkpt>
      <trkpt lat="46.47200183942914" lon="10.325462836772203">
        <ele>1851.15576171875</ele>
        <time>2003-06-07T09:15:52Z</time>
      </trkpt>
      <trkpt lat="46.472006198018789" lon="10.325277093797922">
        <ele>1852.1171875</ele>
        <time>2003-06-07T09:15:58Z</time>
      </trkpt>
      <trkpt lat="46.472007790580392" lon="10.325125884264708">
        <ele>1852.597900390625</ele>
        <time>2003-06-07T09:16:03Z</time>
      </trkpt>
      <trkpt lat="46.47201114334166" lon="10.324945505708456">
        <ele>1853.559326171875</ele>
        <time>2003-06-07T09:16:09Z</time>
      </trkpt>
      <trkpt lat="46.472012149170041" lon="10.324770072475076">
        <ele>1855.001220703125</ele>
        <time>2003-06-07T09:16:15Z</time>
      </trkpt>
      <trkpt lat="46.472019944339991" lon="10.324608972296119">
        <ele>1855.001220703125</ele>
        <time>2003-06-07T09:16:21Z</time>
      </trkpt>
      <trkpt lat="46.472005024552345" lon="10.324446950107813">
        <ele>1855.001220703125</ele>
        <time>2003-06-07T09:16:26Z</time>
      </trkpt>
      <trkpt lat="46.472016926854849" lon="10.324283586815">
        <ele>1854.5205078125</ele>
        <time>2003-06-07T09:16:31Z</time>
      </trkpt>
      <trkpt lat="46.472049951553345" lon="10.324155343696475">
        <ele>1855.001220703125</ele>
        <time>2003-06-07T09:16:35Z</time>
      </trkpt>
      <trkpt lat="46.472082640975714" lon="10.324016707018018">
        <ele>1855.001220703125</ele>
        <time>2003-06-07T09:16:40Z</time>
      </trkpt>
      <trkpt lat="46.472101081162691" lon="10.323872370645404">
        <ele>1855.96240234375</ele>
        <time>2003-06-07T09:16:45Z</time>
      </trkpt>
      <trkpt lat="46.472127148881555" lon="10.323727112263441">
        <ele>1856.923828125</ele>
        <time>2003-06-07T09:16:51Z</time>
      </trkpt>
      <trkpt lat="46.472168639302254" lon="10.323584955185652">
        <ele>1857.404541015625</ele>
        <time>2003-06-07T09:16:57Z</time>
      </trkpt>
      <trkpt lat="46.472207866609097" lon="10.323445899412036">
        <ele>1857.404541015625</ele>
        <time>2003-06-07T09:17:03Z</time>
      </trkpt>
      <trkpt lat="46.472245417535305" lon="10.323298880830407">
        <ele>1856.923828125</ele>
        <time>2003-06-07T09:17:09Z</time>
      </trkpt>
      <trkpt lat="46.472280034795403" lon="10.323156304657459">
        <ele>1857.88525390625</ele>
        <time>2003-06-07T09:17:15Z</time>
      </trkpt>
      <trkpt lat="46.472314735874534" lon="10.323013812303543">
        <ele>1858.36572265625</ele>
        <time>2003-06-07T09:17:21Z</time>
      </trkpt>
      <trkpt lat="46.472340300679207" lon="10.322870062664151">
        <ele>1859.8076171875</ele>
        <time>2003-06-07T09:17:27Z</time>
      </trkpt>
      <trkpt lat="46.472369721159339" lon="10.322735449299216">
        <ele>1860.76904296875</ele>
        <time>2003-06-07T09:17:33Z</time>
      </trkpt>
      <trkpt lat="46.472399057820439" lon="10.322600835934281">
        <ele>1860.76904296875</ele>
        <time>2003-06-07T09:17:39Z</time>
      </trkpt>
      <trkpt lat="46.472418336197734" lon="10.322441998869181">
        <ele>1862.2109375</ele>
        <time>2003-06-07T09:17:46Z</time>
      </trkpt>
      <trkpt lat="46.472451612353325" lon="10.322315851226449">
        <ele>1863.65283203125</ele>
        <time>2003-06-07T09:17:53Z</time>
      </trkpt>
      <trkpt lat="46.472440883517265" lon="10.322175957262516">
        <ele>1865.57568359375</ele>
        <time>2003-06-07T09:18:01Z</time>
      </trkpt>
      <trkpt lat="46.472460497170687" lon="10.322038242593408">
        <ele>1867.498046875</ele>
        <time>2003-06-07T09:18:11Z</time>
      </trkpt>
      <trkpt lat="46.472469214349985" lon="10.321894073858857">
        <ele>1869.421142578125</ele>
        <time>2003-06-07T09:18:21Z</time>
      </trkpt>
      <trkpt lat="46.472459407523274" lon="10.321751916781068">
        <ele>1870.38232421875</ele>
        <time>2003-06-07T09:18:31Z</time>
      </trkpt>
      <trkpt lat="46.472434680908918" lon="10.321610681712627">
        <ele>1870.863037109375</ele>
        <time>2003-06-07T09:18:42Z</time>
      </trkpt>
      <trkpt lat="46.472409199923277" lon="10.321476235985756">
        <ele>1871.343505859375</ele>
        <time>2003-06-07T09:18:56Z</time>
      </trkpt>
      <trkpt lat="46.472383718937635" lon="10.321341790258884">
        <ele>1873.266357421875</ele>
        <time>2003-06-07T09:19:10Z</time>
      </trkpt>
      <trkpt lat="46.472383718937635" lon="10.321341790258884">
        <ele>1873.266357421875</ele>
        <time>2003-06-07T09:19:11Z</time>
      </trkpt>
      <trkpt lat="46.471575619652867" lon="10.320917582139373">
        <ele>1873.746826171875</ele>
        <time>2003-06-07T09:19:13Z</time>
      </trkpt>
      <trkpt lat="46.471104891970754" lon="10.320513742044568">
        <ele>1874.708251953125</ele>
        <time>2003-06-07T09:19:41Z</time>
      </trkpt>
      <trkpt lat="46.47099575959146" lon="10.32037166878581">
        <ele>1875.66943359375</ele>
        <time>2003-06-07T09:19:49Z</time>
      </trkpt>
      <trkpt lat="46.470945049077272" lon="10.320276115089655">
        <ele>1877.111572265625</ele>
        <time>2003-06-07T09:19:58Z</time>
      </trkpt>
      <trkpt lat="46.470925016328692" lon="10.32016932964325">
        <ele>1878.553466796875</ele>
        <time>2003-06-07T09:20:08Z</time>
      </trkpt>
      <trkpt lat="46.470888555049896" lon="10.320021472871304">
        <ele>1880.47607421875</ele>
        <time>2003-06-07T09:20:18Z</time>
      </trkpt>
      <trkpt lat="46.47087162360549" lon="10.319884512573481">
        <ele>1880.956787109375</ele>
        <time>2003-06-07T09:20:29Z</time>
      </trkpt>
      <trkpt lat="46.470948234200478" lon="10.319763561710715">
        <ele>1880.956787109375</ele>
        <time>2003-06-07T09:28:36Z</time>
      </trkpt>
      <trkpt lat="46.470894087105989" lon="10.319664487615228">
        <ele>1878.553466796875</ele>
        <time>2003-06-07T09:28:59Z</time>
      </trkpt>
      <trkpt lat="46.470787134021521" lon="10.3195795789361">
        <ele>1879.033935546875</ele>
        <time>2003-06-07T09:29:04Z</time>
      </trkpt>
      <trkpt lat="46.470681438222528" lon="10.319478660821915">
        <ele>1879.033935546875</ele>
        <time>2003-06-07T09:29:10Z</time>
      </trkpt>
      <trkpt lat="46.470596613362432" lon="10.31933038495481">
        <ele>1878.07275390625</ele>
        <time>2003-06-07T09:29:17Z</time>
      </trkpt>
      <trkpt lat="46.470515308901668" lon="10.319194430485368">
        <ele>1876.630859375</ele>
        <time>2003-06-07T09:29:22Z</time>
      </trkpt>
      <trkpt lat="46.470445320010185" lon="10.319086220115423">
        <ele>1875.188720703125</ele>
        <time>2003-06-07T09:29:26Z</time>
      </trkpt>
      <trkpt lat="46.470375247299671" lon="10.31897809356451">
        <ele>1871.343505859375</ele>
        <time>2003-06-07T09:29:30Z</time>
      </trkpt>
      <trkpt lat="46.470305258408189" lon="10.318869883194566">
        <ele>1867.978759765625</ele>
        <time>2003-06-07T09:29:34Z</time>
      </trkpt>
      <trkpt lat="46.470235269516706" lon="10.318761672824621">
        <ele>1864.6142578125</ele>
        <time>2003-06-07T09:29:38Z</time>
      </trkpt>
      <trkpt lat="46.470165196806192" lon="10.318653462454677">
        <ele>1862.691650390625</ele>
        <time>2003-06-07T09:29:42Z</time>
      </trkpt>
      <trkpt lat="46.47009520791471" lon="10.318545252084732">
        <ele>1861.249755859375</ele>
        <time>2003-06-07T09:29:46Z</time>
      </trkpt>
      <trkpt lat="46.470042737200856" lon="10.318464115262032">
        <ele>1860.76904296875</ele>
        <time>2003-06-07T09:29:50Z</time>
      </trkpt>
      <trkpt lat="46.469400683417916" lon="10.315747456625104">
        <ele>1861.249755859375</ele>
        <time>2003-06-07T09:30:04Z</time>
      </trkpt>
      <trkpt lat="46.469391379505396" lon="10.315659446641803">
        <ele>1863.17236328125</ele>
        <time>2003-06-07T09:30:21Z</time>
      </trkpt>
      <trkpt lat="46.469358019530773" lon="10.315616112202406">
        <ele>1866.536865234375</ele>
        <time>2003-06-07T09:30:31Z</time>
      </trkpt>
      <trkpt lat="46.469286186620593" lon="10.315452748909593">
        <ele>1867.498046875</ele>
        <time>2003-06-07T09:30:39Z</time>
      </trkpt>
      <trkpt lat="46.469259448349476" lon="10.315303634852171">
        <ele>1868.459716796875</ele>
        <time>2003-06-07T09:30:47Z</time>
      </trkpt>
      <trkpt lat="46.469397163018584" lon="10.315261222422123">
        <ele>1868.9404296875</ele>
        <time>2003-06-07T09:30:55Z</time>
      </trkpt>
      <trkpt lat="46.469484167173505" lon="10.315185114741325">
        <ele>1868.9404296875</ele>
        <time>2003-06-07T09:31:02Z</time>
      </trkpt>
      <trkpt lat="46.469553234055638" lon="10.315097188577056">
        <ele>1867.978759765625</ele>
        <time>2003-06-07T09:31:08Z</time>
      </trkpt>
      <trkpt lat="46.469623139128089" lon="10.315010519698262">
        <ele>1867.498046875</ele>
        <time>2003-06-07T09:31:14Z</time>
      </trkpt>
      <trkpt lat="46.46969304420054" lon="10.314923850819468">
        <ele>1865.57568359375</ele>
        <time>2003-06-07T09:31:20Z</time>
      </trkpt>
      <trkpt lat="46.46976294927299" lon="10.314837181940675">
        <ele>1863.65283203125</ele>
        <time>2003-06-07T09:31:26Z</time>
      </trkpt>
      <trkpt lat="46.469818186014891" lon="10.314718242734671">
        <ele>1860.76904296875</ele>
        <time>2003-06-07T09:31:31Z</time>
      </trkpt>
      <trkpt lat="46.469845678657293" lon="10.314508024603128">
        <ele>1860.288330078125</ele>
        <time>2003-06-07T09:31:33Z</time>
      </trkpt>
      <trkpt lat="46.469873171299696" lon="10.314297890290618">
        <ele>1860.288330078125</ele>
        <time>2003-06-07T09:31:35Z</time>
      </trkpt>
      <trkpt lat="46.469900663942099" lon="10.314087672159076">
        <ele>1860.288330078125</ele>
        <time>2003-06-07T09:31:37Z</time>
      </trkpt>
      <trkpt lat="46.469928156584501" lon="10.313877537846565">
        <ele>1859.8076171875</ele>
        <time>2003-06-07T09:31:39Z</time>
      </trkpt>
      <trkpt lat="46.469979453831911" lon="10.313654160127044">
        <ele>1859.8076171875</ele>
        <time>2003-06-07T09:31:41Z</time>
      </trkpt>
      <trkpt lat="46.470080455765128" lon="10.313547123223543">
        <ele>1859.8076171875</ele>
        <time>2003-06-07T09:31:43Z</time>
      </trkpt>
      <trkpt lat="46.470197467133403" lon="10.31350982375443">
        <ele>1859.8076171875</ele>
        <time>2003-06-07T09:31:45Z</time>
      </trkpt>
      <trkpt lat="46.470314478501678" lon="10.313472524285316">
        <ele>1859.8076171875</ele>
        <time>2003-06-07T09:31:47Z</time>
      </trkpt>
      <trkpt lat="46.470431489869952" lon="10.313435140997171">
        <ele>1859.3271484375</ele>
        <time>2003-06-07T09:31:49Z</time>
      </trkpt>
      <trkpt lat="46.470533078536391" lon="10.313370935618877">
        <ele>1858.846435546875</ele>
        <time>2003-06-07T09:31:51Z</time>
      </trkpt>
      <trkpt lat="46.470618071034551" lon="10.313318716362119">
        <ele>1859.3271484375</ele>
        <time>2003-06-07T09:31:53Z</time>
      </trkpt>
      <trkpt lat="46.47070306353271" lon="10.313266413286328">
        <ele>1859.8076171875</ele>
        <time>2003-06-07T09:31:55Z</time>
      </trkpt>
      <trkpt lat="46.470787972211838" lon="10.31321419402957">
        <ele>1859.8076171875</ele>
        <time>2003-06-07T09:31:57Z</time>
      </trkpt>
      <trkpt lat="46.470872964709997" lon="10.313161890953779">
        <ele>1859.8076171875</ele>
        <time>2003-06-07T09:31:59Z</time>
      </trkpt>
      <trkpt lat="46.47095032967627" lon="10.313087627291679">
        <ele>1860.288330078125</ele>
        <time>2003-06-07T09:32:01Z</time>
      </trkpt>
      <trkpt lat="46.471046302467585" lon="10.312973549589515">
        <ele>1859.8076171875</ele>
        <time>2003-06-07T09:32:04Z</time>
      </trkpt>
      <trkpt lat="46.47114235907793" lon="10.31285947188735">
        <ele>1858.846435546875</ele>
        <time>2003-06-07T09:32:07Z</time>
      </trkpt>
      <trkpt lat="46.471238331869245" lon="10.312745394185185">
        <ele>1858.36572265625</ele>
        <time>2003-06-07T09:32:10Z</time>
      </trkpt>
      <trkpt lat="46.471288371831179" lon="10.312538780272007">
        <ele>1857.88525390625</ele>
        <time>2003-06-07T09:32:13Z</time>
      </trkpt>
      <trkpt lat="46.47058479487896" lon="10.310680093243718">
        <ele>1857.404541015625</ele>
        <time>2003-06-07T09:32:15Z</time>
      </trkpt>
      <trkpt lat="46.470684790983796" lon="10.310594262555242">
        <ele>1857.404541015625</ele>
        <time>2003-06-07T09:32:17Z</time>
      </trkpt>
      <trkpt lat="46.470783110707998" lon="10.310453530400991">
        <ele>1856.443115234375</ele>
        <time>2003-06-07T09:32:19Z</time>
      </trkpt>
      <trkpt lat="46.470820577815175" lon="10.310384212061763">
        <ele>1856.443115234375</ele>
        <time>2003-06-07T09:32:21Z</time>
      </trkpt>
      <trkpt lat="46.470935912802815" lon="10.310290334746242">
        <ele>1857.404541015625</ele>
        <time>2003-06-07T09:32:24Z</time>
      </trkpt>
      <trkpt lat="46.471071531996131" lon="10.310176173225045">
        <ele>1856.923828125</ele>
        <time>2003-06-07T09:32:28Z</time>
      </trkpt>
      <trkpt lat="46.471142778173089" lon="10.310069220140576">
        <ele>1856.923828125</ele>
        <time>2003-06-07T09:32:32Z</time>
      </trkpt>
      <trkpt lat="46.471219304949045" lon="10.309950532391667">
        <ele>1855.48193359375</ele>
        <time>2003-06-07T09:32:36Z</time>
      </trkpt>
      <trkpt lat="46.471304213628173" lon="10.309829665347934">
        <ele>1854.0400390625</ele>
        <time>2003-06-07T09:32:40Z</time>
      </trkpt>
      <trkpt lat="46.471381494775414" lon="10.309701589867473">
        <ele>1853.559326171875</ele>
        <time>2003-06-07T09:32:44Z</time>
      </trkpt>
      <trkpt lat="46.471458692103624" lon="10.30957343056798">
        <ele>1853.07861328125</ele>
        <time>2003-06-07T09:32:48Z</time>
      </trkpt>
      <trkpt lat="46.471535973250866" lon="10.309445271268487">
        <ele>1850.675048828125</ele>
        <time>2003-06-07T09:32:52Z</time>
      </trkpt>
      <trkpt lat="46.471696235239506" lon="10.309301689267159">
        <ele>1849.7138671875</ele>
        <time>2003-06-07T09:32:54Z</time>
      </trkpt>
      <trkpt lat="46.471867728978395" lon="10.309223821386695">
        <ele>1849.7138671875</ele>
        <time>2003-06-07T09:32:56Z</time>
      </trkpt>
      <trkpt lat="46.472048945724964" lon="10.309122819453478">
        <ele>1848.75244140625</ele>
        <time>2003-06-07T09:32:58Z</time>
      </trkpt>
      <trkpt lat="46.472167298197746" lon="10.309050483629107">
        <ele>1849.7138671875</ele>
        <time>2003-06-07T09:33:00Z</time>
      </trkpt>
      <trkpt lat="46.47228573448956" lon="10.308978147804737">
        <ele>1850.194580078125</ele>
        <time>2003-06-07T09:33:02Z</time>
      </trkpt>
      <trkpt lat="46.472403081133962" lon="10.308892568573356">
        <ele>1851.636474609375</ele>
        <time>2003-06-07T09:33:04Z</time>
      </trkpt>
      <trkpt lat="46.472477931529284" lon="10.308785447850823">
        <ele>1853.07861328125</ele>
        <time>2003-06-07T09:33:17Z</time>
      </trkpt>
      <trkpt lat="46.472559906542301" lon="10.308643542230129">
        <ele>1853.07861328125</ele>
        <time>2003-06-07T09:33:43Z</time>
      </trkpt>
      <trkpt lat="46.472632745280862" lon="10.308545976877213">
        <ele>1855.48193359375</ele>
        <time>2003-06-07T09:33:52Z</time>
      </trkpt>
      <trkpt lat="46.472727796062827" lon="10.308475065976381">
        <ele>1856.923828125</ele>
        <time>2003-06-07T09:34:01Z</time>
      </trkpt>
      <trkpt lat="46.472819745540619" lon="10.308381440117955">
        <ele>1858.36572265625</ele>
        <time>2003-06-07T09:34:10Z</time>
      </trkpt>
      <trkpt lat="46.472903313115239" lon="10.308285634964705">
        <ele>1860.288330078125</ele>
        <time>2003-06-07T09:34:19Z</time>
      </trkpt>
      <trkpt lat="46.472978414967656" lon="10.30818086117506">
        <ele>1862.2109375</ele>
        <time>2003-06-07T09:34:27Z</time>
      </trkpt>
      <trkpt lat="46.473058043047786" lon="10.308087822049856">
        <ele>1863.65283203125</ele>
        <time>2003-06-07T09:34:35Z</time>
      </trkpt>
      <trkpt lat="46.473135072737932" lon="10.307986652478576">
        <ele>1865.57568359375</ele>
        <time>2003-06-07T09:34:44Z</time>
      </trkpt>
      <trkpt lat="46.473225178197026" lon="10.307915741577744">
        <ele>1867.498046875</ele>
        <time>2003-06-07T09:34:53Z</time>
      </trkpt>
      <trkpt lat="46.47329474799335" lon="10.307812225073576">
        <ele>1867.978759765625</ele>
        <time>2003-06-07T09:34:59Z</time>
      </trkpt>
      <trkpt lat="46.473355181515217" lon="10.307700075209141">
        <ele>1868.459716796875</ele>
        <time>2003-06-07T09:35:05Z</time>
      </trkpt>
      <trkpt lat="46.473418297246099" lon="10.307569233700633">
        <ele>1868.459716796875</ele>
        <time>2003-06-07T09:35:11Z</time>
      </trkpt>
      <trkpt lat="46.473492812365294" lon="10.307456497102976">
        <ele>1868.9404296875</ele>
        <time>2003-06-07T09:35:17Z</time>
      </trkpt>
      <trkpt lat="46.473565818741918" lon="10.307358177378774">
        <ele>1869.421142578125</ele>
        <time>2003-06-07T09:35:24Z</time>
      </trkpt>
      <trkpt lat="46.473702443763614" lon="10.307257594540715">
        <ele>1868.9404296875</ele>
        <time>2003-06-07T09:35:45Z</time>
      </trkpt>
      <trkpt lat="46.47379556670785" lon="10.307149132713675">
        <ele>1868.459716796875</ele>
        <time>2003-06-07T09:35:49Z</time>
      </trkpt>
      <trkpt lat="46.473890785127878" lon="10.307028852403164">
        <ele>1868.459716796875</ele>
        <time>2003-06-07T09:35:52Z</time>
      </trkpt>
      <trkpt lat="46.47396613843739" lon="10.306891137734056">
        <ele>1868.459716796875</ele>
        <time>2003-06-07T09:35:56Z</time>
      </trkpt>
      <trkpt lat="46.474038977175951" lon="10.306756775826216">
        <ele>1869.421142578125</ele>
        <time>2003-06-07T09:36:01Z</time>
      </trkpt>
      <trkpt lat="46.474129669368267" lon="10.306669101119041">
        <ele>1870.863037109375</ele>
        <time>2003-06-07T09:36:06Z</time>
      </trkpt>
      <trkpt lat="46.47422312758863" lon="10.306592741981149">
        <ele>1871.82421875</ele>
        <time>2003-06-07T09:36:12Z</time>
      </trkpt>
      <trkpt lat="46.474311053752899" lon="10.30654882080853">
        <ele>1870.863037109375</ele>
        <time>2003-06-07T09:36:52Z</time>
      </trkpt>
      <trkpt lat="46.474395208060741" lon="10.306499702855945">
        <ele>1868.9404296875</ele>
        <time>2003-06-07T09:36:57Z</time>
      </trkpt>
      <trkpt lat="46.474513560533524" lon="10.306539013981819">
        <ele>1867.978759765625</ele>
        <time>2003-06-07T09:36:59Z</time>
      </trkpt>
      <trkpt lat="46.474631996825337" lon="10.306578408926725">
        <ele>1867.978759765625</ele>
        <time>2003-06-07T09:37:01Z</time>
      </trkpt>
      <trkpt lat="46.47475034929812" lon="10.306617803871632">
        <ele>1867.498046875</ele>
        <time>2003-06-07T09:37:03Z</time>
      </trkpt>
      <trkpt lat="46.474874317646027" lon="10.306650744751096">
        <ele>1866.05615234375</ele>
        <time>2003-06-07T09:37:05Z</time>
      </trkpt>
      <trkpt lat="46.475001974031329" lon="10.306602548807859">
        <ele>1865.094970703125</ele>
        <time>2003-06-07T09:37:07Z</time>
      </trkpt>
      <trkpt lat="46.475129630416632" lon="10.306554352864623">
        <ele>1863.65283203125</ele>
        <time>2003-06-07T09:37:09Z</time>
      </trkpt>
      <trkpt lat="46.475257286801934" lon="10.306506073102355">
        <ele>1862.2109375</ele>
        <time>2003-06-07T09:37:11Z</time>
      </trkpt>
      <trkpt lat="46.475384943187237" lon="10.306457877159119">
        <ele>1861.73046875</ele>
        <time>2003-06-07T09:37:13Z</time>
      </trkpt>
      <trkpt lat="46.475512599572539" lon="10.306409681215882">
        <ele>1860.76904296875</ele>
        <time>2003-06-07T09:37:15Z</time>
      </trkpt>
      <trkpt lat="46.475628353655338" lon="10.306341955438256">
        <ele>1860.76904296875</ele>
        <time>2003-06-07T09:37:17Z</time>
      </trkpt>
      <trkpt lat="46.475672526285052" lon="10.306193679571152">
        <ele>1860.76904296875</ele>
        <time>2003-06-07T09:37:20Z</time>
      </trkpt>
      <trkpt lat="46.475726002827287" lon="10.306069627404213">
        <ele>1861.249755859375</ele>
        <time>2003-06-07T09:37:23Z</time>
      </trkpt>
      <trkpt lat="46.475779479369521" lon="10.305945575237274">
        <ele>1861.73046875</ele>
        <time>2003-06-07T09:37:26Z</time>
      </trkpt>
      <trkpt lat="46.475832955911756" lon="10.305821523070335">
        <ele>1861.73046875</ele>
        <time>2003-06-07T09:37:29Z</time>
      </trkpt>
      <trkpt lat="46.475430959835649" lon="10.305232275277376">
        <ele>1862.691650390625</ele>
        <time>2003-06-07T09:37:34Z</time>
      </trkpt>
      <trkpt lat="46.475473204627633" lon="10.305119371041656">
        <ele>1863.17236328125</ele>
        <time>2003-06-07T09:37:40Z</time>
      </trkpt>
      <trkpt lat="46.47551167756319" lon="10.304997498169541">
        <ele>1864.133544921875</ele>
        <time>2003-06-07T09:37:45Z</time>
      </trkpt>
      <trkpt lat="46.475537493824959" lon="10.304897082969546">
        <ele>1866.05615234375</ele>
        <time>2003-06-07T09:37:52Z</time>
      </trkpt>
      <trkpt lat="46.475675879046321" lon="10.304823573678732">
        <ele>1867.978759765625</ele>
        <time>2003-06-07T09:38:01Z</time>
      </trkpt>
      <trkpt lat="46.475725919008255" lon="10.304697342216969">
        <ele>1869.901611328125</ele>
        <time>2003-06-07T09:38:12Z</time>
      </trkpt>
      <trkpt lat="46.475775791332126" lon="10.304577816277742">
        <ele>1871.82421875</ele>
        <time>2003-06-07T09:38:22Z</time>
      </trkpt>
      <trkpt lat="46.475822059437633" lon="10.304448148235679">
        <ele>1873.266357421875</ele>
        <time>2003-06-07T09:38:31Z</time>
      </trkpt>
      <trkpt lat="46.475867740809917" lon="10.304330131039023">
        <ele>1874.708251953125</ele>
        <time>2003-06-07T09:38:39Z</time>
      </trkpt>
      <trkpt lat="46.475916272029281" lon="10.304213874042034">
        <ele>1876.150146484375</ele>
        <time>2003-06-07T09:38:47Z</time>
      </trkpt>
      <trkpt lat="46.4759601932019" lon="10.304090576246381">
        <ele>1878.07275390625</ele>
        <time>2003-06-07T09:38:55Z</time>
      </trkpt>
      <trkpt lat="46.47600419819355" lon="10.303956884890795">
        <ele>1879.5146484375</ele>
        <time>2003-06-07T09:39:03Z</time>
      </trkpt>
      <trkpt lat="46.476047616451979" lon="10.303825791925192">
        <ele>1879.5146484375</ele>
        <time>2003-06-07T09:39:11Z</time>
      </trkpt>
      <trkpt lat="46.476080557331443" lon="10.30368740670383">
        <ele>1880.47607421875</ele>
        <time>2003-06-07T09:39:20Z</time>
      </trkpt>
      <trkpt lat="46.476107211783528" lon="10.303559666499496">
        <ele>1882.398681640625</ele>
        <time>2003-06-07T09:39:29Z</time>
      </trkpt>
      <trkpt lat="46.476135291159153" lon="10.303429747000337">
        <ele>1883.35986328125</ele>
        <time>2003-06-07T09:39:37Z</time>
      </trkpt>
      <trkpt lat="46.476167058572173" lon="10.303278621286154">
        <ele>1884.321533203125</ele>
        <time>2003-06-07T09:39:45Z</time>
      </trkpt>
      <trkpt lat="46.476206704974174" lon="10.30312011949718">
        <ele>1886.244140625</ele>
        <time>2003-06-07T09:39:53Z</time>
      </trkpt>
      <trkpt lat="46.476247860118747" lon="10.302970670163631">
        <ele>1887.68603515625</ele>
        <time>2003-06-07T09:40:01Z</time>
      </trkpt>
      <trkpt lat="46.476290188729763" lon="10.302839409559965">
        <ele>1888.166748046875</ele>
        <time>2003-06-07T09:40:09Z</time>
      </trkpt>
      <trkpt lat="46.476342240348458" lon="10.302677471190691">
        <ele>1888.6474609375</ele>
        <time>2003-06-07T09:40:16Z</time>
      </trkpt>
      <trkpt lat="46.476402757689357" lon="10.302573535591364">
        <ele>1888.166748046875</ele>
        <time>2003-06-07T09:40:23Z</time>
      </trkpt>
      <trkpt lat="46.476500825956464" lon="10.302424253895879">
        <ele>1888.6474609375</ele>
        <time>2003-06-07T09:41:01Z</time>
      </trkpt>
      <trkpt lat="46.476472076028585" lon="10.302360216155648">
        <ele>1888.6474609375</ele>
        <time>2003-06-07T09:42:13Z</time>
      </trkpt>
      <trkpt lat="46.476691598072648" lon="10.302371950820088">
        <ele>1888.166748046875</ele>
        <time>2003-06-07T09:42:24Z</time>
      </trkpt>
      <trkpt lat="46.476278370246291" lon="10.302102724090219">
        <ele>1888.166748046875</ele>
        <time>2003-06-07T09:46:07Z</time>
      </trkpt>
      <trkpt lat="46.476483810693026" lon="10.302270781248808">
        <ele>1888.166748046875</ele>
        <time>2003-06-07T09:46:22Z</time>
      </trkpt>
      <trkpt lat="46.476668883115053" lon="10.302240857854486">
        <ele>1887.205322265625</ele>
        <time>2003-06-07T09:50:21Z</time>
      </trkpt>
      <trkpt lat="46.476743817329407" lon="10.302186291664839">
        <ele>1886.244140625</ele>
        <time>2003-06-07T09:50:27Z</time>
      </trkpt>
      <trkpt lat="46.476847752928734" lon="10.30216533690691">
        <ele>1883.840576171875</ele>
        <time>2003-06-07T09:50:31Z</time>
      </trkpt>
      <trkpt lat="46.476942384615541" lon="10.30213600024581">
        <ele>1883.840576171875</ele>
        <time>2003-06-07T09:50:34Z</time>
      </trkpt>
      <trkpt lat="46.477026958018541" lon="10.302115799859166">
        <ele>1882.879150390625</ele>
        <time>2003-06-07T09:50:37Z</time>
      </trkpt>
      <trkpt lat="46.477132234722376" lon="10.302080176770687">
        <ele>1880.47607421875</ele>
        <time>2003-06-07T09:50:41Z</time>
      </trkpt>
      <trkpt lat="46.477202475070953" lon="10.302012031897902">
        <ele>1878.07275390625</ele>
        <time>2003-06-07T09:50:46Z</time>
      </trkpt>
      <trkpt lat="46.477218233048916" lon="10.301892422139645">
        <ele>1879.033935546875</ele>
        <time>2003-06-07T09:51:22Z</time>
      </trkpt>
      <trkpt lat="46.47723893634975" lon="10.301728472113609">
        <ele>1879.995361328125</ele>
        <time>2003-06-07T09:51:28Z</time>
      </trkpt>
      <trkpt lat="46.477255700156093" lon="10.301587404683232">
        <ele>1879.5146484375</ele>
        <time>2003-06-07T09:51:33Z</time>
      </trkpt>
      <trkpt lat="46.47728243842721" lon="10.301450863480568">
        <ele>1880.47607421875</ele>
        <time>2003-06-07T09:51:39Z</time>
      </trkpt>
      <trkpt lat="46.477312194183469" lon="10.301317842677236">
        <ele>1881.437255859375</ele>
        <time>2003-06-07T09:51:46Z</time>
      </trkpt>
      <trkpt lat="46.477333987131715" lon="10.301178451627493">
        <ele>1882.879150390625</ele>
        <time>2003-06-07T09:51:54Z</time>
      </trkpt>
      <trkpt lat="46.477305153384805" lon="10.301104271784425">
        <ele>1883.35986328125</ele>
        <time>2003-06-07T09:53:31Z</time>
      </trkpt>
      <trkpt lat="46.47738947533071" lon="10.300895227119327">
        <ele>1887.205322265625</ele>
        <time>2003-06-07T09:58:47Z</time>
      </trkpt>
      <trkpt lat="46.477448483929038" lon="10.30077762901783">
        <ele>1887.68603515625</ele>
        <time>2003-06-07T09:58:54Z</time>
      </trkpt>
      <trkpt lat="46.477499362081289" lon="10.300629604607821">
        <ele>1889.608642578125</ele>
        <time>2003-06-07T09:59:02Z</time>
      </trkpt>
      <trkpt lat="46.477484777569771" lon="10.300501193851233">
        <ele>1889.608642578125</ele>
        <time>2003-06-07T09:59:10Z</time>
      </trkpt>
      <trkpt lat="46.477462565526366" lon="10.30034420080483">
        <ele>1889.608642578125</ele>
        <time>2003-06-07T09:59:18Z</time>
      </trkpt>
      <trkpt lat="46.477464828640223" lon="10.300191231071949">
        <ele>1888.6474609375</ele>
        <time>2003-06-07T09:59:24Z</time>
      </trkpt>
      <trkpt lat="46.477474384009838" lon="10.300025185570121">
        <ele>1888.166748046875</ele>
        <time>2003-06-07T09:59:30Z</time>
      </trkpt>
      <trkpt lat="46.47751746699214" lon="10.29991177842021">
        <ele>1888.166748046875</ele>
        <time>2003-06-07T09:59:33Z</time>
      </trkpt>
      <trkpt lat="46.477578319609165" lon="10.299802729859948">
        <ele>1887.68603515625</ele>
        <time>2003-06-07T09:59:36Z</time>
      </trkpt>
      <trkpt lat="46.477645207196474" lon="10.299678510054946">
        <ele>1886.724609375</ele>
        <time>2003-06-07T09:59:39Z</time>
      </trkpt>
      <trkpt lat="46.47772952914238" lon="10.299463178962469">
        <ele>1884.321533203125</ele>
        <time>2003-06-07T09:59:41Z</time>
      </trkpt>
      <trkpt lat="46.477813851088285" lon="10.299247931689024">
        <ele>1884.321533203125</ele>
        <time>2003-06-07T09:59:43Z</time>
      </trkpt>
      <trkpt lat="46.477898173034191" lon="10.299032600596547">
        <ele>1883.35986328125</ele>
        <time>2003-06-07T09:59:45Z</time>
      </trkpt>
      <trkpt lat="46.477985931560397" lon="10.298805367201567">
        <ele>1882.879150390625</ele>
        <time>2003-06-07T09:59:47Z</time>
      </trkpt>
      <trkpt lat="46.478009233251214" lon="10.298614930361509">
        <ele>1882.398681640625</ele>
        <time>2003-06-07T09:59:50Z</time>
      </trkpt>
      <trkpt lat="46.478042341768742" lon="10.298477299511433">
        <ele>1881.437255859375</ele>
        <time>2003-06-07T09:59:52Z</time>
      </trkpt>
      <trkpt lat="46.4780686609447" lon="10.298347966745496">
        <ele>1879.995361328125</ele>
        <time>2003-06-07T09:59:54Z</time>
      </trkpt>
      <trkpt lat="46.478094980120659" lon="10.298218550160527">
        <ele>1879.033935546875</ele>
        <time>2003-06-07T09:59:56Z</time>
      </trkpt>
      <trkpt lat="46.478121299296618" lon="10.298089133575559">
        <ele>1877.592041015625</ele>
        <time>2003-06-07T09:59:58Z</time>
      </trkpt>
      <trkpt lat="46.478147618472576" lon="10.297959800809622">
        <ele>1875.188720703125</ele>
        <time>2003-06-07T10:00:00Z</time>
      </trkpt>
      <trkpt lat="46.478195730596781" lon="10.297812363132834">
        <ele>1871.82421875</ele>
        <time>2003-06-07T10:00:02Z</time>
      </trkpt>
      <trkpt lat="46.478245686739683" lon="10.297663332894444">
        <ele>1871.343505859375</ele>
        <time>2003-06-07T10:00:04Z</time>
      </trkpt>
      <trkpt lat="46.478244429454207" lon="10.29749209061265">
        <ele>1870.863037109375</ele>
        <time>2003-06-07T10:00:06Z</time>
      </trkpt>
      <trkpt lat="46.478174943476915" lon="10.297404918819666">
        <ele>1870.38232421875</ele>
        <time>2003-06-07T10:00:08Z</time>
      </trkpt>
      <trkpt lat="46.478124735876918" lon="10.297211548313498">
        <ele>1868.9404296875</ele>
        <time>2003-06-07T10:00:10Z</time>
      </trkpt>
      <trkpt lat="46.478076120838523" lon="10.29700837098062">
        <ele>1867.017578125</ele>
        <time>2003-06-07T10:00:12Z</time>
      </trkpt>
      <trkpt lat="46.4780358877033" lon="10.296849031001329">
        <ele>1866.05615234375</ele>
        <time>2003-06-07T10:00:14Z</time>
      </trkpt>
      <trkpt lat="46.477975705638528" lon="10.296733779832721">
        <ele>1865.57568359375</ele>
        <time>2003-06-07T10:00:16Z</time>
      </trkpt>
      <trkpt lat="46.477908650413156" lon="10.296577541157603">
        <ele>1862.691650390625</ele>
        <time>2003-06-07T10:00:19Z</time>
      </trkpt>
      <trkpt lat="46.477860622107983" lon="10.296393223106861">
        <ele>1859.8076171875</ele>
        <time>2003-06-07T10:00:22Z</time>
      </trkpt>
      <trkpt lat="46.477816952392459" lon="10.296185771003366">
        <ele>1857.404541015625</ele>
        <time>2003-06-07T10:00:25Z</time>
      </trkpt>
      <trkpt lat="46.477817371487617" lon="10.296018552035093">
        <ele>1855.001220703125</ele>
        <time>2003-06-07T10:00:28Z</time>
      </trkpt>
      <trkpt lat="46.47788199596107" lon="10.295902127400041">
        <ele>1852.597900390625</ele>
        <time>2003-06-07T10:00:31Z</time>
      </trkpt>
      <trkpt lat="46.477977717295289" lon="10.29580288566649">
        <ele>1850.675048828125</ele>
        <time>2003-06-07T10:00:34Z</time>
      </trkpt>
      <trkpt lat="46.478119790554047" lon="10.295595852658153">
        <ele>1847.310546875</ele>
        <time>2003-06-07T10:01:20Z</time>
      </trkpt>
      <trkpt lat="46.478211237117648" lon="10.295550841838121">
        <ele>1842.984619140625</ele>
        <time>2003-06-07T10:01:26Z</time>
      </trkpt>
      <trkpt lat="46.478302767500281" lon="10.29550583101809">
        <ele>1836.255615234375</ele>
        <time>2003-06-07T10:01:32Z</time>
      </trkpt>
      <trkpt lat="46.478394214063883" lon="10.295460820198059">
        <ele>1830.487548828125</ele>
        <time>2003-06-07T10:01:38Z</time>
      </trkpt>
      <trkpt lat="46.478535868227482" lon="10.29543399810791">
        <ele>1827.603515625</ele>
        <time>2003-06-07T10:01:44Z</time>
      </trkpt>
      <trkpt lat="46.478581968694925" lon="10.295302402228117">
        <ele>1825.2001953125</ele>
        <time>2003-06-07T10:01:48Z</time>
      </trkpt>
      <trkpt lat="46.478576185181737" lon="10.295170973986387">
        <ele>1823.27783203125</ele>
        <time>2003-06-07T10:01:50Z</time>
      </trkpt>
      <trkpt lat="46.478516673669219" lon="10.295041892677546">
        <ele>1822.31640625</ele>
        <time>2003-06-07T10:01:52Z</time>
      </trkpt>
      <trkpt lat="46.478446433320642" lon="10.294913984835148">
        <ele>1821.35498046875</ele>
        <time>2003-06-07T10:01:54Z</time>
      </trkpt>
      <trkpt lat="46.478376276791096" lon="10.29478607699275">
        <ele>1817.990234375</ele>
        <time>2003-06-07T10:01:56Z</time>
      </trkpt>
      <trkpt lat="46.478306036442518" lon="10.294658169150352">
        <ele>1815.587158203125</ele>
        <time>2003-06-07T10:01:58Z</time>
      </trkpt>
      <trkpt lat="46.478235796093941" lon="10.294530261307955">
        <ele>1812.222412109375</ele>
        <time>2003-06-07T10:02:00Z</time>
      </trkpt>
      <trkpt lat="46.479073818773031" lon="10.295028649270535">
        <ele>1809.338623046875</ele>
        <time>2003-06-07T10:02:02Z</time>
      </trkpt>
      <trkpt lat="46.479178676381707" lon="10.294690690934658">
        <ele>1805.973876953125</ele>
        <time>2003-06-07T10:02:05Z</time>
      </trkpt>
      <trkpt lat="46.479351427406073" lon="10.294882887974381">
        <ele>1804.531982421875</ele>
        <time>2003-06-07T10:02:09Z</time>
      </trkpt>
      <trkpt lat="46.479444298893213" lon="10.29493804089725">
        <ele>1801.167236328125</ele>
        <time>2003-06-07T10:02:13Z</time>
      </trkpt>
      <trkpt lat="46.479538008570671" lon="10.294944327324629">
        <ele>1800.6865234375</ele>
        <time>2003-06-07T10:02:16Z</time>
      </trkpt>
      <trkpt lat="46.479425188153982" lon="10.295098219066858">
        <ele>1792.99609375</ele>
        <time>2003-06-07T10:02:35Z</time>
      </trkpt>
      <trkpt lat="46.479467349126935" lon="10.295211542397738">
        <ele>1771.846923828125</ele>
        <time>2003-06-07T10:02:56Z</time>
      </trkpt>
      <trkpt lat="46.481174407526851" lon="10.298886420205235">
        <ele>1694.4609375</ele>
        <time>2003-06-07T10:04:09Z</time>
      </trkpt>
      <trkpt lat="46.482100440189242" lon="10.298836547881365">
        <ele>1693.98046875</ele>
        <time>2003-06-07T10:04:12Z</time>
      </trkpt>
      <trkpt lat="46.482175877317786" lon="10.298828417435288">
        <ele>1693.98046875</ele>
        <time>2003-06-07T10:04:14Z</time>
      </trkpt>
      <trkpt lat="46.482158778235316" lon="10.298834955319762">
        <ele>1693.98046875</ele>
        <time>2003-06-07T10:04:16Z</time>
      </trkpt>
      <trkpt lat="46.482065571472049" lon="10.298875356093049">
        <ele>1693.98046875</ele>
        <time>2003-06-07T10:04:18Z</time>
      </trkpt>
      <trkpt lat="46.48192685097456" lon="10.298919025808573">
        <ele>1693.98046875</ele>
        <time>2003-06-07T10:04:20Z</time>
      </trkpt>
      <trkpt lat="46.481821574270725" lon="10.298945512622595">
        <ele>1693.98046875</ele>
        <time>2003-06-07T10:04:24Z</time>
      </trkpt>
      <trkpt lat="46.481961719691753" lon="10.298864794895053">
        <ele>1670.427978515625</ele>
        <time>2003-06-07T10:06:04Z</time>
      </trkpt>
      <trkpt lat="46.481728199869394" lon="10.30129169113934">
        <ele>1637.262451171875</ele>
        <time>2003-06-07T10:06:36Z</time>
      </trkpt>
      <trkpt lat="46.482920190319419" lon="10.301060518249869">
        <ele>1635.820556640625</ele>
        <time>2003-06-07T10:06:40Z</time>
      </trkpt>
      <trkpt lat="46.483034351840615" lon="10.301006454974413">
        <ele>1635.33984375</ele>
        <time>2003-06-07T10:06:42Z</time>
      </trkpt>
      <trkpt lat="46.483148513361812" lon="10.300952307879925">
        <ele>1635.33984375</ele>
        <time>2003-06-07T10:06:44Z</time>
      </trkpt>
      <trkpt lat="46.48326275870204" lon="10.300898160785437">
        <ele>1634.859375</ele>
        <time>2003-06-07T10:06:46Z</time>
      </trkpt>
      <trkpt lat="46.483376920223236" lon="10.30084409750998">
        <ele>1634.859375</ele>
        <time>2003-06-07T10:06:48Z</time>
      </trkpt>
      <trkpt lat="46.483491081744432" lon="10.300789950415492">
        <ele>1634.378662109375</ele>
        <time>2003-06-07T10:06:50Z</time>
      </trkpt>
      <trkpt lat="46.483605327084661" lon="10.300735803321004">
        <ele>1631.49462890625</ele>
        <time>2003-06-07T10:06:52Z</time>
      </trkpt>
      <trkpt lat="46.483719488605857" lon="10.300681740045547">
        <ele>1630.052734375</ele>
        <time>2003-06-07T10:06:54Z</time>
      </trkpt>
      <trkpt lat="46.483470126986504" lon="10.300571350380778">
        <ele>1628.130126953125</ele>
        <time>2003-06-07T10:06:56Z</time>
      </trkpt>
      <trkpt lat="46.483589401468635" lon="10.30049180611968">
        <ele>1625.7265625</ele>
        <time>2003-06-07T10:06:59Z</time>
      </trkpt>
      <trkpt lat="46.483708675950766" lon="10.300412261858582">
        <ele>1622.362060546875</ele>
        <time>2003-06-07T10:07:02Z</time>
      </trkpt>
      <trkpt lat="46.483827950432897" lon="10.300332717597485">
        <ele>1618.516845703125</ele>
        <time>2003-06-07T10:07:05Z</time>
      </trkpt>
      <trkpt lat="46.483947308734059" lon="10.300253173336387">
        <ele>1616.59423828125</ele>
        <time>2003-06-07T10:07:08Z</time>
      </trkpt>
      <trkpt lat="46.48406658321619" lon="10.30017371289432">
        <ele>1614.19091796875</ele>
        <time>2003-06-07T10:07:11Z</time>
      </trkpt>
      <trkpt lat="46.484185857698321" lon="10.300094168633223">
        <ele>1612.7490234375</ele>
        <time>2003-06-07T10:07:14Z</time>
      </trkpt>
      <trkpt lat="46.484305132180452" lon="10.300014624372125">
        <ele>1610.345458984375</ele>
        <time>2003-06-07T10:07:17Z</time>
      </trkpt>
      <trkpt lat="46.484424406662583" lon="10.299935080111027">
        <ele>1607.461669921875</ele>
        <time>2003-06-07T10:07:20Z</time>
      </trkpt>
      <trkpt lat="46.484031546860933" lon="10.300177400931716">
        <ele>1606.01953125</ele>
        <time>2003-06-07T10:07:22Z</time>
      </trkpt>
      <trkpt lat="46.484156101942062" lon="10.300127863883972">
        <ele>1605.058349609375</ele>
        <time>2003-06-07T10:07:24Z</time>
      </trkpt>
      <trkpt lat="46.48428057320416" lon="10.30007841065526">
        <ele>1602.655029296875</ele>
        <time>2003-06-07T10:07:26Z</time>
      </trkpt>
      <trkpt lat="46.484405128285289" lon="10.300028873607516">
        <ele>1601.213134765625</ele>
        <time>2003-06-07T10:07:28Z</time>
      </trkpt>
      <trkpt lat="46.484529599547386" lon="10.299979420378804">
        <ele>1597.8486328125</ele>
        <time>2003-06-07T10:07:30Z</time>
      </trkpt>
      <trkpt lat="46.484654154628515" lon="10.29992988333106">
        <ele>1595.92578125</ele>
        <time>2003-06-07T10:07:32Z</time>
      </trkpt>
      <trkpt lat="46.484128860756755" lon="10.299613634124398">
        <ele>1594.483642578125</ele>
        <time>2003-06-07T10:07:34Z</time>
      </trkpt>
      <trkpt lat="46.484151743352413" lon="10.299432333558798">
        <ele>1595.445068359375</ele>
        <time>2003-06-07T10:07:36Z</time>
      </trkpt>
      <trkpt lat="46.484174625948071" lon="10.299251116812229">
        <ele>1594.483642578125</ele>
        <time>2003-06-07T10:07:38Z</time>
      </trkpt>
      <trkpt lat="46.484197592362761" lon="10.29906990006566">
        <ele>1593.5224609375</ele>
        <time>2003-06-07T10:07:40Z</time>
      </trkpt>
      <trkpt lat="46.48422047495842" lon="10.29888859950006">
        <ele>1592.561279296875</ele>
        <time>2003-06-07T10:07:42Z</time>
      </trkpt>
      <trkpt lat="46.484206225723028" lon="10.29893989674747">
        <ele>1592.08056640625</ele>
        <time>2003-06-07T10:07:44Z</time>
      </trkpt>
      <trkpt lat="46.484249895438552" lon="10.298932017758489">
        <ele>1591.119140625</ele>
        <time>2003-06-07T10:07:46Z</time>
      </trkpt>
      <trkpt lat="46.48433044552803" lon="10.298806708306074">
        <ele>1588.2353515625</ele>
        <time>2003-06-07T10:07:48Z</time>
      </trkpt>
      <trkpt lat="46.484410995617509" lon="10.298681482672691">
        <ele>1585.351318359375</ele>
        <time>2003-06-07T10:07:50Z</time>
      </trkpt>
      <trkpt lat="46.484491545706987" lon="10.298556173220277">
        <ele>1581.98681640625</ele>
        <time>2003-06-07T10:07:52Z</time>
      </trkpt>
      <trkpt lat="46.484572179615498" lon="10.298430863767862">
        <ele>1579.583251953125</ele>
        <time>2003-06-07T10:07:54Z</time>
      </trkpt>
      <trkpt lat="46.484652729704976" lon="10.29830563813448">
        <ele>1577.18017578125</ele>
        <time>2003-06-07T10:07:56Z</time>
      </trkpt>
      <trkpt lat="46.484733279794455" lon="10.298180328682065">
        <ele>1575.25732421875</ele>
        <time>2003-06-07T10:07:58Z</time>
      </trkpt>
      <trkpt lat="46.484813913702965" lon="10.298055103048682">
        <ele>1573.8154296875</ele>
        <time>2003-06-07T10:08:00Z</time>
      </trkpt>
      <trkpt lat="46.484894463792443" lon="10.297929793596268">
        <ele>1571.892822265625</ele>
        <time>2003-06-07T10:08:02Z</time>
      </trkpt>
      <trkpt lat="46.484975013881922" lon="10.297804484143853">
        <ele>1570.450927734375</ele>
        <time>2003-06-07T10:08:04Z</time>
      </trkpt>
      <trkpt lat="46.4850555639714" lon="10.29767925851047">
        <ele>1570.450927734375</ele>
        <time>2003-06-07T10:08:06Z</time>
      </trkpt>
      <trkpt lat="46.484710481017828" lon="10.297547075897455">
        <ele>1570.450927734375</ele>
        <time>2003-06-07T10:08:08Z</time>
      </trkpt>
      <trkpt lat="46.484555248171091" lon="10.297433417290449">
        <ele>1569.97021484375</ele>
        <time>2003-06-07T10:08:11Z</time>
      </trkpt>
      <trkpt lat="46.484627081081271" lon="10.297318333759904">
        <ele>1569.009033203125</ele>
        <time>2003-06-07T10:08:14Z</time>
      </trkpt>
      <trkpt lat="46.484503364190459" lon="10.297162597998977">
        <ele>1566.605712890625</ele>
        <time>2003-06-07T10:08:17Z</time>
      </trkpt>
      <trkpt lat="46.48434997536242" lon="10.296921702101827">
        <ele>1565.163818359375</ele>
        <time>2003-06-07T10:08:19Z</time>
      </trkpt>
      <trkpt lat="46.484313597902656" lon="10.296703018248081">
        <ele>1564.202392578125</ele>
        <time>2003-06-07T10:08:21Z</time>
      </trkpt>
      <trkpt lat="46.484277304261923" lon="10.296484334394336">
        <ele>1563.240966796875</ele>
        <time>2003-06-07T10:08:23Z</time>
      </trkpt>
      <trkpt lat="46.484240926802158" lon="10.29626565054059">
        <ele>1562.279541015625</ele>
        <time>2003-06-07T10:08:25Z</time>
      </trkpt>
      <trkpt lat="46.484095584601164" lon="10.296038668602705">
        <ele>1560.35693359375</ele>
        <time>2003-06-07T10:08:27Z</time>
      </trkpt>
      <trkpt lat="46.484088459983468" lon="10.295862397179008">
        <ele>1560.837646484375</ele>
        <time>2003-06-07T10:08:29Z</time>
      </trkpt>
      <trkpt lat="46.484081419184804" lon="10.295686209574342">
        <ele>1560.837646484375</ele>
        <time>2003-06-07T10:08:31Z</time>
      </trkpt>
      <trkpt lat="46.484074294567108" lon="10.295509938150644">
        <ele>1560.837646484375</ele>
        <time>2003-06-07T10:08:33Z</time>
      </trkpt>
      <trkpt lat="46.484067169949412" lon="10.295333666726947">
        <ele>1559.395751953125</ele>
        <time>2003-06-07T10:08:35Z</time>
      </trkpt>
      <trkpt lat="46.484060045331717" lon="10.295157395303249">
        <ele>1557.953857421875</ele>
        <time>2003-06-07T10:08:37Z</time>
      </trkpt>
      <trkpt lat="46.484049567952752" lon="10.29504306614399">
        <ele>1556.51171875</ele>
        <time>2003-06-07T10:08:39Z</time>
      </trkpt>
      <trkpt lat="46.483973041176796" lon="10.295315561816096">
        <ele>1557.953857421875</ele>
        <time>2003-06-07T10:09:37Z</time>
      </trkpt>
      <trkpt lat="46.484007574617863" lon="10.295182876288891">
        <ele>1555.06982421875</ele>
        <time>2003-06-07T10:09:44Z</time>
      </trkpt>
      <trkpt lat="46.484018890187144" lon="10.294916499406099">
        <ele>1554.589111328125</ele>
        <time>2003-06-07T10:09:46Z</time>
      </trkpt>
      <trkpt lat="46.484043952077627" lon="10.294672166928649">
        <ele>1553.147216796875</ele>
        <time>2003-06-07T10:09:48Z</time>
      </trkpt>
      <trkpt lat="46.484038922935724" lon="10.29450704343617">
        <ele>1552.185791015625</ele>
        <time>2003-06-07T10:09:51Z</time>
      </trkpt>
      <trkpt lat="46.484058536589146" lon="10.294246030971408">
        <ele>1550.743896484375</ele>
        <time>2003-06-07T10:10:57Z</time>
      </trkpt>
      <trkpt lat="46.48417554795742" lon="10.294089037925005">
        <ele>1547.85986328125</ele>
        <time>2003-06-07T10:11:00Z</time>
      </trkpt>
      <trkpt lat="46.484257020056248" lon="10.293963896110654">
        <ele>1545.45654296875</ele>
        <time>2003-06-07T10:11:02Z</time>
      </trkpt>
      <trkpt lat="46.484327092766762" lon="10.293859289959073">
        <ele>1544.975830078125</ele>
        <time>2003-06-07T10:11:04Z</time>
      </trkpt>
      <trkpt lat="46.484410660341382" lon="10.293736243620515">
        <ele>1544.4951171875</ele>
        <time>2003-06-07T10:11:07Z</time>
      </trkpt>
      <trkpt lat="46.484499759972095" lon="10.293595343828201">
        <ele>1542.092041015625</ele>
        <time>2003-06-07T10:11:10Z</time>
      </trkpt>
      <trkpt lat="46.484589194878936" lon="10.293469112366438">
        <ele>1539.688720703125</ele>
        <time>2003-06-07T10:11:13Z</time>
      </trkpt>
      <trkpt lat="46.484677037224174" lon="10.293355286121368">
        <ele>1537.76611328125</ele>
        <time>2003-06-07T10:11:16Z</time>
      </trkpt>
      <trkpt lat="46.484756581485271" lon="10.29324003495276">
        <ele>1536.32421875</ele>
        <time>2003-06-07T10:11:19Z</time>
      </trkpt>
      <trkpt lat="46.48483176715672" lon="10.293148504570127">
        <ele>1534.88232421875</ele>
        <time>2003-06-07T10:11:22Z</time>
      </trkpt>
      <trkpt lat="46.484896810725331" lon="10.293071893975139">
        <ele>1534.88232421875</ele>
        <time>2003-06-07T10:11:26Z</time>
      </trkpt>
      <trkpt lat="46.484986748546362" lon="10.292955972254276">
        <ele>1532.95947265625</ele>
        <time>2003-06-07T10:11:31Z</time>
      </trkpt>
      <trkpt lat="46.485037710517645" lon="10.292801577597857">
        <ele>1530.55615234375</ele>
        <time>2003-06-07T10:11:35Z</time>
      </trkpt>
      <trkpt lat="46.485084900632501" lon="10.292644081637263">
        <ele>1526.7109375</ele>
        <time>2003-06-07T10:11:39Z</time>
      </trkpt>
      <trkpt lat="46.485130917280912" lon="10.292502176016569">
        <ele>1525.268798828125</ele>
        <time>2003-06-07T10:11:43Z</time>
      </trkpt>
      <trkpt lat="46.485142232850194" lon="10.29262337833643">
        <ele>1523.346435546875</ele>
        <time>2003-06-07T10:11:47Z</time>
      </trkpt>
      <trkpt lat="46.485126810148358" lon="10.292819431051612">
        <ele>1522.385009765625</ele>
        <time>2003-06-07T10:11:50Z</time>
      </trkpt>
      <trkpt lat="46.485136952251196" lon="10.293024368584156">
        <ele>1520.943115234375</ele>
        <time>2003-06-07T10:11:53Z</time>
      </trkpt>
      <trkpt lat="46.485150782391429" lon="10.29315453954041">
        <ele>1519.501220703125</ele>
        <time>2003-06-07T10:11:55Z</time>
      </trkpt>
      <trkpt lat="46.485165785998106" lon="10.293293762952089">
        <ele>1518.539794921875</ele>
        <time>2003-06-07T10:11:57Z</time>
      </trkpt>
      <trkpt lat="46.485152458772063" lon="10.293451929464936">
        <ele>1516.6171875</ele>
        <time>2003-06-07T10:11:59Z</time>
      </trkpt>
      <trkpt lat="46.485149944201112" lon="10.293597942218184">
        <ele>1515.175048828125</ele>
        <time>2003-06-07T10:12:02Z</time>
      </trkpt>
      <trkpt lat="46.485192272812128" lon="10.293729370459914">
        <ele>1513.25244140625</ele>
        <time>2003-06-07T10:12:10Z</time>
      </trkpt>
      <trkpt lat="46.485312804579735" lon="10.293996501713991">
        <ele>1513.25244140625</ele>
        <time>2003-06-07T10:23:02Z</time>
      </trkpt>
      <trkpt lat="46.485312469303608" lon="10.294127091765404">
        <ele>1511.810546875</ele>
        <time>2003-06-07T10:23:07Z</time>
      </trkpt>
      <trkpt lat="46.485321018844843" lon="10.294280229136348">
        <ele>1510.368408203125</ele>
        <time>2003-06-07T10:23:10Z</time>
      </trkpt>
      <trkpt lat="46.485320013016462" lon="10.294438395649195">
        <ele>1509.4072265625</ele>
        <time>2003-06-07T10:23:12Z</time>
      </trkpt>
      <trkpt lat="46.485323030501604" lon="10.294596897438169">
        <ele>1507.96533203125</ele>
        <time>2003-06-07T10:23:14Z</time>
      </trkpt>
      <trkpt lat="46.485326299443841" lon="10.294761350378394">
        <ele>1506.523193359375</ele>
        <time>2003-06-07T10:23:16Z</time>
      </trkpt>
      <trkpt lat="46.485339123755693" lon="10.294913901016116">
        <ele>1504.6005859375</ele>
        <time>2003-06-07T10:23:18Z</time>
      </trkpt>
      <trkpt lat="46.485350942239165" lon="10.29506360180676">
        <ele>1502.677978515625</ele>
        <time>2003-06-07T10:23:20Z</time>
      </trkpt>
      <trkpt lat="46.485363934189081" lon="10.295210117474198">
        <ele>1501.236083984375</ele>
        <time>2003-06-07T10:23:22Z</time>
      </trkpt>
      <trkpt lat="46.485379105433822" lon="10.295346407219768">
        <ele>1499.7939453125</ele>
        <time>2003-06-07T10:23:24Z</time>
      </trkpt>
      <trkpt lat="46.485394276678562" lon="10.295477919280529">
        <ele>1498.83251953125</ele>
        <time>2003-06-07T10:23:26Z</time>
      </trkpt>
      <trkpt lat="46.485410034656525" lon="10.295613454654813">
        <ele>1496.909912109375</ele>
        <time>2003-06-07T10:23:28Z</time>
      </trkpt>
      <trkpt lat="46.485429061576724" lon="10.295759635046124">
        <ele>1495.94873046875</ele>
        <time>2003-06-07T10:23:30Z</time>
      </trkpt>
      <trkpt lat="46.485450770705938" lon="10.29589818790555">
        <ele>1493.54541015625</ele>
        <time>2003-06-07T10:23:32Z</time>
      </trkpt>
      <trkpt lat="46.485464265570045" lon="10.296036908403039">
        <ele>1492.584228515625</ele>
        <time>2003-06-07T10:23:34Z</time>
      </trkpt>
      <trkpt lat="46.485472144559026" lon="10.296194236725569">
        <ele>1491.14208984375</ele>
        <time>2003-06-07T10:23:36Z</time>
      </trkpt>
      <trkpt lat="46.485485639423132" lon="10.296353828161955">
        <ele>1488.739013671875</ele>
        <time>2003-06-07T10:23:38Z</time>
      </trkpt>
      <trkpt lat="46.485515395179391" lon="10.296498835086823">
        <ele>1486.335693359375</ele>
        <time>2003-06-07T10:23:40Z</time>
      </trkpt>
      <trkpt lat="46.485577002167702" lon="10.296611906960607">
        <ele>1484.893798828125</ele>
        <time>2003-06-07T10:23:43Z</time>
      </trkpt>
      <trkpt lat="46.485598795115948" lon="10.296757081523538">
        <ele>1483.451416015625</ele>
        <time>2003-06-07T10:23:46Z</time>
      </trkpt>
      <trkpt lat="46.485559148713946" lon="10.296907117590308">
        <ele>1481.52880859375</ele>
        <time>2003-06-07T10:23:48Z</time>
      </trkpt>
      <trkpt lat="46.485515730455518" lon="10.297040557488799">
        <ele>1480.567626953125</ele>
        <time>2003-06-07T10:23:50Z</time>
      </trkpt>
      <trkpt lat="46.485464684665203" lon="10.297150947153568">
        <ele>1478.64501953125</ele>
        <time>2003-06-07T10:23:52Z</time>
      </trkpt>
      <trkpt lat="46.48540148511529" lon="10.297270305454731">
        <ele>1476.24169921875</ele>
        <time>2003-06-07T10:23:54Z</time>
      </trkpt>
      <trkpt lat="46.485338201746345" lon="10.297389747574925">
        <ele>1474.319091796875</ele>
        <time>2003-06-07T10:23:56Z</time>
      </trkpt>
      <trkpt lat="46.485275002196431" lon="10.297509105876088">
        <ele>1473.83837890625</ele>
        <time>2003-06-07T10:23:58Z</time>
      </trkpt>
      <trkpt lat="46.485211718827486" lon="10.297628464177251">
        <ele>1472.396484375</ele>
        <time>2003-06-07T10:24:00Z</time>
      </trkpt>
      <trkpt lat="46.485148519277573" lon="10.297747906297445">
        <ele>1470.473876953125</ele>
        <time>2003-06-07T10:24:02Z</time>
      </trkpt>
      <trkpt lat="46.485085235908628" lon="10.297867264598608">
        <ele>1468.55126953125</ele>
        <time>2003-06-07T10:24:04Z</time>
      </trkpt>
      <trkpt lat="46.485021952539682" lon="10.297986622899771">
        <ele>1467.109130859375</ele>
        <time>2003-06-07T10:24:06Z</time>
      </trkpt>
      <trkpt lat="46.484958752989769" lon="10.298106065019965">
        <ele>1464.705810546875</ele>
        <time>2003-06-07T10:24:08Z</time>
      </trkpt>
      <trkpt lat="46.484895469620824" lon="10.298225423321128">
        <ele>1463.744384765625</ele>
        <time>2003-06-07T10:24:10Z</time>
      </trkpt>
      <trkpt lat="46.48483227007091" lon="10.298344781622291">
        <ele>1462.783203125</ele>
        <time>2003-06-07T10:24:12Z</time>
      </trkpt>
      <trkpt lat="46.484768986701965" lon="10.298464223742485">
        <ele>1461.34130859375</ele>
        <time>2003-06-07T10:24:14Z</time>
      </trkpt>
      <trkpt lat="46.484705787152052" lon="10.298583582043648">
        <ele>1460.3798828125</ele>
        <time>2003-06-07T10:24:16Z</time>
      </trkpt>
      <trkpt lat="46.484642503783107" lon="10.29870294034481">
        <ele>1457.976806640625</ele>
        <time>2003-06-07T10:24:18Z</time>
      </trkpt>
      <trkpt lat="46.484579304233193" lon="10.298822382465005">
        <ele>1456.053955078125</ele>
        <time>2003-06-07T10:24:20Z</time>
      </trkpt>
      <trkpt lat="46.484547620639205" lon="10.298882061615586">
        <ele>1454.612060546875</ele>
        <time>2003-06-07T10:24:22Z</time>
      </trkpt>
      <trkpt lat="46.485147513449192" lon="10.299297636374831">
        <ele>1453.65087890625</ele>
        <time>2003-06-07T10:24:24Z</time>
      </trkpt>
      <trkpt lat="46.485626874491572" lon="10.298861023038626">
        <ele>1451.72802734375</ele>
        <time>2003-06-07T10:24:44Z</time>
      </trkpt>
      <trkpt lat="46.485657887533307" lon="10.298649212345481">
        <ele>1449.805419921875</ele>
        <time>2003-06-07T10:24:46Z</time>
      </trkpt>
      <trkpt lat="46.485695689916611" lon="10.298417704179883">
        <ele>1448.36328125</ele>
        <time>2003-06-07T10:24:48Z</time>
      </trkpt>
      <trkpt lat="46.485718069598079" lon="10.298293987289071">
        <ele>1448.843994140625</ele>
        <time>2003-06-07T10:24:49Z</time>
      </trkpt>
      <trkpt lat="46.485738605260849" lon="10.298172533512115">
        <ele>1448.36328125</ele>
        <time>2003-06-07T10:24:50Z</time>
      </trkpt>
      <trkpt lat="46.485787974670529" lon="10.297939516603947">
        <ele>1447.402099609375</ele>
        <time>2003-06-07T10:24:52Z</time>
      </trkpt>
      <trkpt lat="46.48583734408021" lon="10.297706415876746">
        <ele>1447.402099609375</ele>
        <time>2003-06-07T10:24:54Z</time>
      </trkpt>
      <trkpt lat="46.48588671348989" lon="10.297473398968577">
        <ele>1446.44091796875</ele>
        <time>2003-06-07T10:24:56Z</time>
      </trkpt>
      <trkpt lat="46.48593608289957" lon="10.297240382060409">
        <ele>1444.03759765625</ele>
        <time>2003-06-07T10:24:58Z</time>
      </trkpt>
      <trkpt lat="46.485985368490219" lon="10.297007281333208">
        <ele>1442.114990234375</ele>
        <time>2003-06-07T10:25:00Z</time>
      </trkpt>
      <trkpt lat="46.486034737899899" lon="10.296774264425039">
        <ele>1439.711669921875</ele>
        <time>2003-06-07T10:25:02Z</time>
      </trkpt>
      <trkpt lat="46.48608410730958" lon="10.29654124751687">
        <ele>1437.308349609375</ele>
        <time>2003-06-07T10:25:04Z</time>
      </trkpt>
      <trkpt lat="46.48613347671926" lon="10.296308230608702">
        <ele>1434.42431640625</ele>
        <time>2003-06-07T10:25:06Z</time>
      </trkpt>
      <trkpt lat="46.486182846128941" lon="10.296075129881501">
        <ele>1432.02099609375</ele>
        <time>2003-06-07T10:25:08Z</time>
      </trkpt>
      <trkpt lat="46.486232215538621" lon="10.295842112973332">
        <ele>1430.098388671875</ele>
        <time>2003-06-07T10:25:10Z</time>
      </trkpt>
      <trkpt lat="46.486281584948301" lon="10.295609096065164">
        <ele>1427.214599609375</ele>
        <time>2003-06-07T10:25:12Z</time>
      </trkpt>
      <trkpt lat="46.486330954357982" lon="10.295375995337963">
        <ele>1423.849853515625</ele>
        <time>2003-06-07T10:25:14Z</time>
      </trkpt>
      <trkpt lat="46.486380323767662" lon="10.295142978429794">
        <ele>1420.966064453125</ele>
        <time>2003-06-07T10:25:16Z</time>
      </trkpt>
      <trkpt lat="46.486429693177342" lon="10.294909961521626">
        <ele>1418.081787109375</ele>
        <time>2003-06-07T10:25:18Z</time>
      </trkpt>
      <trkpt lat="46.486454335972667" lon="10.294793453067541">
        <ele>1415.197998046875</ele>
        <time>2003-06-07T10:25:20Z</time>
      </trkpt>
      <trkpt lat="46.487065963447094" lon="10.295867007225752">
        <ele>1398.85546875</ele>
        <time>2003-06-07T10:25:32Z</time>
      </trkpt>
      <trkpt lat="46.487594777718186" lon="10.295155551284552">
        <ele>1385.877685546875</ele>
        <time>2003-06-07T10:25:41Z</time>
      </trkpt>
      <trkpt lat="46.487612463533878" lon="10.295084305107594">
        <ele>1382.99365234375</ele>
        <time>2003-06-07T10:25:45Z</time>
      </trkpt>
      <trkpt lat="46.487533086910844" lon="10.295176338404417">
        <ele>1381.5517578125</ele>
        <time>2003-06-07T10:26:32Z</time>
      </trkpt>
      <trkpt lat="46.487310212105513" lon="10.295690903440118">
        <ele>1381.5517578125</ele>
        <time>2003-06-07T10:26:33Z</time>
      </trkpt>
      <trkpt lat="46.488161142915487" lon="10.295526450499892">
        <ele>1381.0712890625</ele>
        <time>2003-06-07T10:26:38Z</time>
      </trkpt>
      <trkpt lat="46.488078664988279" lon="10.295610018074512">
        <ele>1381.5517578125</ele>
        <time>2003-06-07T10:26:39Z</time>
      </trkpt>
      <trkpt lat="46.48799610324204" lon="10.295693669468164">
        <ele>1381.5517578125</ele>
        <time>2003-06-07T10:26:40Z</time>
      </trkpt>
      <trkpt lat="46.4879135414958" lon="10.295777237042785">
        <ele>1381.5517578125</ele>
        <time>2003-06-07T10:26:41Z</time>
      </trkpt>
      <trkpt lat="46.48783097974956" lon="10.295860888436437">
        <ele>1381.0712890625</ele>
        <time>2003-06-07T10:26:42Z</time>
      </trkpt>
      <trkpt lat="46.487748418003321" lon="10.295944456011057">
        <ele>1380.590576171875</ele>
        <time>2003-06-07T10:26:43Z</time>
      </trkpt>
      <trkpt lat="46.487665856257081" lon="10.296028023585677">
        <ele>1381.0712890625</ele>
        <time>2003-06-07T10:26:44Z</time>
      </trkpt>
      <trkpt lat="46.487745232880116" lon="10.296365059912205">
        <ele>1381.0712890625</ele>
        <time>2003-06-07T10:26:47Z</time>
      </trkpt>
      <trkpt lat="46.48773618042469" lon="10.296447454020381">
        <ele>1380.590576171875</ele>
        <time>2003-06-07T10:26:55Z</time>
      </trkpt>
      <trkpt lat="46.48765848018229" lon="10.296401102095842">
        <ele>1381.0712890625</ele>
        <time>2003-06-07T10:27:00Z</time>
      </trkpt>
      <trkpt lat="46.487617073580623" lon="10.296617690473795">
        <ele>1381.0712890625</ele>
        <time>2003-06-07T10:27:04Z</time>
      </trkpt>
      <trkpt lat="46.487580109387636" lon="10.29679823666811">
        <ele>1380.10986328125</ele>
        <time>2003-06-07T10:27:08Z</time>
      </trkpt>
      <trkpt lat="46.48756954818964" lon="10.296951122581959">
        <ele>1380.590576171875</ele>
        <time>2003-06-07T10:27:11Z</time>
      </trkpt>
      <trkpt lat="46.487549599260092" lon="10.297123035416007">
        <ele>1380.10986328125</ele>
        <time>2003-06-07T10:27:14Z</time>
      </trkpt>
      <trkpt lat="46.487527303397655" lon="10.297285476699471">
        <ele>1379.629150390625</ele>
        <time>2003-06-07T10:27:17Z</time>
      </trkpt>
      <trkpt lat="46.487510874867439" lon="10.297436602413654">
        <ele>1379.629150390625</ele>
        <time>2003-06-07T10:27:20Z</time>
      </trkpt>
      <trkpt lat="46.487494697794318" lon="10.297582028433681">
        <ele>1379.1484375</ele>
        <time>2003-06-07T10:27:24Z</time>
      </trkpt>
      <trkpt lat="46.487479107454419" lon="10.297745056450367">
        <ele>1379.629150390625</ele>
        <time>2003-06-07T10:27:28Z</time>
      </trkpt>
      <trkpt lat="46.487461337819695" lon="10.297908084467053">
        <ele>1379.1484375</ele>
        <time>2003-06-07T10:27:32Z</time>
      </trkpt>
      <trkpt lat="46.487453039735556" lon="10.298075806349516">
        <ele>1378.66796875</ele>
        <time>2003-06-07T10:27:35Z</time>
      </trkpt>
      <trkpt lat="46.487447675317526" lon="10.298255262896419">
        <ele>1379.1484375</ele>
        <time>2003-06-07T10:27:38Z</time>
      </trkpt>
      <trkpt lat="46.487439796328545" lon="10.298416363075376">
        <ele>1379.1484375</ele>
        <time>2003-06-07T10:27:41Z</time>
      </trkpt>
      <trkpt lat="46.487443065270782" lon="10.298611158505082">
        <ele>1378.187255859375</ele>
        <time>2003-06-07T10:27:44Z</time>
      </trkpt>
      <trkpt lat="46.487459493800998" lon="10.298814671114087">
        <ele>1378.187255859375</ele>
        <time>2003-06-07T10:27:47Z</time>
      </trkpt>
      <trkpt lat="46.487470557913184" lon="10.298953056335449">
        <ele>1377.22607421875</ele>
        <time>2003-06-07T10:27:49Z</time>
      </trkpt>
      <trkpt lat="46.487484555691481" lon="10.299110803753138">
        <ele>1377.22607421875</ele>
        <time>2003-06-07T10:27:51Z</time>
      </trkpt>
      <trkpt lat="46.487496625632048" lon="10.299278609454632">
        <ele>1376.745361328125</ele>
        <time>2003-06-07T10:27:53Z</time>
      </trkpt>
      <trkpt lat="46.487507103011012" lon="10.299439625814557">
        <ele>1376.745361328125</ele>
        <time>2003-06-07T10:27:55Z</time>
      </trkpt>
      <trkpt lat="46.487518670037389" lon="10.299608102068305">
        <ele>1376.745361328125</ele>
        <time>2003-06-07T10:27:57Z</time>
      </trkpt>
      <trkpt lat="46.487531159073114" lon="10.299775740131736">
        <ele>1377.22607421875</ele>
        <time>2003-06-07T10:27:59Z</time>
      </trkpt>
      <trkpt lat="46.487545575946569" lon="10.29995184391737">
        <ele>1376.2646484375</ele>
        <time>2003-06-07T10:28:01Z</time>
      </trkpt>
      <trkpt lat="46.48755144327879" lon="10.300127025693655">
        <ele>1376.2646484375</ele>
        <time>2003-06-07T10:28:03Z</time>
      </trkpt>
      <trkpt lat="46.487547587603331" lon="10.300302123650908">
        <ele>1375.30322265625</ele>
        <time>2003-06-07T10:28:05Z</time>
      </trkpt>
      <trkpt lat="46.487535601481795" lon="10.300469426438212">
        <ele>1375.30322265625</ele>
        <time>2003-06-07T10:28:07Z</time>
      </trkpt>
      <trkpt lat="46.487519759684801" lon="10.300630358979106">
        <ele>1374.82275390625</ele>
        <time>2003-06-07T10:28:09Z</time>
      </trkpt>
      <trkpt lat="46.487503750249743" lon="10.300789950415492">
        <ele>1375.30322265625</ele>
        <time>2003-06-07T10:28:11Z</time>
      </trkpt>
      <trkpt lat="46.487482376396656" lon="10.300945686176419">
        <ele>1375.30322265625</ele>
        <time>2003-06-07T10:28:13Z</time>
      </trkpt>
      <trkpt lat="46.487445998936892" lon="10.301114497706294">
        <ele>1375.30322265625</ele>
        <time>2003-06-07T10:28:15Z</time>
      </trkpt>
      <trkpt lat="46.487392857670784" lon="10.301292110234499">
        <ele>1374.82275390625</ele>
        <time>2003-06-07T10:28:17Z</time>
      </trkpt>
      <trkpt lat="46.487348014488816" lon="10.301451869308949">
        <ele>1374.82275390625</ele>
        <time>2003-06-07T10:28:19Z</time>
      </trkpt>
      <trkpt lat="46.487303422763944" lon="10.301612047478557">
        <ele>1374.82275390625</ele>
        <time>2003-06-07T10:28:21Z</time>
      </trkpt>
      <trkpt lat="46.48725925013423" lon="10.301770884543657">
        <ele>1374.82275390625</ele>
        <time>2003-06-07T10:28:23Z</time>
      </trkpt>
      <trkpt lat="46.487217340618372" lon="10.301938354969025">
        <ele>1374.82275390625</ele>
        <time>2003-06-07T10:28:25Z</time>
      </trkpt>
      <trkpt lat="46.487180963158607" lon="10.302114877849817">
        <ele>1374.82275390625</ele>
        <time>2003-06-07T10:28:27Z</time>
      </trkpt>
      <trkpt lat="46.487145591527224" lon="10.302301039919257">
        <ele>1374.342041015625</ele>
        <time>2003-06-07T10:28:29Z</time>
      </trkpt>
      <trkpt lat="46.487110136076808" lon="10.302501367405057">
        <ele>1374.82275390625</ele>
        <time>2003-06-07T10:28:31Z</time>
      </trkpt>
      <trkpt lat="46.487070322036743" lon="10.30271259136498">
        <ele>1374.82275390625</ele>
        <time>2003-06-07T10:28:33Z</time>
      </trkpt>
      <trkpt lat="46.487028663977981" lon="10.302921803668141">
        <ele>1373.861328125</ele>
        <time>2003-06-07T10:28:35Z</time>
      </trkpt>
      <trkpt lat="46.486987005919218" lon="10.303124729543924">
        <ele>1373.861328125</ele>
        <time>2003-06-07T10:28:37Z</time>
      </trkpt>
      <trkpt lat="46.48694409057498" lon="10.30332681722939">
        <ele>1373.861328125</ele>
        <time>2003-06-07T10:28:39Z</time>
      </trkpt>
      <trkpt lat="46.486901426687837" lon="10.303534604609013">
        <ele>1372.900146484375</ele>
        <time>2003-06-07T10:28:41Z</time>
      </trkpt>
      <trkpt lat="46.48686496540904" lon="10.303731579333544">
        <ele>1373.380859375</ele>
        <time>2003-06-07T10:28:43Z</time>
      </trkpt>
      <trkpt lat="46.486826408654451" lon="10.303940875455737">
        <ele>1373.380859375</ele>
        <time>2003-06-07T10:28:45Z</time>
      </trkpt>
      <trkpt lat="46.486784750595689" lon="10.304151680320501">
        <ele>1372.900146484375</ele>
        <time>2003-06-07T10:28:47Z</time>
      </trkpt>
      <trkpt lat="46.486743930727243" lon="10.304357456043363">
        <ele>1372.900146484375</ele>
        <time>2003-06-07T10:28:49Z</time>
      </trkpt>
      <trkpt lat="46.486697494983673" lon="10.304581001400948">
        <ele>1372.900146484375</ele>
        <time>2003-06-07T10:28:51Z</time>
      </trkpt>
      <trkpt lat="46.486641084775329" lon="10.304805636405945">
        <ele>1372.41943359375</ele>
        <time>2003-06-07T10:28:53Z</time>
      </trkpt>
      <trkpt lat="46.486567072570324" lon="10.305024571716785">
        <ele>1372.41943359375</ele>
        <time>2003-06-07T10:28:55Z</time>
      </trkpt>
      <trkpt lat="46.486483840271831" lon="10.305234873667359">
        <ele>1371.9384765625</ele>
        <time>2003-06-07T10:28:57Z</time>
      </trkpt>
      <trkpt lat="46.486402787268162" lon="10.305430591106415">
        <ele>1371.9384765625</ele>
        <time>2003-06-07T10:28:59Z</time>
      </trkpt>
      <trkpt lat="46.486327182501554" lon="10.305608958005905">
        <ele>1370.977294921875</ele>
        <time>2003-06-07T10:29:01Z</time>
      </trkpt>
      <trkpt lat="46.486245542764664" lon="10.305788246914744">
        <ele>1370.977294921875</ele>
        <time>2003-06-07T10:29:03Z</time>
      </trkpt>
      <trkpt lat="46.486164405941963" lon="10.30598639510572">
        <ele>1370.015869140625</ele>
        <time>2003-06-07T10:29:05Z</time>
      </trkpt>
      <trkpt lat="46.486103888601065" lon="10.306185968220234">
        <ele>1370.49658203125</ele>
        <time>2003-06-07T10:29:07Z</time>
      </trkpt>
      <trkpt lat="46.486048065125942" lon="10.306418230757117">
        <ele>1370.015869140625</ele>
        <time>2003-06-07T10:29:09Z</time>
      </trkpt>
      <trkpt lat="46.486007915809751" lon="10.306656025350094">
        <ele>1370.015869140625</ele>
        <time>2003-06-07T10:29:11Z</time>
      </trkpt>
      <trkpt lat="46.485965754836798" lon="10.30690404586494">
        <ele>1369.535400390625</ele>
        <time>2003-06-07T10:29:13Z</time>
      </trkpt>
      <trkpt lat="46.485924934968352" lon="10.307148713618517">
        <ele>1369.0546875</ele>
        <time>2003-06-07T10:29:15Z</time>
      </trkpt>
      <trkpt lat="46.485883612185717" lon="10.307399835437536">
        <ele>1369.535400390625</ele>
        <time>2003-06-07T10:29:17Z</time>
      </trkpt>
      <trkpt lat="46.485844384878874" lon="10.30764676630497">
        <ele>1368.573974609375</ele>
        <time>2003-06-07T10:29:19Z</time>
      </trkpt>
      <trkpt lat="46.485806163400412" lon="10.307892356067896">
        <ele>1368.573974609375</ele>
        <time>2003-06-07T10:29:21Z</time>
      </trkpt>
      <trkpt lat="46.485765427350998" lon="10.308133671060205">
        <ele>1369.0546875</ele>
        <time>2003-06-07T10:29:23Z</time>
      </trkpt>
      <trkpt lat="46.485724523663521" lon="10.308373225852847">
        <ele>1368.573974609375</ele>
        <time>2003-06-07T10:29:25Z</time>
      </trkpt>
      <trkpt lat="46.485681524500251" lon="10.30860397964716">
        <ele>1368.573974609375</ele>
        <time>2003-06-07T10:29:27Z</time>
      </trkpt>
      <trkpt lat="46.485640285536647" lon="10.308838840574026">
        <ele>1367.612548828125</ele>
        <time>2003-06-07T10:29:29Z</time>
      </trkpt>
      <trkpt lat="46.485601812601089" lon="10.309075880795717">
        <ele>1367.132080078125</ele>
        <time>2003-06-07T10:29:31Z</time>
      </trkpt>
      <trkpt lat="46.485559148713946" lon="10.309311915189028">
        <ele>1367.132080078125</ele>
        <time>2003-06-07T10:29:33Z</time>
      </trkpt>
      <trkpt lat="46.485515981912613" lon="10.309548284858465">
        <ele>1367.612548828125</ele>
        <time>2003-06-07T10:29:35Z</time>
      </trkpt>
      <trkpt lat="46.48546208627522" lon="10.309778871014714">
        <ele>1367.132080078125</ele>
        <time>2003-06-07T10:29:37Z</time>
      </trkpt>
      <trkpt lat="46.485400646924973" lon="10.31000878661871">
        <ele>1367.612548828125</ele>
        <time>2003-06-07T10:29:39Z</time>
      </trkpt>
      <trkpt lat="46.485323030501604" lon="10.310231661424041">
        <ele>1367.132080078125</ele>
        <time>2003-06-07T10:29:41Z</time>
      </trkpt>
      <trkpt lat="46.485218508169055" lon="10.310433078557253">
        <ele>1367.132080078125</ele>
        <time>2003-06-07T10:29:43Z</time>
      </trkpt>
      <trkpt lat="46.485168049111962" lon="10.310520501807332">
        <ele>1366.6513671875</ele>
        <time>2003-06-07T10:29:44Z</time>
      </trkpt>
      <trkpt lat="46.485107783228159" lon="10.310618234798312">
        <ele>1366.6513671875</ele>
        <time>2003-06-07T10:29:45Z</time>
      </trkpt>
      <trkpt lat="46.484985742717981" lon="10.310812527313828">
        <ele>1366.170654296875</ele>
        <time>2003-06-07T10:29:47Z</time>
      </trkpt>
      <trkpt lat="46.484924638643861" lon="10.310910176485777">
        <ele>1365.690185546875</ele>
        <time>2003-06-07T10:29:48Z</time>
      </trkpt>
      <trkpt lat="46.484838556498289" lon="10.311122993007302">
        <ele>1366.170654296875</ele>
        <time>2003-06-07T10:29:50Z</time>
      </trkpt>
      <trkpt lat="46.484763957560062" lon="10.3113476280123">
        <ele>1365.690185546875</ele>
        <time>2003-06-07T10:29:52Z</time>
      </trkpt>
      <trkpt lat="46.484691454097629" lon="10.311575280502439">
        <ele>1364.728759765625</ele>
        <time>2003-06-07T10:29:54Z</time>
      </trkpt>
      <trkpt lat="46.48465926758945" lon="10.31168726272881">
        <ele>1364.248046875</ele>
        <time>2003-06-07T10:29:55Z</time>
      </trkpt>
      <trkpt lat="46.484599420800805" lon="10.31190762296319">
        <ele>1365.690185546875</ele>
        <time>2003-06-07T10:29:57Z</time>
      </trkpt>
      <trkpt lat="46.484540412202477" lon="10.312121361494064">
        <ele>1363.767333984375</ele>
        <time>2003-06-07T10:29:59Z</time>
      </trkpt>
      <trkpt lat="46.484506884589791" lon="10.312323700636625">
        <ele>1362.80615234375</ele>
        <time>2003-06-07T10:30:01Z</time>
      </trkpt>
      <trkpt lat="46.484510404989123" lon="10.312551772221923">
        <ele>1363.286865234375</ele>
        <time>2003-06-07T10:30:03Z</time>
      </trkpt>
      <trkpt lat="46.484559690579772" lon="10.312772551551461">
        <ele>1362.80615234375</ele>
        <time>2003-06-07T10:30:05Z</time>
      </trkpt>
      <trkpt lat="46.484651891514659" lon="10.312963156029582">
        <ele>1363.286865234375</ele>
        <time>2003-06-07T10:30:07Z</time>
      </trkpt>
      <trkpt lat="46.484772758558393" lon="10.313116628676653">
        <ele>1362.325439453125</ele>
        <time>2003-06-07T10:30:09Z</time>
      </trkpt>
      <trkpt lat="46.484904270619154" lon="10.31324939802289">
        <ele>1362.325439453125</ele>
        <time>2003-06-07T10:30:11Z</time>
      </trkpt>
      <trkpt lat="46.485037794336677" lon="10.31337596476078">
        <ele>1361.844970703125</ele>
        <time>2003-06-07T10:30:13Z</time>
      </trkpt>
      <trkpt lat="46.485169054940343" lon="10.313499178737402">
        <ele>1361.3642578125</ele>
        <time>2003-06-07T10:30:15Z</time>
      </trkpt>
      <trkpt lat="46.485293861478567" lon="10.313622476533055">
        <ele>1361.3642578125</ele>
        <time>2003-06-07T10:30:17Z</time>
      </trkpt>
      <trkpt lat="46.485414896160364" lon="10.313742505386472">
        <ele>1361.844970703125</ele>
        <time>2003-06-07T10:30:19Z</time>
      </trkpt>
      <trkpt lat="46.485533248633146" lon="10.313859935849905">
        <ele>1361.3642578125</ele>
        <time>2003-06-07T10:30:21Z</time>
      </trkpt>
      <trkpt lat="46.485649840906262" lon="10.313976863399148">
        <ele>1361.3642578125</ele>
        <time>2003-06-07T10:30:23Z</time>
      </trkpt>
      <trkpt lat="46.485763667151332" lon="10.314088342711329">
        <ele>1361.3642578125</ele>
        <time>2003-06-07T10:30:25Z</time>
      </trkpt>
      <trkpt lat="46.48587305098772" lon="10.314196133986115">
        <ele>1361.844970703125</ele>
        <time>2003-06-07T10:30:27Z</time>
      </trkpt>
      <trkpt lat="46.485976064577699" lon="10.314296213909984">
        <ele>1361.844970703125</ele>
        <time>2003-06-07T10:30:29Z</time>
      </trkpt>
      <trkpt lat="46.486077401787043" lon="10.314397383481264">
        <ele>1361.3642578125</ele>
        <time>2003-06-07T10:30:31Z</time>
      </trkpt>
      <trkpt lat="46.486179158091545" lon="10.314521184191108">
        <ele>1360.883544921875</ele>
        <time>2003-06-07T10:30:33Z</time>
      </trkpt>
      <trkpt lat="46.486274963244796" lon="10.314658647403121">
        <ele>1361.3642578125</ele>
        <time>2003-06-07T10:30:35Z</time>
      </trkpt>
      <trkpt lat="46.486365655437112" lon="10.314810695126653">
        <ele>1360.883544921875</ele>
        <time>2003-06-07T10:30:37Z</time>
      </trkpt>
      <trkpt lat="46.486333720386028" lon="10.315036587417126">
        <ele>1360.40283203125</ele>
        <time>2003-06-07T10:30:39Z</time>
      </trkpt>
      <trkpt lat="46.486295582726598" lon="10.315261976793408">
        <ele>1360.883544921875</ele>
        <time>2003-06-07T10:30:41Z</time>
      </trkpt>
      <trkpt lat="46.486261803656816" lon="10.315488958731294">
        <ele>1359.441650390625</ele>
        <time>2003-06-07T10:30:43Z</time>
      </trkpt>
      <trkpt lat="46.486217966303229" lon="10.315718036144972">
        <ele>1359.441650390625</ele>
        <time>2003-06-07T10:30:45Z</time>
      </trkpt>
      <trkpt lat="46.48617647588253" lon="10.315947784110904">
        <ele>1358.9609375</ele>
        <time>2003-06-07T10:30:47Z</time>
      </trkpt>
      <trkpt lat="46.486142529174685" lon="10.316168898716569">
        <ele>1359.441650390625</ele>
        <time>2003-06-07T10:30:49Z</time>
      </trkpt>
      <trkpt lat="46.486105062067509" lon="10.316394371911883">
        <ele>1359.441650390625</ele>
        <time>2003-06-07T10:30:51Z</time>
      </trkpt>
      <trkpt lat="46.486069690436125" lon="10.31660676933825">
        <ele>1358.480224609375</ele>
        <time>2003-06-07T10:30:53Z</time>
      </trkpt>
      <trkpt lat="46.486033396795392" lon="10.316831991076469">
        <ele>1358.9609375</ele>
        <time>2003-06-07T10:30:55Z</time>
      </trkpt>
      <trkpt lat="46.485997522249818" lon="10.317064672708511">
        <ele>1358.9609375</ele>
        <time>2003-06-07T10:30:57Z</time>
      </trkpt>
      <trkpt lat="46.485962318256497" lon="10.317298024892807">
        <ele>1357.999755859375</ele>
        <time>2003-06-07T10:30:59Z</time>
      </trkpt>
      <trkpt lat="46.485925354063511" lon="10.317529868334532">
        <ele>1357.999755859375</ele>
        <time>2003-06-07T10:31:01Z</time>
      </trkpt>
      <trkpt lat="46.485890401527286" lon="10.317761711776257">
        <ele>1357.51904296875</ele>
        <time>2003-06-07T10:31:03Z</time>
      </trkpt>
      <trkpt lat="46.485857795923948" lon="10.317980814725161">
        <ele>1357.51904296875</ele>
        <time>2003-06-07T10:31:05Z</time>
      </trkpt>
      <trkpt lat="46.485827369615436" lon="10.318200839683414">
        <ele>1357.038330078125</ele>
        <time>2003-06-07T10:31:07Z</time>
      </trkpt>
      <trkpt lat="46.485798535868526" lon="10.3184122312814">
        <ele>1357.038330078125</ele>
        <time>2003-06-07T10:31:09Z</time>
      </trkpt>
      <trkpt lat="46.485763834789395" lon="10.318632004782557">
        <ele>1356.5576171875</ele>
        <time>2003-06-07T10:31:11Z</time>
      </trkpt>
      <trkpt lat="46.485735755413771" lon="10.318843312561512">
        <ele>1357.038330078125</ele>
        <time>2003-06-07T10:31:13Z</time>
      </trkpt>
      <trkpt lat="46.485704155638814" lon="10.319061828777194">
        <ele>1356.5576171875</ele>
        <time>2003-06-07T10:31:15Z</time>
      </trkpt>
      <trkpt lat="46.485680351033807" lon="10.319273723289371">
        <ele>1356.5576171875</ele>
        <time>2003-06-07T10:31:17Z</time>
      </trkpt>
      <trkpt lat="46.485653696581721" lon="10.319488635286689">
        <ele>1356.076904296875</ele>
        <time>2003-06-07T10:31:19Z</time>
      </trkpt>
      <trkpt lat="46.485628550872207" lon="10.319693991914392">
        <ele>1356.5576171875</ele>
        <time>2003-06-07T10:31:21Z</time>
      </trkpt>
      <trkpt lat="46.485598878934979" lon="10.319902533665299">
        <ele>1356.5576171875</ele>
        <time>2003-06-07T10:31:23Z</time>
      </trkpt>
      <trkpt lat="46.485566943883896" lon="10.320106381550431">
        <ele>1356.5576171875</ele>
        <time>2003-06-07T10:31:25Z</time>
      </trkpt>
      <trkpt lat="46.485535847023129" lon="10.320314336568117">
        <ele>1356.5576171875</ele>
        <time>2003-06-07T10:31:27Z</time>
      </trkpt>
      <trkpt lat="46.48550164885819" lon="10.320536373183131">
        <ele>1356.076904296875</ele>
        <time>2003-06-07T10:31:29Z</time>
      </trkpt>
      <trkpt lat="46.485471306368709" lon="10.320762433111668">
        <ele>1356.076904296875</ele>
        <time>2003-06-07T10:31:31Z</time>
      </trkpt>
      <trkpt lat="46.485438952222466" lon="10.320986649021506">
        <ele>1356.076904296875</ele>
        <time>2003-06-07T10:31:33Z</time>
      </trkpt>
      <trkpt lat="46.485406681895256" lon="10.32121061347425">
        <ele>1355.59619140625</ele>
        <time>2003-06-07T10:31:35Z</time>
      </trkpt>
      <trkpt lat="46.485371729359031" lon="10.321433572098613">
        <ele>1355.115478515625</ele>
        <time>2003-06-07T10:31:37Z</time>
      </trkpt>
      <trkpt lat="46.485334094613791" lon="10.32165284268558">
        <ele>1355.115478515625</ele>
        <time>2003-06-07T10:31:39Z</time>
      </trkpt>
      <trkpt lat="46.485295621678233" lon="10.321869933977723">
        <ele>1354.634765625</ele>
        <time>2003-06-07T10:31:41Z</time>
      </trkpt>
      <trkpt lat="46.485257735475898" lon="10.322085684165359">
        <ele>1354.154296875</ele>
        <time>2003-06-07T10:31:43Z</time>
      </trkpt>
      <trkpt lat="46.485221022740006" lon="10.322301266714931">
        <ele>1352.712158203125</ele>
        <time>2003-06-07T10:31:45Z</time>
      </trkpt>
      <trkpt lat="46.485185399651527" lon="10.322510143741965">
        <ele>1352.712158203125</ele>
        <time>2003-06-07T10:31:47Z</time>
      </trkpt>
      <trkpt lat="46.485151872038841" lon="10.322720026597381">
        <ele>1352.2314453125</ele>
        <time>2003-06-07T10:31:49Z</time>
      </trkpt>
      <trkpt lat="46.485116416588426" lon="10.322929406538606">
        <ele>1351.7509765625</ele>
        <time>2003-06-07T10:31:51Z</time>
      </trkpt>
      <trkpt lat="46.485082553699613" lon="10.323134595528245">
        <ele>1351.7509765625</ele>
        <time>2003-06-07T10:31:53Z</time>
      </trkpt>
      <trkpt lat="46.485048606991768" lon="10.323338862508535">
        <ele>1351.7509765625</ele>
        <time>2003-06-07T10:31:55Z</time>
      </trkpt>
      <trkpt lat="46.485015330836177" lon="10.323543883860111">
        <ele>1351.7509765625</ele>
        <time>2003-06-07T10:31:57Z</time>
      </trkpt>
      <trkpt lat="46.484982389956713" lon="10.32374756410718">
        <ele>1351.270263671875</ele>
        <time>2003-06-07T10:31:59Z</time>
      </trkpt>
      <trkpt lat="46.484948694705963" lon="10.32394889742136">
        <ele>1351.270263671875</ele>
        <time>2003-06-07T10:32:01Z</time>
      </trkpt>
      <trkpt lat="46.484916172921658" lon="10.324145788326859">
        <ele>1351.7509765625</ele>
        <time>2003-06-07T10:32:03Z</time>
      </trkpt>
      <trkpt lat="46.484882729128003" lon="10.324345109984279">
        <ele>1350.78955078125</ele>
        <time>2003-06-07T10:32:05Z</time>
      </trkpt>
      <trkpt lat="46.484847441315651" lon="10.324542587623">
        <ele>1350.78955078125</ele>
        <time>2003-06-07T10:32:07Z</time>
      </trkpt>
      <trkpt lat="46.484812404960394" lon="10.324741909280419">
        <ele>1351.270263671875</ele>
        <time>2003-06-07T10:32:09Z</time>
      </trkpt>
      <trkpt lat="46.48476772941649" lon="10.324944918975234">
        <ele>1349.828369140625</ele>
        <time>2003-06-07T10:32:11Z</time>
      </trkpt>
      <trkpt lat="46.484720874577761" lon="10.325142396613955">
        <ele>1349.34765625</ele>
        <time>2003-06-07T10:32:13Z</time>
      </trkpt>
      <trkpt lat="46.484671756625175" lon="10.325338700786233">
        <ele>1349.34765625</ele>
        <time>2003-06-07T10:32:15Z</time>
      </trkpt>
      <trkpt lat="46.484623476862907" lon="10.32553399913013">
        <ele>1349.34765625</ele>
        <time>2003-06-07T10:32:17Z</time>
      </trkpt>
      <trkpt lat="46.484573353081942" lon="10.325729297474027">
        <ele>1349.34765625</ele>
        <time>2003-06-07T10:32:19Z</time>
      </trkpt>
      <trkpt lat="46.484524318948388" lon="10.325920823961496">
        <ele>1348.866943359375</ele>
        <time>2003-06-07T10:32:21Z</time>
      </trkpt>
      <trkpt lat="46.484482493251562" lon="10.32609541900456">
        <ele>1347.90576171875</ele>
        <time>2003-06-07T10:32:23Z</time>
      </trkpt>
      <trkpt lat="46.484435219317675" lon="10.326282335445285">
        <ele>1347.90576171875</ele>
        <time>2003-06-07T10:32:25Z</time>
      </trkpt>
      <trkpt lat="46.484386101365089" lon="10.32647511921823">
        <ele>1347.90576171875</ele>
        <time>2003-06-07T10:32:27Z</time>
      </trkpt>
      <trkpt lat="46.484334385022521" lon="10.326673351228237">
        <ele>1346.9443359375</ele>
        <time>2003-06-07T10:32:29Z</time>
      </trkpt>
      <trkpt lat="46.484285267069936" lon="10.326858256012201">
        <ele>1347.425048828125</ele>
        <time>2003-06-07T10:32:31Z</time>
      </trkpt>
      <trkpt lat="46.484224665910006" lon="10.32705363817513">
        <ele>1347.425048828125</ele>
        <time>2003-06-07T10:32:33Z</time>
      </trkpt>
      <trkpt lat="46.484153838828206" lon="10.32724373973906">
        <ele>1346.4638671875</ele>
        <time>2003-06-07T10:32:35Z</time>
      </trkpt>
      <trkpt lat="46.48407731205225" lon="10.327421687543392">
        <ele>1346.9443359375</ele>
        <time>2003-06-07T10:32:37Z</time>
      </trkpt>
      <trkpt lat="46.483995169401169" lon="10.327574405819178">
        <ele>1346.4638671875</ele>
        <time>2003-06-07T10:32:39Z</time>
      </trkpt>
      <trkpt lat="46.483911098912358" lon="10.327716311439872">
        <ele>1346.4638671875</ele>
        <time>2003-06-07T10:32:41Z</time>
      </trkpt>
      <trkpt lat="46.483827531337738" lon="10.327848996967077">
        <ele>1346.9443359375</ele>
        <time>2003-06-07T10:32:43Z</time>
      </trkpt>
      <trkpt lat="46.483744466677308" lon="10.327972713857889">
        <ele>1346.4638671875</ele>
        <time>2003-06-07T10:32:45Z</time>
      </trkpt>
      <trkpt lat="46.483666012063622" lon="10.328084528446198">
        <ele>1346.4638671875</ele>
        <time>2003-06-07T10:32:47Z</time>
      </trkpt>
      <trkpt lat="46.483589401468635" lon="10.328199276700616">
        <ele>1346.9443359375</ele>
        <time>2003-06-07T10:32:49Z</time>
      </trkpt>
      <trkpt lat="46.483518239110708" lon="10.328297261148691">
        <ele>1347.425048828125</ele>
        <time>2003-06-07T10:32:51Z</time>
      </trkpt>
      <trkpt lat="46.483449758961797" lon="10.328398765996099">
        <ele>1347.90576171875</ele>
        <time>2003-06-07T10:32:53Z</time>
      </trkpt>
      <trkpt lat="46.483381949365139" lon="10.328502869233489">
        <ele>1347.90576171875</ele>
        <time>2003-06-07T10:32:55Z</time>
      </trkpt>
      <trkpt lat="46.483312966302037" lon="10.328609487041831">
        <ele>1347.90576171875</ele>
        <time>2003-06-07T10:32:57Z</time>
      </trkpt>
      <trkpt lat="46.483244067057967" lon="10.328726414591074">
        <ele>1349.34765625</ele>
        <time>2003-06-07T10:32:59Z</time>
      </trkpt>
      <trkpt lat="46.483177095651627" lon="10.328851221129298">
        <ele>1349.34765625</ele>
        <time>2003-06-07T10:33:01Z</time>
      </trkpt>
      <trkpt lat="46.48310786113143" lon="10.328977787867188">
        <ele>1349.34765625</ele>
        <time>2003-06-07T10:33:03Z</time>
      </trkpt>
      <trkpt lat="46.483035273849964" lon="10.329112820327282">
        <ele>1349.828369140625</ele>
        <time>2003-06-07T10:33:05Z</time>
      </trkpt>
      <trkpt lat="46.482969811186194" lon="10.329234441742301">
        <ele>1349.34765625</ele>
        <time>2003-06-07T10:33:07Z</time>
      </trkpt>
      <trkpt lat="46.482910802587867" lon="10.329356146976352">
        <ele>1349.34765625</ele>
        <time>2003-06-07T10:33:09Z</time>
      </trkpt>
      <trkpt lat="46.482860175892711" lon="10.329489503055811">
        <ele>1349.828369140625</ele>
        <time>2003-06-07T10:33:11Z</time>
      </trkpt>
      <trkpt lat="46.482817847281694" lon="10.329635180532932">
        <ele>1349.34765625</ele>
        <time>2003-06-07T10:33:13Z</time>
      </trkpt>
      <trkpt lat="46.482780883088708" lon="10.329784294590354">
        <ele>1348.866943359375</ele>
        <time>2003-06-07T10:33:15Z</time>
      </trkpt>
      <trkpt lat="46.482739308848977" lon="10.329945562407374">
        <ele>1349.828369140625</ele>
        <time>2003-06-07T10:33:17Z</time>
      </trkpt>
      <trkpt lat="46.482704943045974" lon="10.330100459977984">
        <ele>1348.866943359375</ele>
        <time>2003-06-07T10:33:19Z</time>
      </trkpt>
      <trkpt lat="46.482669990509748" lon="10.330251753330231">
        <ele>1348.866943359375</ele>
        <time>2003-06-07T10:33:21Z</time>
      </trkpt>
      <trkpt lat="46.482635708525777" lon="10.330415870994329">
        <ele>1348.866943359375</ele>
        <time>2003-06-07T10:33:23Z</time>
      </trkpt>
      <trkpt lat="46.482603522017598" lon="10.330579150468111">
        <ele>1348.866943359375</ele>
        <time>2003-06-07T10:33:25Z</time>
      </trkpt>
      <trkpt lat="46.482582651078701" lon="10.330730695277452">
        <ele>1348.38623046875</ele>
        <time>2003-06-07T10:33:27Z</time>
      </trkpt>
      <trkpt lat="46.482562450692058" lon="10.330888358876109">
        <ele>1348.38623046875</ele>
        <time>2003-06-07T10:33:29Z</time>
      </trkpt>
      <trkpt lat="46.482551218941808" lon="10.331036048009992">
        <ele>1347.90576171875</ele>
        <time>2003-06-07T10:33:31Z</time>
      </trkpt>
      <trkpt lat="46.482541412115097" lon="10.331192119047046">
        <ele>1347.90576171875</ele>
        <time>2003-06-07T10:33:33Z</time>
      </trkpt>
      <trkpt lat="46.482533952221274" lon="10.331364115700126">
        <ele>1346.4638671875</ele>
        <time>2003-06-07T10:33:35Z</time>
      </trkpt>
      <trkpt lat="46.482537724077702" lon="10.331557234749198">
        <ele>1346.9443359375</ele>
        <time>2003-06-07T10:33:37Z</time>
      </trkpt>
      <trkpt lat="46.482568485662341" lon="10.33174054697156">
        <ele>1345.50244140625</ele>
        <time>2003-06-07T10:33:39Z</time>
      </trkpt>
      <trkpt lat="46.482604360207915" lon="10.331926876679063">
        <ele>1345.50244140625</ele>
        <time>2003-06-07T10:33:41Z</time>
      </trkpt>
      <trkpt lat="46.48264124058187" lon="10.332103315740824">
        <ele>1345.021728515625</ele>
        <time>2003-06-07T10:33:43Z</time>
      </trkpt>
      <trkpt lat="46.482662865892053" lon="10.332288471981883">
        <ele>1345.021728515625</ele>
        <time>2003-06-07T10:33:45Z</time>
      </trkpt>
      <trkpt lat="46.482658004388213" lon="10.332467677071691">
        <ele>1345.983154296875</ele>
        <time>2003-06-07T10:33:47Z</time>
      </trkpt>
      <trkpt lat="46.482646772637963" lon="10.332643780857325">
        <ele>1346.4638671875</ele>
        <time>2003-06-07T10:33:49Z</time>
      </trkpt>
      <trkpt lat="46.482640318572521" lon="10.332811335101724">
        <ele>1345.983154296875</ele>
        <time>2003-06-07T10:33:51Z</time>
      </trkpt>
      <trkpt lat="46.482634618878365" lon="10.332987606525421">
        <ele>1345.983154296875</ele>
        <time>2003-06-07T10:33:53Z</time>
      </trkpt>
      <trkpt lat="46.482629589736462" lon="10.333165973424911">
        <ele>1345.983154296875</ele>
        <time>2003-06-07T10:33:55Z</time>
      </trkpt>
      <trkpt lat="46.48262950591743" lon="10.333339562639594">
        <ele>1345.983154296875</ele>
        <time>2003-06-07T10:33:57Z</time>
      </trkpt>
      <trkpt lat="46.482625231146812" lon="10.33352505415678">
        <ele>1345.983154296875</ele>
        <time>2003-06-07T10:33:59Z</time>
      </trkpt>
      <trkpt lat="46.48262120783329" lon="10.333724543452263">
        <ele>1344.541015625</ele>
        <time>2003-06-07T10:34:01Z</time>
      </trkpt>
      <trkpt lat="46.48261584341526" lon="10.333926379680634">
        <ele>1344.060546875</ele>
        <time>2003-06-07T10:34:03Z</time>
      </trkpt>
      <trkpt lat="46.482602097094059" lon="10.334130646660924">
        <ele>1343.09912109375</ele>
        <time>2003-06-07T10:34:05Z</time>
      </trkpt>
      <trkpt lat="46.482570748776197" lon="10.334348995238543">
        <ele>1342.61865234375</ele>
        <time>2003-06-07T10:34:07Z</time>
      </trkpt>
      <trkpt lat="46.482539149001241" lon="10.334562230855227">
        <ele>1341.6572265625</ele>
        <time>2003-06-07T10:34:09Z</time>
      </trkpt>
      <trkpt lat="46.482507465407252" lon="10.334775382652879">
        <ele>1341.176513671875</ele>
        <time>2003-06-07T10:34:11Z</time>
      </trkpt>
      <trkpt lat="46.482541244477034" lon="10.334988450631499">
        <ele>1341.176513671875</ele>
        <time>2003-06-07T10:34:13Z</time>
      </trkpt>
      <trkpt lat="46.482633948326111" lon="10.335172265768051">
        <ele>1339.734375</ele>
        <time>2003-06-07T10:34:15Z</time>
      </trkpt>
      <trkpt lat="46.482729921117425" lon="10.335353314876556">
        <ele>1340.21533203125</ele>
        <time>2003-06-07T10:34:17Z</time>
      </trkpt>
      <trkpt lat="46.4828244689852" lon="10.335527323186398">
        <ele>1339.734375</ele>
        <time>2003-06-07T10:34:19Z</time>
      </trkpt>
      <trkpt lat="46.48290409706533" lon="10.335712982341647">
        <ele>1338.773193359375</ele>
        <time>2003-06-07T10:34:21Z</time>
      </trkpt>
      <trkpt lat="46.482964446768165" lon="10.335911884903908">
        <ele>1338.29248046875</ele>
        <time>2003-06-07T10:34:23Z</time>
      </trkpt>
      <trkpt lat="46.483010966330767" lon="10.336124282330275">
        <ele>1338.29248046875</ele>
        <time>2003-06-07T10:34:25Z</time>
      </trkpt>
      <trkpt lat="46.483037369325757" lon="10.336336260661483">
        <ele>1337.811767578125</ele>
        <time>2003-06-07T10:34:27Z</time>
      </trkpt>
      <trkpt lat="46.483047846704721" lon="10.336550669744611">
        <ele>1338.29248046875</ele>
        <time>2003-06-07T10:34:29Z</time>
      </trkpt>
      <trkpt lat="46.483023203909397" lon="10.336745297536254">
        <ele>1337.3310546875</ele>
        <time>2003-06-07T10:34:31Z</time>
      </trkpt>
      <trkpt lat="46.482975846156478" lon="10.33693565055728">
        <ele>1338.29248046875</ele>
        <time>2003-06-07T10:34:33Z</time>
      </trkpt>
      <trkpt lat="46.482927147299051" lon="10.337119633331895">
        <ele>1337.811767578125</ele>
        <time>2003-06-07T10:34:35Z</time>
      </trkpt>
      <trkpt lat="46.482879035174847" lon="10.337298838421702">
        <ele>1337.3310546875</ele>
        <time>2003-06-07T10:34:37Z</time>
      </trkpt>
      <trkpt lat="46.482840729877353" lon="10.337480390444398">
        <ele>1337.3310546875</ele>
        <time>2003-06-07T10:34:39Z</time>
      </trkpt>
      <trkpt lat="46.482821451500058" lon="10.337666720151901">
        <ele>1337.3310546875</ele>
        <time>2003-06-07T10:34:41Z</time>
      </trkpt>
      <trkpt lat="46.482816757634282" lon="10.337846931070089">
        <ele>1337.811767578125</ele>
        <time>2003-06-07T10:34:43Z</time>
      </trkpt>
      <trkpt lat="46.4828279055655" lon="10.338030075654387">
        <ele>1337.811767578125</ele>
        <time>2003-06-07T10:34:45Z</time>
      </trkpt>
      <trkpt lat="46.482854224741459" lon="10.338225709274411">
        <ele>1337.3310546875</ele>
        <time>2003-06-07T10:34:47Z</time>
      </trkpt>
      <trkpt lat="46.482904348522425" lon="10.338394688442349">
        <ele>1337.3310546875</ele>
        <time>2003-06-07T10:34:49Z</time>
      </trkpt>
      <trkpt lat="46.482951957732439" lon="10.338559560477734">
        <ele>1337.3310546875</ele>
        <time>2003-06-07T10:34:51Z</time>
      </trkpt>
      <trkpt lat="46.482984647154808" lon="10.338729126378894">
        <ele>1336.850341796875</ele>
        <time>2003-06-07T10:34:53Z</time>
      </trkpt>
      <trkpt lat="46.482969811186194" lon="10.338901458308101">
        <ele>1336.850341796875</ele>
        <time>2003-06-07T10:34:55Z</time>
      </trkpt>
      <trkpt lat="46.482906779274344" lon="10.33906071446836">
        <ele>1336.369873046875</ele>
        <time>2003-06-07T10:34:57Z</time>
      </trkpt>
      <trkpt lat="46.482836958020926" lon="10.339205302298069">
        <ele>1337.3310546875</ele>
        <time>2003-06-07T10:34:59Z</time>
      </trkpt>
      <trkpt lat="46.482748780399561" lon="10.339321978390217">
        <ele>1337.3310546875</ele>
        <time>2003-06-07T10:35:01Z</time>
      </trkpt>
      <trkpt lat="46.482664458453655" lon="10.33943060785532">
        <ele>1338.29248046875</ele>
        <time>2003-06-07T10:35:03Z</time>
      </trkpt>
      <trkpt lat="46.482602851465344" lon="10.33955373801291">
        <ele>1338.773193359375</ele>
        <time>2003-06-07T10:35:05Z</time>
      </trkpt>
      <trkpt lat="46.48256697691977" lon="10.339701762422919">
        <ele>1339.734375</ele>
        <time>2003-06-07T10:35:07Z</time>
      </trkpt>
      <trkpt lat="46.482542753219604" lon="10.339856324717402">
        <ele>1340.69580078125</ele>
        <time>2003-06-07T10:35:09Z</time>
      </trkpt>
      <trkpt lat="46.48253177292645" lon="10.340012228116393">
        <ele>1340.69580078125</ele>
        <time>2003-06-07T10:35:11Z</time>
      </trkpt>
      <trkpt lat="46.482518780976534" lon="10.340162264183164">
        <ele>1340.21533203125</ele>
        <time>2003-06-07T10:35:13Z</time>
      </trkpt>
      <trkpt lat="46.482506962493062" lon="10.34030869603157">
        <ele>1340.69580078125</ele>
        <time>2003-06-07T10:35:15Z</time>
      </trkpt>
      <trkpt lat="46.482496652752161" lon="10.340452361851931">
        <ele>1340.69580078125</ele>
        <time>2003-06-07T10:35:17Z</time>
      </trkpt>
      <trkpt lat="46.482485672459006" lon="10.340592255815864">
        <ele>1340.69580078125</ele>
        <time>2003-06-07T10:35:19Z</time>
      </trkpt>
      <trkpt lat="46.482489611953497" lon="10.340730724856257">
        <ele>1340.69580078125</ele>
        <time>2003-06-07T10:35:21Z</time>
      </trkpt>
      <trkpt lat="46.48250587284565" lon="10.340866846963763">
        <ele>1340.69580078125</ele>
        <time>2003-06-07T10:35:23Z</time>
      </trkpt>
      <trkpt lat="46.482541495934129" lon="10.340995844453573">
        <ele>1341.176513671875</ele>
        <time>2003-06-07T10:35:25Z</time>
      </trkpt>
      <trkpt lat="46.482593547552824" lon="10.341106988489628">
        <ele>1340.69580078125</ele>
        <time>2003-06-07T10:35:27Z</time>
      </trkpt>
      <trkpt lat="46.482650879770517" lon="10.341219305992126">
        <ele>1341.176513671875</ele>
        <time>2003-06-07T10:35:29Z</time>
      </trkpt>
      <trkpt lat="46.48270963691175" lon="10.341329863294959">
        <ele>1340.69580078125</ele>
        <time>2003-06-07T10:35:31Z</time>
      </trkpt>
      <trkpt lat="46.482773758471012" lon="10.341437822207808">
        <ele>1340.69580078125</ele>
        <time>2003-06-07T10:35:33Z</time>
      </trkpt>
      <trkpt lat="46.482837796211243" lon="10.341541254892945">
        <ele>1340.69580078125</ele>
        <time>2003-06-07T10:35:35Z</time>
      </trkpt>
      <trkpt lat="46.482900409027934" lon="10.341645944863558">
        <ele>1341.176513671875</ele>
        <time>2003-06-07T10:35:37Z</time>
      </trkpt>
      <trkpt lat="46.482962938025594" lon="10.341750718653202">
        <ele>1339.734375</ele>
        <time>2003-06-07T10:35:39Z</time>
      </trkpt>
      <trkpt lat="46.483028568327427" lon="10.341858845204115">
        <ele>1340.21533203125</ele>
        <time>2003-06-07T10:35:41Z</time>
      </trkpt>
      <trkpt lat="46.483102915808558" lon="10.341967893764377">
        <ele>1339.734375</ele>
        <time>2003-06-07T10:35:43Z</time>
      </trkpt>
      <trkpt lat="46.483180783689022" lon="10.342085072770715">
        <ele>1339.734375</ele>
        <time>2003-06-07T10:35:45Z</time>
      </trkpt>
      <trkpt lat="46.483266949653625" lon="10.342219183221459">
        <ele>1339.734375</ele>
        <time>2003-06-07T10:35:47Z</time>
      </trkpt>
      <trkpt lat="46.483351774513721" lon="10.342348096892238">
        <ele>1339.734375</ele>
        <time>2003-06-07T10:35:49Z</time>
      </trkpt>
      <trkpt lat="46.483431402593851" lon="10.342484721913934">
        <ele>1339.734375</ele>
        <time>2003-06-07T10:35:51Z</time>
      </trkpt>
      <trkpt lat="46.483507929369807" lon="10.342623442411423">
        <ele>1339.734375</ele>
        <time>2003-06-07T10:35:53Z</time>
      </trkpt>
      <trkpt lat="46.483586216345429" lon="10.34276207908988">
        <ele>1339.734375</ele>
        <time>2003-06-07T10:35:55Z</time>
      </trkpt>
      <trkpt lat="46.483661653473973" lon="10.342910271137953">
        <ele>1339.253662109375</ele>
        <time>2003-06-07T10:35:57Z</time>
      </trkpt>
      <trkpt lat="46.483738766983151" lon="10.343056367710233">
        <ele>1339.253662109375</ele>
        <time>2003-06-07T10:35:59Z</time>
      </trkpt>
      <trkpt lat="46.483819652348757" lon="10.343194250017405">
        <ele>1340.21533203125</ele>
        <time>2003-06-07T10:36:01Z</time>
      </trkpt>
      <trkpt lat="46.483905985951424" lon="10.343312602490187">
        <ele>1339.734375</ele>
        <time>2003-06-07T10:36:03Z</time>
      </trkpt>
      <trkpt lat="46.483994498848915" lon="10.343417627736926">
        <ele>1340.69580078125</ele>
        <time>2003-06-07T10:36:05Z</time>
      </trkpt>
      <trkpt lat="46.484080916270614" lon="10.343517791479826">
        <ele>1340.69580078125</ele>
        <time>2003-06-07T10:36:07Z</time>
      </trkpt>
      <trkpt lat="46.484166998416185" lon="10.343607310205698">
        <ele>1340.69580078125</ele>
        <time>2003-06-07T10:36:09Z</time>
      </trkpt>
      <trkpt lat="46.484253164380789" lon="10.343684423714876">
        <ele>1340.69580078125</ele>
        <time>2003-06-07T10:36:11Z</time>
      </trkpt>
      <trkpt lat="46.484332708641887" lon="10.343755334615707">
        <ele>1341.176513671875</ele>
        <time>2003-06-07T10:36:13Z</time>
      </trkpt>
      <trkpt lat="46.48441057652235" lon="10.34382632933557">
        <ele>1342.61865234375</ele>
        <time>2003-06-07T10:36:15Z</time>
      </trkpt>
      <trkpt lat="46.48451660759747" lon="10.343935545533895">
        <ele>1343.579833984375</ele>
        <time>2003-06-07T10:36:18Z</time>
      </trkpt>
      <trkpt lat="46.484596906229854" lon="10.34405205398798">
        <ele>1343.09912109375</ele>
        <time>2003-06-07T10:36:21Z</time>
      </trkpt>
      <trkpt lat="46.484670666977763" lon="10.344148362055421">
        <ele>1342.61865234375</ele>
        <time>2003-06-07T10:36:24Z</time>
      </trkpt>
      <trkpt lat="46.484703188762069" lon="10.344271408393979">
        <ele>1342.61865234375</ele>
        <time>2003-06-07T10:36:28Z</time>
      </trkpt>
      <trkpt lat="46.4847032725811" lon="10.344374421983957">
        <ele>1342.137939453125</ele>
        <time>2003-06-07T10:37:05Z</time>
      </trkpt>
      <trkpt lat="46.484782230108976" lon="10.344508197158575">
        <ele>1340.69580078125</ele>
        <time>2003-06-07T10:37:08Z</time>
      </trkpt>
      <trkpt lat="46.484836712479591" lon="10.344628812745214">
        <ele>1339.734375</ele>
        <time>2003-06-07T10:37:10Z</time>
      </trkpt>
      <trkpt lat="46.484901336953044" lon="10.34475713968277">
        <ele>1339.253662109375</ele>
        <time>2003-06-07T10:37:12Z</time>
      </trkpt>
      <trkpt lat="46.484969733282924" lon="10.344889154657722">
        <ele>1338.773193359375</ele>
        <time>2003-06-07T10:37:14Z</time>
      </trkpt>
      <trkpt lat="46.485046595335007" lon="10.345016811043024">
        <ele>1337.811767578125</ele>
        <time>2003-06-07T10:37:16Z</time>
      </trkpt>
      <trkpt lat="46.485123792663217" lon="10.345149748027325">
        <ele>1337.3310546875</ele>
        <time>2003-06-07T10:37:18Z</time>
      </trkpt>
      <trkpt lat="46.485204678028822" lon="10.345281260088086">
        <ele>1336.850341796875</ele>
        <time>2003-06-07T10:37:20Z</time>
      </trkpt>
      <trkpt lat="46.48528472520411" lon="10.345418723300099">
        <ele>1335.408447265625</ele>
        <time>2003-06-07T10:37:22Z</time>
      </trkpt>
      <trkpt lat="46.485344236716628" lon="10.345592983067036">
        <ele>1334.927978515625</ele>
        <time>2003-06-07T10:37:24Z</time>
      </trkpt>
      <trkpt lat="46.485399138182402" lon="10.345792807638645">
        <ele>1334.447265625</ele>
        <time>2003-06-07T10:37:26Z</time>
      </trkpt>
      <trkpt lat="46.485465355217457" lon="10.346007132902741">
        <ele>1333.966552734375</ele>
        <time>2003-06-07T10:37:28Z</time>
      </trkpt>
      <trkpt lat="46.485540708526969" lon="10.346242664381862">
        <ele>1333.005126953125</ele>
        <time>2003-06-07T10:37:30Z</time>
      </trkpt>
      <trkpt lat="46.485583875328302" lon="10.346366381272674">
        <ele>1332.524658203125</ele>
        <time>2003-06-07T10:37:31Z</time>
      </trkpt>
      <trkpt lat="46.485635340213776" lon="10.346472328528762">
        <ele>1332.0439453125</ele>
        <time>2003-06-07T10:37:32Z</time>
      </trkpt>
      <trkpt lat="46.485731648281217" lon="10.346692940220237">
        <ele>1330.60205078125</ele>
        <time>2003-06-07T10:37:34Z</time>
      </trkpt>
      <trkpt lat="46.485781520605087" lon="10.346808694303036">
        <ele>1329.159912109375</ele>
        <time>2003-06-07T10:37:35Z</time>
      </trkpt>
      <trkpt lat="46.48581144399941" lon="10.346955042332411">
        <ele>1328.679443359375</ele>
        <time>2003-06-07T10:37:36Z</time>
      </trkpt>
      <trkpt lat="46.485842540860176" lon="10.347107592970133">
        <ele>1327.718017578125</ele>
        <time>2003-06-07T10:37:37Z</time>
      </trkpt>
      <trkpt lat="46.485854778438807" lon="10.347282439470291">
        <ele>1326.276123046875</ele>
        <time>2003-06-07T10:37:38Z</time>
      </trkpt>
      <trkpt lat="46.485866429284215" lon="10.347451753914356">
        <ele>1325.79541015625</ele>
        <time>2003-06-07T10:37:39Z</time>
      </trkpt>
      <trkpt lat="46.485872380435467" lon="10.347637580707669">
        <ele>1325.314697265625</ele>
        <time>2003-06-07T10:37:40Z</time>
      </trkpt>
      <trkpt lat="46.485878666862845" lon="10.347822904586792">
        <ele>1322.4306640625</ele>
        <time>2003-06-07T10:37:41Z</time>
      </trkpt>
      <trkpt lat="46.485853102058172" lon="10.348000349476933">
        <ele>1321.949951171875</ele>
        <time>2003-06-07T10:37:42Z</time>
      </trkpt>
      <trkpt lat="46.485817227512598" lon="10.348175028339028">
        <ele>1320.98876953125</ele>
        <time>2003-06-07T10:37:43Z</time>
      </trkpt>
      <trkpt lat="46.48578118532896" lon="10.34834710881114">
        <ele>1320.02734375</ele>
        <time>2003-06-07T10:37:44Z</time>
      </trkpt>
      <trkpt lat="46.485733659937978" lon="10.34850686788559">
        <ele>1319.546875</ele>
        <time>2003-06-07T10:37:45Z</time>
      </trkpt>
      <trkpt lat="46.485681021586061" lon="10.348670314997435">
        <ele>1318.58544921875</ele>
        <time>2003-06-07T10:37:46Z</time>
      </trkpt>
      <trkpt lat="46.48562285117805" lon="10.348831918090582">
        <ele>1317.6240234375</ele>
        <time>2003-06-07T10:37:47Z</time>
      </trkpt>
      <trkpt lat="46.485568284988403" lon="10.348981618881226">
        <ele>1316.662841796875</ele>
        <time>2003-06-07T10:37:48Z</time>
      </trkpt>
      <trkpt lat="46.48552168160677" lon="10.34910156391561">
        <ele>1315.70166015625</ele>
        <time>2003-06-07T10:37:49Z</time>
      </trkpt>
      <trkpt lat="46.485471306368709" lon="10.349227963015437">
        <ele>1314.740234375</ele>
        <time>2003-06-07T10:37:50Z</time>
      </trkpt>
      <trkpt lat="46.48542495444417" lon="10.349350925534964">
        <ele>1314.259521484375</ele>
        <time>2003-06-07T10:37:51Z</time>
      </trkpt>
      <trkpt lat="46.485379692167044" lon="10.349469026550651">
        <ele>1313.29833984375</ele>
        <time>2003-06-07T10:37:52Z</time>
      </trkpt>
      <trkpt lat="46.485337698832154" lon="10.34959651529789">
        <ele>1312.3369140625</ele>
        <time>2003-06-07T10:37:53Z</time>
      </trkpt>
      <trkpt lat="46.485254717990756" lon="10.349852750077844">
        <ele>1309.93359375</ele>
        <time>2003-06-07T10:37:55Z</time>
      </trkpt>
      <trkpt lat="46.48521632887423" lon="10.349987782537937">
        <ele>1309.453125</ele>
        <time>2003-06-07T10:37:56Z</time>
      </trkpt>
      <trkpt lat="46.485185315832496" lon="10.350118456408381">
        <ele>1308.49169921875</ele>
        <time>2003-06-07T10:37:57Z</time>
      </trkpt>
      <trkpt lat="46.485155811533332" lon="10.350256338715553">
        <ele>1306.56884765625</ele>
        <time>2003-06-07T10:37:58Z</time>
      </trkpt>
      <trkpt lat="46.48512689396739" lon="10.350407380610704">
        <ele>1305.607666015625</ele>
        <time>2003-06-07T10:37:59Z</time>
      </trkpt>
      <trkpt lat="46.485103759914637" lon="10.350547023117542">
        <ele>1304.646240234375</ele>
        <time>2003-06-07T10:38:00Z</time>
      </trkpt>
      <trkpt lat="46.485080542042851" lon="10.350686749443412">
        <ele>1303.204345703125</ele>
        <time>2003-06-07T10:38:01Z</time>
      </trkpt>
      <trkpt lat="46.485068136826158" lon="10.350917167961597">
        <ele>1301.762451171875</ele>
        <time>2003-06-07T10:38:03Z</time>
      </trkpt>
      <trkpt lat="46.48507165722549" lon="10.35109712742269">
        <ele>1300.801025390625</ele>
        <time>2003-06-07T10:38:05Z</time>
      </trkpt>
      <trkpt lat="46.485065622255206" lon="10.351283960044384">
        <ele>1298.87841796875</ele>
        <time>2003-06-07T10:38:07Z</time>
      </trkpt>
      <trkpt lat="46.485029580071568" lon="10.351396529003978">
        <ele>1297.917236328125</ele>
        <time>2003-06-07T10:38:09Z</time>
      </trkpt>
      <trkpt lat="46.484980210661888" lon="10.35142251290381">
        <ele>1296.475341796875</ele>
        <time>2003-06-07T10:38:14Z</time>
      </trkpt>
      <trkpt lat="46.484889853745699" lon="10.35127641633153">
        <ele>1295.99462890625</ele>
        <time>2003-06-07T10:38:42Z</time>
      </trkpt>
      <trkpt lat="46.484801843762398" lon="10.351255042478442">
        <ele>1295.513916015625</ele>
        <time>2003-06-07T10:38:46Z</time>
      </trkpt>
      <trkpt lat="46.484711319208145" lon="10.351360067725182">
        <ele>1295.033203125</ele>
        <time>2003-06-07T10:38:49Z</time>
      </trkpt>
      <trkpt lat="46.484603444114327" lon="10.351486718282104">
        <ele>1294.072021484375</ele>
        <time>2003-06-07T10:38:52Z</time>
      </trkpt>
      <trkpt lat="46.484526582062244" lon="10.351590486243367">
        <ele>1294.072021484375</ele>
        <time>2003-06-07T10:38:54Z</time>
      </trkpt>
      <trkpt lat="46.48444963619113" lon="10.351694254204631">
        <ele>1292.630126953125</ele>
        <time>2003-06-07T10:38:56Z</time>
      </trkpt>
      <trkpt lat="46.484372690320015" lon="10.351798105984926">
        <ele>1291.187744140625</ele>
        <time>2003-06-07T10:38:58Z</time>
      </trkpt>
      <trkpt lat="46.484295828267932" lon="10.35190187394619">
        <ele>1290.2265625</ele>
        <time>2003-06-07T10:39:00Z</time>
      </trkpt>
      <trkpt lat="46.484214188531041" lon="10.352052161470056">
        <ele>1289.745849609375</ele>
        <time>2003-06-07T10:39:02Z</time>
      </trkpt>
      <trkpt lat="46.48412860929966" lon="10.352208148688078">
        <ele>1289.26513671875</ele>
        <time>2003-06-07T10:39:04Z</time>
      </trkpt>
      <trkpt lat="46.484061889350414" lon="10.352368745952845">
        <ele>1288.303955078125</ele>
        <time>2003-06-07T10:39:06Z</time>
      </trkpt>
      <trkpt lat="46.48401134647429" lon="10.352497072890401">
        <ele>1287.342529296875</ele>
        <time>2003-06-07T10:39:08Z</time>
      </trkpt>
      <trkpt lat="46.48402601480484" lon="10.352650880813599">
        <ele>1285.900634765625</ele>
        <time>2003-06-07T10:39:11Z</time>
      </trkpt>
      <trkpt lat="46.484031043946743" lon="10.352813322097063">
        <ele>1284.458740234375</ele>
        <time>2003-06-07T10:39:14Z</time>
      </trkpt>
      <trkpt lat="46.484078066423535" lon="10.352944582700729">
        <ele>1283.97802734375</ele>
        <time>2003-06-07T10:39:17Z</time>
      </trkpt>
      <trkpt lat="46.484130118042231" lon="10.353126134723425">
        <ele>1283.497314453125</ele>
        <time>2003-06-07T10:39:22Z</time>
      </trkpt>
      <trkpt lat="46.484378641471267" lon="10.353260999545455">
        <ele>1281.57470703125</ele>
        <time>2003-06-07T10:39:55Z</time>
      </trkpt>
      <trkpt lat="46.484540244564414" lon="10.353212971240282">
        <ele>1280.613525390625</ele>
        <time>2003-06-07T10:39:57Z</time>
      </trkpt>
      <trkpt lat="46.484600845724344" lon="10.353291342034936">
        <ele>1278.69091796875</ele>
        <time>2003-06-07T10:40:00Z</time>
      </trkpt>
      <trkpt lat="46.48450537584722" lon="10.35323778167367">
        <ele>1277.7294921875</ele>
        <time>2003-06-07T10:40:06Z</time>
      </trkpt>
      <trkpt lat="46.484402948990464" lon="10.353185394778848">
        <ele>1276.768310546875</ele>
        <time>2003-06-07T10:40:12Z</time>
      </trkpt>
      <trkpt lat="46.484296498820186" lon="10.353193273767829">
        <ele>1274.36474609375</ele>
        <time>2003-06-07T10:40:16Z</time>
      </trkpt>
      <trkpt lat="46.484173703938723" lon="10.353266028687358">
        <ele>1272.442138671875</ele>
        <time>2003-06-07T10:40:20Z</time>
      </trkpt>
      <trkpt lat="46.484110504388809" lon="10.353444898501039">
        <ele>1271.96142578125</ele>
        <time>2003-06-07T10:40:22Z</time>
      </trkpt>
      <trkpt lat="46.484044371172786" lon="10.353627372533083">
        <ele>1271.000244140625</ele>
        <time>2003-06-07T10:40:25Z</time>
      </trkpt>
      <trkpt lat="46.483976896852255" lon="10.353764081373811">
        <ele>1270.51953125</ele>
        <time>2003-06-07T10:40:28Z</time>
      </trkpt>
      <trkpt lat="46.483915289863944" lon="10.353872291743755">
        <ele>1270.51953125</ele>
        <time>2003-06-07T10:40:32Z</time>
      </trkpt>
      <trkpt lat="46.483837924897671" lon="10.353948818519711">
        <ele>1270.038818359375</ele>
        <time>2003-06-07T10:40:38Z</time>
      </trkpt>
      <trkpt lat="46.483799200505018" lon="10.354042109102011">
        <ele>1271.000244140625</ele>
        <time>2003-06-07T10:40:52Z</time>
      </trkpt>
      <trkpt lat="46.483730301260948" lon="10.354126766324043">
        <ele>1271.96142578125</ele>
        <time>2003-06-07T10:41:00Z</time>
      </trkpt>
      <trkpt lat="46.483585629612207" lon="10.3542067296803">
        <ele>1275.325927734375</ele>
        <time>2003-06-07T10:41:36Z</time>
      </trkpt>
      <trkpt lat="46.483464511111379" lon="10.354210836812854">
        <ele>1276.768310546875</ele>
        <time>2003-06-07T10:41:43Z</time>
      </trkpt>
      <trkpt lat="46.483375411480665" lon="10.354246124625206">
        <ele>1278.69091796875</ele>
        <time>2003-06-07T10:41:49Z</time>
      </trkpt>
      <trkpt lat="46.483290251344442" lon="10.35429809242487">
        <ele>1280.613525390625</ele>
        <time>2003-06-07T10:41:55Z</time>
      </trkpt>
      <trkpt lat="46.483211042359471" lon="10.354358609765768">
        <ele>1281.57470703125</ele>
        <time>2003-06-07T10:42:01Z</time>
      </trkpt>
      <trkpt lat="46.483120433986187" lon="10.354451984167099">
        <ele>1282.055419921875</ele>
        <time>2003-06-07T10:42:07Z</time>
      </trkpt>
      <trkpt lat="46.483049774542451" lon="10.354546699672937">
        <ele>1283.0166015625</ele>
        <time>2003-06-07T10:42:12Z</time>
      </trkpt>
      <trkpt lat="46.482992777600884" lon="10.354677205905318">
        <ele>1284.458740234375</ele>
        <time>2003-06-07T10:42:18Z</time>
      </trkpt>
      <trkpt lat="46.482961513102055" lon="10.354827074334025">
        <ele>1284.458740234375</ele>
        <time>2003-06-07T10:42:24Z</time>
      </trkpt>
      <trkpt lat="46.482976851984859" lon="10.354972584173083">
        <ele>1285.900634765625</ele>
        <time>2003-06-07T10:42:31Z</time>
      </trkpt>
      <trkpt lat="46.482932846993208" lon="10.355060929432511">
        <ele>1286.38134765625</ele>
        <time>2003-06-07T10:43:01Z</time>
      </trkpt>
      <trkpt lat="46.482890602201223" lon="10.355188669636846">
        <ele>1286.38134765625</ele>
        <time>2003-06-07T10:43:05Z</time>
      </trkpt>
      <trkpt lat="46.482864953577518" lon="10.355356307700276">
        <ele>1285.419921875</ele>
        <time>2003-06-07T10:43:09Z</time>
      </trkpt>
      <trkpt lat="46.482839388772845" lon="10.355523945763707">
        <ele>1284.939453125</ele>
        <time>2003-06-07T10:43:13Z</time>
      </trkpt>
      <trkpt lat="46.482809297740459" lon="10.355650596320629">
        <ele>1284.458740234375</ele>
        <time>2003-06-07T10:43:16Z</time>
      </trkpt>
      <trkpt lat="46.482777614146471" lon="10.355818066745996">
        <ele>1285.900634765625</ele>
        <time>2003-06-07T10:43:20Z</time>
      </trkpt>
      <trkpt lat="46.482749367132783" lon="10.355976149439812">
        <ele>1287.342529296875</ele>
        <time>2003-06-07T10:43:24Z</time>
      </trkpt>
      <trkpt lat="46.482688849791884" lon="10.3561079967767">
        <ele>1287.342529296875</ele>
        <time>2003-06-07T10:43:28Z</time>
      </trkpt>
      <trkpt lat="46.482617184519768" lon="10.356217799708247">
        <ele>1287.342529296875</ele>
        <time>2003-06-07T10:43:32Z</time>
      </trkpt>
      <trkpt lat="46.482534119859338" lon="10.356332464143634">
        <ele>1287.342529296875</ele>
        <time>2003-06-07T10:43:37Z</time>
      </trkpt>
      <trkpt lat="46.482458431273699" lon="10.356447631493211">
        <ele>1287.342529296875</ele>
        <time>2003-06-07T10:43:42Z</time>
      </trkpt>
      <trkpt lat="46.48237444460392" lon="10.356544777750969">
        <ele>1287.342529296875</ele>
        <time>2003-06-07T10:43:46Z</time>
      </trkpt>
      <trkpt lat="46.482253829017282" lon="10.356633206829429">
        <ele>1287.8232421875</ele>
        <time>2003-06-07T10:43:50Z</time>
      </trkpt>
      <trkpt lat="46.482131872326136" lon="10.356694646179676">
        <ele>1287.342529296875</ele>
        <time>2003-06-07T10:43:53Z</time>
      </trkpt>
      <trkpt lat="46.482016537338495" lon="10.356800174340606">
        <ele>1287.342529296875</ele>
        <time>2003-06-07T10:43:56Z</time>
      </trkpt>
      <trkpt lat="46.481936573982239" lon="10.356919532641768">
        <ele>1287.342529296875</ele>
        <time>2003-06-07T10:43:58Z</time>
      </trkpt>
      <trkpt lat="46.481861555948853" lon="10.357033777981997">
        <ele>1286.86181640625</ele>
        <time>2003-06-07T10:44:00Z</time>
      </trkpt>
      <trkpt lat="46.481787208467722" lon="10.357151795178652">
        <ele>1286.38134765625</ele>
        <time>2003-06-07T10:44:02Z</time>
      </trkpt>
      <trkpt lat="46.481717806309462" lon="10.357270399108529">
        <ele>1286.38134765625</ele>
        <time>2003-06-07T10:44:04Z</time>
      </trkpt>
      <trkpt lat="46.481650834903121" lon="10.357378525659442">
        <ele>1285.900634765625</ele>
        <time>2003-06-07T10:44:06Z</time>
      </trkpt>
      <trkpt lat="46.481584617868066" lon="10.35748103633523">
        <ele>1285.900634765625</ele>
        <time>2003-06-07T10:44:08Z</time>
      </trkpt>
      <trkpt lat="46.481519155204296" lon="10.357572566717863">
        <ele>1284.939453125</ele>
        <time>2003-06-07T10:44:10Z</time>
      </trkpt>
      <trkpt lat="46.481431983411312" lon="10.357652446255088">
        <ele>1285.419921875</ele>
        <time>2003-06-07T10:44:12Z</time>
      </trkpt>
      <trkpt lat="46.481338189914823" lon="10.357716819271445">
        <ele>1283.97802734375</ele>
        <time>2003-06-07T10:44:14Z</time>
      </trkpt>
      <trkpt lat="46.481248419731855" lon="10.357775827869773">
        <ele>1283.497314453125</ele>
        <time>2003-06-07T10:44:16Z</time>
      </trkpt>
      <trkpt lat="46.481130234897137" lon="10.357862580567598">
        <ele>1282.5361328125</ele>
        <time>2003-06-07T10:44:19Z</time>
      </trkpt>
      <trkpt lat="46.481040297076106" lon="10.357937179505825">
        <ele>1282.055419921875</ele>
        <time>2003-06-07T10:44:22Z</time>
      </trkpt>
      <trkpt lat="46.480959160253406" lon="10.35801806487143">
        <ele>1281.57470703125</ele>
        <time>2003-06-07T10:44:25Z</time>
      </trkpt>
      <trkpt lat="46.480887746438384" lon="10.35808403044939">
        <ele>1281.09423828125</ele>
        <time>2003-06-07T10:44:28Z</time>
      </trkpt>
      <trkpt lat="46.480821780860424" lon="10.358147732913494">
        <ele>1279.652099609375</ele>
        <time>2003-06-07T10:44:36Z</time>
      </trkpt>
      <trkpt lat="46.480727065354586" lon="10.358238844200969">
        <ele>1280.1328125</ele>
        <time>2003-06-07T10:44:41Z</time>
      </trkpt>
      <trkpt lat="46.480643665418029" lon="10.358318975195289">
        <ele>1279.652099609375</ele>
        <time>2003-06-07T10:44:44Z</time>
      </trkpt>
      <trkpt lat="46.480558086186647" lon="10.358407320454717">
        <ele>1279.17138671875</ele>
        <time>2003-06-07T10:44:47Z</time>
      </trkpt>
      <trkpt lat="46.480552889406681" lon="10.35841528326273">
        <ele>1273.403564453125</ele>
        <time>2003-06-07T10:48:35Z</time>
      </trkpt>
      <trkpt lat="46.480514751747251" lon="10.358476135879755">
        <ele>1274.845458984375</ele>
        <time>2003-06-07T10:49:18Z</time>
      </trkpt>
      <trkpt lat="46.480432944372296" lon="10.358579652383924">
        <ele>1274.36474609375</ele>
        <time>2003-06-07T10:49:22Z</time>
      </trkpt>
      <trkpt lat="46.480351304635406" lon="10.358689874410629">
        <ele>1274.36474609375</ele>
        <time>2003-06-07T10:49:25Z</time>
      </trkpt>
      <trkpt lat="46.480249296873808" lon="10.358821386471391">
        <ele>1273.884033203125</ele>
        <time>2003-06-07T10:49:28Z</time>
      </trkpt>
      <trkpt lat="46.48017268627882" lon="10.358938984572887">
        <ele>1272.442138671875</ele>
        <time>2003-06-07T10:49:30Z</time>
      </trkpt>
      <trkpt lat="46.480089286342263" lon="10.359057923778892">
        <ele>1272.442138671875</ele>
        <time>2003-06-07T10:49:32Z</time>
      </trkpt>
      <trkpt lat="46.479994654655457" lon="10.359175438061357">
        <ele>1271.480712890625</ele>
        <time>2003-06-07T10:49:34Z</time>
      </trkpt>
      <trkpt lat="46.479888036847115" lon="10.35928507335484">
        <ele>1271.000244140625</ele>
        <time>2003-06-07T10:49:36Z</time>
      </trkpt>
      <trkpt lat="46.479775635525584" lon="10.359366293996572">
        <ele>1271.000244140625</ele>
        <time>2003-06-07T10:49:38Z</time>
      </trkpt>
      <trkpt lat="46.479684440419078" lon="10.359410298988223">
        <ele>1270.51953125</ele>
        <time>2003-06-07T10:49:40Z</time>
      </trkpt>
      <trkpt lat="46.479620570316911" lon="10.359514402225614">
        <ele>1270.038818359375</ele>
        <time>2003-06-07T10:49:43Z</time>
      </trkpt>
      <trkpt lat="46.479568183422089" lon="10.359642310068011">
        <ele>1270.038818359375</ele>
        <time>2003-06-07T10:49:46Z</time>
      </trkpt>
      <trkpt lat="46.479511270299554" lon="10.359765104949474">
        <ele>1270.038818359375</ele>
        <time>2003-06-07T10:49:49Z</time>
      </trkpt>
      <trkpt lat="46.479449411854148" lon="10.359879685565829">
        <ele>1270.038818359375</ele>
        <time>2003-06-07T10:49:52Z</time>
      </trkpt>
      <trkpt lat="46.479389145970345" lon="10.359991332516074">
        <ele>1269.558349609375</ele>
        <time>2003-06-07T10:49:55Z</time>
      </trkpt>
      <trkpt lat="46.479329215362668" lon="10.360114714130759">
        <ele>1270.51953125</ele>
        <time>2003-06-07T10:49:58Z</time>
      </trkpt>
      <trkpt lat="46.479260232299566" lon="10.36023641936481">
        <ele>1271.000244140625</ele>
        <time>2003-06-07T10:50:01Z</time>
      </trkpt>
      <trkpt lat="46.479187812656164" lon="10.36036248318851">
        <ele>1271.000244140625</ele>
        <time>2003-06-07T10:50:04Z</time>
      </trkpt>
      <trkpt lat="46.479121511802077" lon="10.360492570325732">
        <ele>1271.000244140625</ele>
        <time>2003-06-07T10:50:07Z</time>
      </trkpt>
      <trkpt lat="46.479062000289559" lon="10.360610503703356">
        <ele>1271.480712890625</ele>
        <time>2003-06-07T10:50:10Z</time>
      </trkpt>
      <trkpt lat="46.478997208178043" lon="10.360735980793834">
        <ele>1271.96142578125</ele>
        <time>2003-06-07T10:50:13Z</time>
      </trkpt>
      <trkpt lat="46.47892571054399" lon="10.360874366015196">
        <ele>1271.96142578125</ele>
        <time>2003-06-07T10:50:16Z</time>
      </trkpt>
      <trkpt lat="46.478846166282892" lon="10.361022055149078">
        <ele>1272.442138671875</ele>
        <time>2003-06-07T10:50:19Z</time>
      </trkpt>
      <trkpt lat="46.478787492960691" lon="10.361126158386469">
        <ele>1272.442138671875</ele>
        <time>2003-06-07T10:50:21Z</time>
      </trkpt>
      <trkpt lat="46.478726724162698" lon="10.361220287159085">
        <ele>1272.9228515625</ele>
        <time>2003-06-07T10:50:23Z</time>
      </trkpt>
      <trkpt lat="46.478628404438496" lon="10.361361941322684">
        <ele>1272.9228515625</ele>
        <time>2003-06-07T10:50:26Z</time>
      </trkpt>
      <trkpt lat="46.478550033643842" lon="10.361453220248222">
        <ele>1273.403564453125</ele>
        <time>2003-06-07T10:50:28Z</time>
      </trkpt>
      <trkpt lat="46.478469567373395" lon="10.361537290737033">
        <ele>1273.403564453125</ele>
        <time>2003-06-07T10:50:30Z</time>
      </trkpt>
      <trkpt lat="46.478388598188758" lon="10.361616918817163">
        <ele>1273.403564453125</ele>
        <time>2003-06-07T10:50:32Z</time>
      </trkpt>
      <trkpt lat="46.478309137746692" lon="10.361700737848878">
        <ele>1273.884033203125</ele>
        <time>2003-06-07T10:50:34Z</time>
      </trkpt>
      <trkpt lat="46.478229928761721" lon="10.361783970147371">
        <ele>1273.884033203125</ele>
        <time>2003-06-07T10:50:36Z</time>
      </trkpt>
      <trkpt lat="46.47814778611064" lon="10.361866867169738">
        <ele>1273.884033203125</ele>
        <time>2003-06-07T10:50:38Z</time>
      </trkpt>
      <trkpt lat="46.478066481649876" lon="10.361949848011136">
        <ele>1274.36474609375</ele>
        <time>2003-06-07T10:50:40Z</time>
      </trkpt>
      <trkpt lat="46.477987188845873" lon="10.362028134986758">
        <ele>1274.845458984375</ele>
        <time>2003-06-07T10:50:42Z</time>
      </trkpt>
      <trkpt lat="46.47791032679379" lon="10.362102147191763">
        <ele>1274.36474609375</ele>
        <time>2003-06-07T10:50:44Z</time>
      </trkpt>
      <trkpt lat="46.47779893130064" lon="10.362202813848853">
        <ele>1275.806640625</ele>
        <time>2003-06-07T10:50:47Z</time>
      </trkpt>
      <trkpt lat="46.477688541635871" lon="10.362287303432822">
        <ele>1275.325927734375</ele>
        <time>2003-06-07T10:50:50Z</time>
      </trkpt>
      <trkpt lat="46.477575385943055" lon="10.362355867400765">
        <ele>1274.845458984375</ele>
        <time>2003-06-07T10:50:53Z</time>
      </trkpt>
      <trkpt lat="46.477461811155081" lon="10.362423174083233">
        <ele>1275.325927734375</ele>
        <time>2003-06-07T10:50:56Z</time>
      </trkpt>
      <trkpt lat="46.477352930232882" lon="10.362479835748672">
        <ele>1274.845458984375</ele>
        <time>2003-06-07T10:50:59Z</time>
      </trkpt>
      <trkpt lat="46.477244300767779" lon="10.362536329776049">
        <ele>1275.325927734375</ele>
        <time>2003-06-07T10:51:02Z</time>
      </trkpt>
      <trkpt lat="46.477134330198169" lon="10.362588297575712">
        <ele>1275.325927734375</ele>
        <time>2003-06-07T10:51:05Z</time>
      </trkpt>
      <trkpt lat="46.477026371285319" lon="10.362640433013439">
        <ele>1275.325927734375</ele>
        <time>2003-06-07T10:51:08Z</time>
      </trkpt>
      <trkpt lat="46.47692134603858" lon="10.362696591764688">
        <ele>1275.325927734375</ele>
        <time>2003-06-07T10:51:11Z</time>
      </trkpt>
      <trkpt lat="46.47682168520987" lon="10.362740512937307">
        <ele>1275.325927734375</ele>
        <time>2003-06-07T10:51:14Z</time>
      </trkpt>
      <trkpt lat="46.476724874228239" lon="10.362786697223783">
        <ele>1275.806640625</ele>
        <time>2003-06-07T10:51:17Z</time>
      </trkpt>
      <trkpt lat="46.476631667464972" lon="10.362833216786385">
        <ele>1275.806640625</ele>
        <time>2003-06-07T10:51:20Z</time>
      </trkpt>
      <trkpt lat="46.476536281406879" lon="10.36288040690124">
        <ele>1276.768310546875</ele>
        <time>2003-06-07T10:51:23Z</time>
      </trkpt>
      <trkpt lat="46.476439721882343" lon="10.362927848473191">
        <ele>1276.28759765625</ele>
        <time>2003-06-07T10:51:26Z</time>
      </trkpt>
      <trkpt lat="46.476342156529427" lon="10.362974368035793">
        <ele>1276.768310546875</ele>
        <time>2003-06-07T10:51:29Z</time>
      </trkpt>
      <trkpt lat="46.476246267557144" lon="10.363024072721601">
        <ele>1276.768310546875</ele>
        <time>2003-06-07T10:51:32Z</time>
      </trkpt>
      <trkpt lat="46.476146942004561" lon="10.36307436414063">
        <ele>1276.768310546875</ele>
        <time>2003-06-07T10:51:35Z</time>
      </trkpt>
      <trkpt lat="46.476045437157154" lon="10.363129768520594">
        <ele>1276.768310546875</ele>
        <time>2003-06-07T10:51:38Z</time>
      </trkpt>
      <trkpt lat="46.475946782156825" lon="10.363186011090875">
        <ele>1276.28759765625</ele>
        <time>2003-06-07T10:51:41Z</time>
      </trkpt>
      <trkpt lat="46.475850138813257" lon="10.363246612250805">
        <ele>1277.2490234375</ele>
        <time>2003-06-07T10:51:44Z</time>
      </trkpt>
      <trkpt lat="46.475750897079706" lon="10.363309476524591">
        <ele>1277.7294921875</ele>
        <time>2003-06-07T10:51:47Z</time>
      </trkpt>
      <trkpt lat="46.475652074441314" lon="10.363374100998044">
        <ele>1278.210205078125</ele>
        <time>2003-06-07T10:51:50Z</time>
      </trkpt>
      <trkpt lat="46.475557023659348" lon="10.363447107374668">
        <ele>1278.210205078125</ele>
        <time>2003-06-07T10:51:53Z</time>
      </trkpt>
      <trkpt lat="46.475457111373544" lon="10.363521035760641">
        <ele>1278.210205078125</ele>
        <time>2003-06-07T10:51:56Z</time>
      </trkpt>
      <trkpt lat="46.475359965115786" lon="10.363599825650454">
        <ele>1278.69091796875</ele>
        <time>2003-06-07T10:51:59Z</time>
      </trkpt>
      <trkpt lat="46.475263657048345" lon="10.363675598055124">
        <ele>1278.210205078125</ele>
        <time>2003-06-07T10:52:02Z</time>
      </trkpt>
      <trkpt lat="46.475171288475394" lon="10.363750280812383">
        <ele>1278.69091796875</ele>
        <time>2003-06-07T10:52:05Z</time>
      </trkpt>
      <trkpt lat="46.475078081712127" lon="10.363822868093848">
        <ele>1278.69091796875</ele>
        <time>2003-06-07T10:52:08Z</time>
      </trkpt>
      <trkpt lat="46.47498537786305" lon="10.363900065422058">
        <ele>1278.69091796875</ele>
        <time>2003-06-07T10:52:11Z</time>
      </trkpt>
      <trkpt lat="46.47489795461297" lon="10.363969216123223">
        <ele>1278.210205078125</ele>
        <time>2003-06-07T10:52:14Z</time>
      </trkpt>
      <trkpt lat="46.474814303219318" lon="10.364039205014706">
        <ele>1277.2490234375</ele>
        <time>2003-06-07T10:52:17Z</time>
      </trkpt>
      <trkpt lat="46.474720844998956" lon="10.364113803952932">
        <ele>1277.2490234375</ele>
        <time>2003-06-07T10:52:20Z</time>
      </trkpt>
      <trkpt lat="46.474613472819328" lon="10.364202484488487">
        <ele>1277.2490234375</ele>
        <time>2003-06-07T10:52:23Z</time>
      </trkpt>
      <trkpt lat="46.474533341825008" lon="10.364267947152257">
        <ele>1277.2490234375</ele>
        <time>2003-06-07T10:52:25Z</time>
      </trkpt>
      <trkpt lat="46.474447846412659" lon="10.364338187500834">
        <ele>1277.2490234375</ele>
        <time>2003-06-07T10:52:27Z</time>
      </trkpt>
      <trkpt lat="46.474357740953565" lon="10.364407422021031">
        <ele>1276.768310546875</ele>
        <time>2003-06-07T10:52:29Z</time>
      </trkpt>
      <trkpt lat="46.474267048761249" lon="10.364481434226036">
        <ele>1276.768310546875</ele>
        <time>2003-06-07T10:52:31Z</time>
      </trkpt>
      <trkpt lat="46.474173422902822" lon="10.364551758393645">
        <ele>1276.768310546875</ele>
        <time>2003-06-07T10:52:33Z</time>
      </trkpt>
      <trkpt lat="46.474080802872777" lon="10.364623675122857">
        <ele>1276.768310546875</ele>
        <time>2003-06-07T10:52:35Z</time>
      </trkpt>
      <trkpt lat="46.473986087366939" lon="10.364704309031367">
        <ele>1276.28759765625</ele>
        <time>2003-06-07T10:52:37Z</time>
      </trkpt>
      <trkpt lat="46.473888102918863" lon="10.364779997617006">
        <ele>1275.806640625</ele>
        <time>2003-06-07T10:52:39Z</time>
      </trkpt>
      <trkpt lat="46.473787855356932" lon="10.364855099469423">
        <ele>1275.806640625</ele>
        <time>2003-06-07T10:52:41Z</time>
      </trkpt>
      <trkpt lat="46.473691714927554" lon="10.364929530769587">
        <ele>1275.325927734375</ele>
        <time>2003-06-07T10:52:43Z</time>
      </trkpt>
      <trkpt lat="46.473603788763285" lon="10.365004548802972">
        <ele>1275.806640625</ele>
        <time>2003-06-07T10:52:45Z</time>
      </trkpt>
      <trkpt lat="46.473521310836077" lon="10.365072693675756">
        <ele>1275.806640625</ele>
        <time>2003-06-07T10:52:47Z</time>
      </trkpt>
      <trkpt lat="46.473441934213042" lon="10.365135641768575">
        <ele>1275.325927734375</ele>
        <time>2003-06-07T10:52:49Z</time>
      </trkpt>
      <trkpt lat="46.47333431057632" lon="10.365222813561559">
        <ele>1275.325927734375</ele>
        <time>2003-06-07T10:52:52Z</time>
      </trkpt>
      <trkpt lat="46.47323121316731" lon="10.36530302837491">
        <ele>1274.36474609375</ele>
        <time>2003-06-07T10:52:55Z</time>
      </trkpt>
      <trkpt lat="46.473132977262139" lon="10.365373436361551">
        <ele>1275.806640625</ele>
        <time>2003-06-07T10:52:58Z</time>
      </trkpt>
      <trkpt lat="46.473009176552296" lon="10.365445520728827">
        <ele>1275.806640625</ele>
        <time>2003-06-07T10:53:01Z</time>
      </trkpt>
      <trkpt lat="46.472898786887527" lon="10.36550872027874">
        <ele>1276.28759765625</ele>
        <time>2003-06-07T10:53:04Z</time>
      </trkpt>
      <trkpt lat="46.472809603437781" lon="10.365574937313795">
        <ele>1276.768310546875</ele>
        <time>2003-06-07T10:53:08Z</time>
      </trkpt>
      <trkpt lat="46.47272352129221" lon="10.365660432726145">
        <ele>1275.806640625</ele>
        <time>2003-06-07T10:53:13Z</time>
      </trkpt>
      <trkpt lat="46.472655041143298" lon="10.365748107433319">
        <ele>1275.325927734375</ele>
        <time>2003-06-07T10:53:17Z</time>
      </trkpt>
      <trkpt lat="46.472573149949312" lon="10.365818850696087">
        <ele>1274.36474609375</ele>
        <time>2003-06-07T10:53:21Z</time>
      </trkpt>
      <trkpt lat="46.47250852547586" lon="10.365918511524796">
        <ele>1273.884033203125</ele>
        <time>2003-06-07T10:53:25Z</time>
      </trkpt>
      <trkpt lat="46.472406601533294" lon="10.365982130169868">
        <ele>1272.442138671875</ele>
        <time>2003-06-07T10:53:30Z</time>
      </trkpt>
      <trkpt lat="46.472312221303582" lon="10.366018591448665">
        <ele>1271.480712890625</ele>
        <time>2003-06-07T10:53:33Z</time>
      </trkpt>
      <trkpt lat="46.472192863002419" lon="10.366083802655339">
        <ele>1270.51953125</ele>
        <time>2003-06-07T10:53:36Z</time>
      </trkpt>
      <trkpt lat="46.47209320217371" lon="10.366133423522115">
        <ele>1270.51953125</ele>
        <time>2003-06-07T10:53:38Z</time>
      </trkpt>
      <trkpt lat="46.471970826387405" lon="10.366189330816269">
        <ele>1269.558349609375</ele>
        <time>2003-06-07T10:53:40Z</time>
      </trkpt>
      <trkpt lat="46.471835626289248" lon="10.366250853985548">
        <ele>1269.558349609375</ele>
        <time>2003-06-07T10:53:42Z</time>
      </trkpt>
      <trkpt lat="46.471685841679573" lon="10.366318412125111">
        <ele>1268.1162109375</ele>
        <time>2003-06-07T10:53:44Z</time>
      </trkpt>
      <trkpt lat="46.471526585519314" lon="10.366387814283371">
        <ele>1267.155029296875</ele>
        <time>2003-06-07T10:53:46Z</time>
      </trkpt>
      <trkpt lat="46.471360456198454" lon="10.366458054631948">
        <ele>1266.67431640625</ele>
        <time>2003-06-07T10:53:48Z</time>
      </trkpt>
      <trkpt lat="46.471203211694956" lon="10.36653877235949">
        <ele>1265.232421875</ele>
        <time>2003-06-07T10:53:50Z</time>
      </trkpt>
      <trkpt lat="46.471122577786446" lon="10.366590237244964">
        <ele>1264.27099609375</ele>
        <time>2003-06-07T10:53:51Z</time>
      </trkpt>
      <trkpt lat="46.471035070717335" lon="10.366676906123757">
        <ele>1263.790283203125</ele>
        <time>2003-06-07T10:53:52Z</time>
      </trkpt>
      <trkpt lat="46.470947479829192" lon="10.366763575002551">
        <ele>1262.8291015625</ele>
        <time>2003-06-07T10:53:53Z</time>
      </trkpt>
      <trkpt lat="46.470859386026859" lon="10.366862062364817">
        <ele>1262.348388671875</ele>
        <time>2003-06-07T10:53:54Z</time>
      </trkpt>
      <trkpt lat="46.47078319452703" lon="10.366974547505379">
        <ele>1261.38720703125</ele>
        <time>2003-06-07T10:53:55Z</time>
      </trkpt>
      <trkpt lat="46.470707841217518" lon="10.367086110636592">
        <ele>1260.906494140625</ele>
        <time>2003-06-07T10:53:56Z</time>
      </trkpt>
      <trkpt lat="46.470617903396487" lon="10.367201864719391">
        <ele>1260.42578125</ele>
        <time>2003-06-07T10:53:57Z</time>
      </trkpt>
      <trkpt lat="46.470527714118361" lon="10.367318708449602">
        <ele>1259.46435546875</ele>
        <time>2003-06-07T10:53:58Z</time>
      </trkpt>
      <trkpt lat="46.470443978905678" lon="10.367424236610532">
        <ele>1258.983642578125</ele>
        <time>2003-06-07T10:53:59Z</time>
      </trkpt>
      <trkpt lat="46.470360746607184" lon="10.367540828883648">
        <ele>1258.5029296875</ele>
        <time>2003-06-07T10:54:00Z</time>
      </trkpt>
      <trkpt lat="46.470278687775135" lon="10.367659348994493">
        <ele>1258.5029296875</ele>
        <time>2003-06-07T10:54:01Z</time>
      </trkpt>
      <trkpt lat="46.470200903713703" lon="10.36776814609766">
        <ele>1258.5029296875</ele>
        <time>2003-06-07T10:54:02Z</time>
      </trkpt>
      <trkpt lat="46.470123203471303" lon="10.367876943200827">
        <ele>1258.5029296875</ele>
        <time>2003-06-07T10:54:03Z</time>
      </trkpt>
      <trkpt lat="46.470045419409871" lon="10.367985740303993">
        <ele>1258.0224609375</ele>
        <time>2003-06-07T10:54:04Z</time>
      </trkpt>
      <trkpt lat="46.469967635348439" lon="10.36809453740716">
        <ele>1257.541748046875</ele>
        <time>2003-06-07T10:54:05Z</time>
      </trkpt>
      <trkpt lat="46.469901166856289" lon="10.368200652301311">
        <ele>1257.541748046875</ele>
        <time>2003-06-07T10:54:06Z</time>
      </trkpt>
      <trkpt lat="46.469828160479665" lon="10.36830366589129">
        <ele>1256.099609375</ele>
        <time>2003-06-07T10:54:07Z</time>
      </trkpt>
      <trkpt lat="46.469752304255962" lon="10.368417240679264">
        <ele>1256.099609375</ele>
        <time>2003-06-07T10:54:08Z</time>
      </trkpt>
      <trkpt lat="46.469677118584514" lon="10.368522349745035">
        <ele>1255.619140625</ele>
        <time>2003-06-07T10:54:09Z</time>
      </trkpt>
      <trkpt lat="46.469602016732097" lon="10.368627458810806">
        <ele>1255.138427734375</ele>
        <time>2003-06-07T10:54:10Z</time>
      </trkpt>
      <trkpt lat="46.469527585431933" lon="10.368740865960717">
        <ele>1254.65771484375</ele>
        <time>2003-06-07T10:54:11Z</time>
      </trkpt>
      <trkpt lat="46.469452483579516" lon="10.368852764368057">
        <ele>1254.17724609375</ele>
        <time>2003-06-07T10:54:12Z</time>
      </trkpt>
      <trkpt lat="46.469383081421256" lon="10.368955694139004">
        <ele>1252.735107421875</ele>
        <time>2003-06-07T10:54:13Z</time>
      </trkpt>
      <trkpt lat="46.469313679262996" lon="10.369058540090919">
        <ele>1252.735107421875</ele>
        <time>2003-06-07T10:54:14Z</time>
      </trkpt>
      <trkpt lat="46.469227345660329" lon="10.369267333298922">
        <ele>1251.77392578125</ele>
        <time>2003-06-07T10:54:16Z</time>
      </trkpt>
      <trkpt lat="46.469204798340797" lon="10.369430528953671">
        <ele>1250.8125</ele>
        <time>2003-06-07T10:54:18Z</time>
      </trkpt>
      <trkpt lat="46.469179736450315" lon="10.369560699909925">
        <ele>1250.33203125</ele>
        <time>2003-06-07T10:54:21Z</time>
      </trkpt>
      <trkpt lat="46.4691545907408" lon="10.369690870866179">
        <ele>1250.33203125</ele>
        <time>2003-06-07T10:54:24Z</time>
      </trkpt>
      <trkpt lat="46.469129528850317" lon="10.369820958003402">
        <ele>1249.851318359375</ele>
        <time>2003-06-07T10:54:27Z</time>
      </trkpt>
      <trkpt lat="46.469104383140802" lon="10.369951128959656">
        <ele>1250.33203125</ele>
        <time>2003-06-07T10:54:30Z</time>
      </trkpt>
      <trkpt lat="46.469089211896062" lon="10.37003587000072">
        <ele>1249.851318359375</ele>
        <time>2003-06-07T10:54:38Z</time>
      </trkpt>
      <trkpt lat="46.469010338187218" lon="10.370124382898211">
        <ele>1249.851318359375</ele>
        <time>2003-06-07T10:54:48Z</time>
      </trkpt>
      <trkpt lat="46.468931380659342" lon="10.370212895795703">
        <ele>1250.33203125</ele>
        <time>2003-06-07T10:54:58Z</time>
      </trkpt>
    </trkseg>
  </trk>

</gpx>
